<?xml version="1.0" encoding="UTF-8" standalone="no" ?>
<gpx xmlns="http://www.topografix.com/GPX/1/1" xmlns:xsi="http://www.w3.org/2001/XMLSchema-instance" xsi:schemaLocation="http://www.topografix.com/GPX/1/1 http://www.topografix.com/GPX/1/1/gpx.xsd" version="1.1" creator="VisuGPX - https://www.visugpx.com">
  <metadata>
    <name>Ginasservis Nord</name>
    <desc><![CDATA[Petite boucle de 16km assez facile au nord de Ginasservis (83560)]]></desc>
  </metadata>
  <trk>
    <name><![CDATA[Ginasservis Nord_1]]></name>
    <trkseg>
      <trkpt lat="43.67265" lon="5.85271">
        <ele>580</ele>
        <time>2016-04-17T06:01:34.000Z</time>
      </trkpt>
      <trkpt lat="43.67348" lon="5.85269">
        <ele>465</ele>
        <time>2016-04-17T06:01:48.000Z</time>
      </trkpt>
      <trkpt lat="43.67348" lon="5.85269">
        <ele>465</ele>
        <time>2016-04-17T06:01:50.000Z</time>
      </trkpt>
      <trkpt lat="43.67348" lon="5.85269">
        <ele>465</ele>
        <time>2016-04-17T06:01:56.000Z</time>
      </trkpt>
      <trkpt lat="43.67348" lon="5.85269">
        <ele>465</ele>
        <time>2016-04-17T06:01:58.000Z</time>
      </trkpt>
      <trkpt lat="43.67348" lon="5.85269">
        <ele>465</ele>
        <time>2016-04-17T06:02:00.000Z</time>
      </trkpt>
      <trkpt lat="43.67348" lon="5.85269">
        <ele>465</ele>
        <time>2016-04-17T06:02:02.000Z</time>
      </trkpt>
      <trkpt lat="43.67348" lon="5.85269">
        <ele>465</ele>
        <time>2016-04-17T06:02:04.000Z</time>
      </trkpt>
      <trkpt lat="43.67348" lon="5.85269">
        <ele>465</ele>
        <time>2016-04-17T06:02:06.000Z</time>
      </trkpt>
      <trkpt lat="43.67348" lon="5.85269">
        <ele>465</ele>
        <time>2016-04-17T06:02:08.000Z</time>
      </trkpt>
      <trkpt lat="43.67348" lon="5.85269">
        <ele>465</ele>
        <time>2016-04-17T06:02:10.000Z</time>
      </trkpt>
      <trkpt lat="43.67348" lon="5.85269">
        <ele>465</ele>
        <time>2016-04-17T06:02:12.000Z</time>
      </trkpt>
      <trkpt lat="43.67348" lon="5.85269">
        <ele>465</ele>
        <time>2016-04-17T06:02:14.000Z</time>
      </trkpt>
      <trkpt lat="43.67348" lon="5.85269">
        <ele>465</ele>
        <time>2016-04-17T06:02:16.000Z</time>
      </trkpt>
      <trkpt lat="43.67348" lon="5.85269">
        <ele>465</ele>
        <time>2016-04-17T06:02:18.000Z</time>
      </trkpt>
      <trkpt lat="43.67348" lon="5.85269">
        <ele>465</ele>
        <time>2016-04-17T06:02:20.000Z</time>
      </trkpt>
      <trkpt lat="43.67348" lon="5.85269">
        <ele>465</ele>
        <time>2016-04-17T06:02:22.000Z</time>
      </trkpt>
      <trkpt lat="43.67348" lon="5.85269">
        <ele>465</ele>
        <time>2016-04-17T06:02:24.000Z</time>
      </trkpt>
      <trkpt lat="43.67348" lon="5.85269">
        <ele>465</ele>
        <time>2016-04-17T06:02:26.000Z</time>
      </trkpt>
      <trkpt lat="43.67348" lon="5.85269">
        <ele>465</ele>
        <time>2016-04-17T06:02:28.000Z</time>
      </trkpt>
      <trkpt lat="43.67348" lon="5.85269">
        <ele>465</ele>
        <time>2016-04-17T06:02:30.000Z</time>
      </trkpt>
      <trkpt lat="43.67348" lon="5.85269">
        <ele>465</ele>
        <time>2016-04-17T06:02:32.000Z</time>
      </trkpt>
      <trkpt lat="43.67348" lon="5.85269">
        <ele>465</ele>
        <time>2016-04-17T06:02:34.000Z</time>
      </trkpt>
      <trkpt lat="43.67348" lon="5.85269">
        <ele>465</ele>
        <time>2016-04-17T06:02:36.000Z</time>
      </trkpt>
      <trkpt lat="43.67428" lon="5.85369">
        <ele>440</ele>
        <time>2016-04-17T06:02:38.000Z</time>
      </trkpt>
      <trkpt lat="43.67447" lon="5.85378">
        <ele>437</ele>
        <time>2016-04-17T06:02:42.000Z</time>
      </trkpt>
      <trkpt lat="43.67456" lon="5.85382">
        <ele>437</ele>
        <time>2016-04-17T06:02:44.000Z</time>
      </trkpt>
      <trkpt lat="43.6747" lon="5.85387">
        <ele>437</ele>
        <time>2016-04-17T06:02:48.000Z</time>
      </trkpt>
      <trkpt lat="43.6747" lon="5.85387">
        <ele>437</ele>
        <time>2016-04-17T06:02:50.000Z</time>
      </trkpt>
      <trkpt lat="43.6747" lon="5.85387">
        <ele>437</ele>
        <time>2016-04-17T06:02:52.000Z</time>
      </trkpt>
      <trkpt lat="43.6747" lon="5.85387">
        <ele>437</ele>
        <time>2016-04-17T06:02:54.000Z</time>
      </trkpt>
      <trkpt lat="43.6747" lon="5.85387">
        <ele>437</ele>
        <time>2016-04-17T06:02:56.000Z</time>
      </trkpt>
      <trkpt lat="43.6747" lon="5.85387">
        <ele>437</ele>
        <time>2016-04-17T06:02:58.000Z</time>
      </trkpt>
      <trkpt lat="43.6747" lon="5.85387">
        <ele>437</ele>
        <time>2016-04-17T06:03:00.000Z</time>
      </trkpt>
      <trkpt lat="43.6747" lon="5.85387">
        <ele>437</ele>
        <time>2016-04-17T06:03:02.000Z</time>
      </trkpt>
      <trkpt lat="43.6747" lon="5.85387">
        <ele>437</ele>
        <time>2016-04-17T06:03:04.000Z</time>
      </trkpt>
      <trkpt lat="43.6747" lon="5.85387">
        <ele>437</ele>
        <time>2016-04-17T06:03:06.000Z</time>
      </trkpt>
      <trkpt lat="43.6747" lon="5.85387">
        <ele>437</ele>
        <time>2016-04-17T06:03:08.000Z</time>
      </trkpt>
      <trkpt lat="43.6747" lon="5.85387">
        <ele>437</ele>
        <time>2016-04-17T06:03:10.000Z</time>
      </trkpt>
      <trkpt lat="43.6747" lon="5.85387">
        <ele>437</ele>
        <time>2016-04-17T06:03:12.000Z</time>
      </trkpt>
      <trkpt lat="43.6747" lon="5.85387">
        <ele>437</ele>
        <time>2016-04-17T06:03:14.000Z</time>
      </trkpt>
      <trkpt lat="43.6747" lon="5.85387">
        <ele>437</ele>
        <time>2016-04-17T06:03:16.000Z</time>
      </trkpt>
      <trkpt lat="43.6747" lon="5.85387">
        <ele>437</ele>
        <time>2016-04-17T06:03:18.000Z</time>
      </trkpt>
      <trkpt lat="43.6747" lon="5.85387">
        <ele>437</ele>
        <time>2016-04-17T06:03:20.000Z</time>
      </trkpt>
      <trkpt lat="43.6747" lon="5.85387">
        <ele>437</ele>
        <time>2016-04-17T06:03:22.000Z</time>
      </trkpt>
      <trkpt lat="43.6747" lon="5.85387">
        <ele>437</ele>
        <time>2016-04-17T06:03:24.000Z</time>
      </trkpt>
      <trkpt lat="43.6747" lon="5.85387">
        <ele>437</ele>
        <time>2016-04-17T06:03:26.000Z</time>
      </trkpt>
      <trkpt lat="43.6747" lon="5.85387">
        <ele>437</ele>
        <time>2016-04-17T06:03:28.000Z</time>
      </trkpt>
      <trkpt lat="43.6747" lon="5.85387">
        <ele>437</ele>
        <time>2016-04-17T06:03:30.000Z</time>
      </trkpt>
      <trkpt lat="43.6747" lon="5.85387">
        <ele>437</ele>
        <time>2016-04-17T06:03:32.000Z</time>
      </trkpt>
      <trkpt lat="43.6747" lon="5.85387">
        <ele>437</ele>
        <time>2016-04-17T06:03:34.000Z</time>
      </trkpt>
      <trkpt lat="43.6747" lon="5.85387">
        <ele>437</ele>
        <time>2016-04-17T06:03:36.000Z</time>
      </trkpt>
      <trkpt lat="43.6747" lon="5.85387">
        <ele>437</ele>
        <time>2016-04-17T06:03:38.000Z</time>
      </trkpt>
      <trkpt lat="43.6747" lon="5.85387">
        <ele>437</ele>
        <time>2016-04-17T06:03:40.000Z</time>
      </trkpt>
      <trkpt lat="43.6747" lon="5.85387">
        <ele>437</ele>
        <time>2016-04-17T06:03:42.000Z</time>
      </trkpt>
      <trkpt lat="43.6747" lon="5.85387">
        <ele>437</ele>
        <time>2016-04-17T06:03:44.000Z</time>
      </trkpt>
      <trkpt lat="43.6747" lon="5.85387">
        <ele>437</ele>
        <time>2016-04-17T06:03:46.000Z</time>
      </trkpt>
      <trkpt lat="43.67506" lon="5.85394">
        <ele>456</ele>
        <time>2016-04-17T06:03:48.000Z</time>
      </trkpt>
      <trkpt lat="43.67525" lon="5.85398">
        <ele>458</ele>
        <time>2016-04-17T06:03:50.000Z</time>
      </trkpt>
      <trkpt lat="43.67536" lon="5.85401">
        <ele>459</ele>
        <time>2016-04-17T06:03:52.000Z</time>
      </trkpt>
      <trkpt lat="43.67543" lon="5.85402">
        <ele>460</ele>
        <time>2016-04-17T06:03:54.000Z</time>
      </trkpt>
      <trkpt lat="43.67548" lon="5.85402">
        <ele>461</ele>
        <time>2016-04-17T06:03:58.000Z</time>
      </trkpt>
      <trkpt lat="43.67553" lon="5.85402">
        <ele>463</ele>
        <time>2016-04-17T06:04:02.000Z</time>
      </trkpt>
      <trkpt lat="43.67558" lon="5.85402">
        <ele>466</ele>
        <time>2016-04-17T06:04:08.000Z</time>
      </trkpt>
      <trkpt lat="43.67563" lon="5.85402">
        <ele>469</ele>
        <time>2016-04-17T06:04:14.000Z</time>
      </trkpt>
      <trkpt lat="43.67567" lon="5.85401">
        <ele>470</ele>
        <time>2016-04-17T06:04:18.000Z</time>
      </trkpt>
      <trkpt lat="43.67572" lon="5.85401">
        <ele>472</ele>
        <time>2016-04-17T06:04:24.000Z</time>
      </trkpt>
      <trkpt lat="43.67572" lon="5.85401">
        <ele>472</ele>
        <time>2016-04-17T06:04:30.000Z</time>
      </trkpt>
      <trkpt lat="43.67572" lon="5.85401">
        <ele>472</ele>
        <time>2016-04-17T06:04:32.000Z</time>
      </trkpt>
      <trkpt lat="43.67572" lon="5.85401">
        <ele>472</ele>
        <time>2016-04-17T06:04:34.000Z</time>
      </trkpt>
      <trkpt lat="43.67581" lon="5.854">
        <ele>477</ele>
        <time>2016-04-17T06:04:38.000Z</time>
      </trkpt>
      <trkpt lat="43.67586" lon="5.854">
        <ele>478</ele>
        <time>2016-04-17T06:04:40.000Z</time>
      </trkpt>
      <trkpt lat="43.67591" lon="5.854">
        <ele>479</ele>
        <time>2016-04-17T06:04:44.000Z</time>
      </trkpt>
      <trkpt lat="43.67596" lon="5.85399">
        <ele>480</ele>
        <time>2016-04-17T06:04:50.000Z</time>
      </trkpt>
      <trkpt lat="43.67601" lon="5.85399">
        <ele>481</ele>
        <time>2016-04-17T06:04:54.000Z</time>
      </trkpt>
      <trkpt lat="43.67606" lon="5.85398">
        <ele>483</ele>
        <time>2016-04-17T06:05:00.000Z</time>
      </trkpt>
      <trkpt lat="43.67611" lon="5.85397">
        <ele>483</ele>
        <time>2016-04-17T06:05:04.000Z</time>
      </trkpt>
      <trkpt lat="43.67616" lon="5.85396">
        <ele>483</ele>
        <time>2016-04-17T06:05:08.000Z</time>
      </trkpt>
      <trkpt lat="43.6762" lon="5.85396">
        <ele>483</ele>
        <time>2016-04-17T06:05:12.000Z</time>
      </trkpt>
      <trkpt lat="43.67625" lon="5.85395">
        <ele>482</ele>
        <time>2016-04-17T06:05:16.000Z</time>
      </trkpt>
      <trkpt lat="43.67629" lon="5.85395">
        <ele>483</ele>
        <time>2016-04-17T06:05:20.000Z</time>
      </trkpt>
      <trkpt lat="43.67633" lon="5.85394">
        <ele>483</ele>
        <time>2016-04-17T06:05:24.000Z</time>
      </trkpt>
      <trkpt lat="43.67638" lon="5.85393">
        <ele>483</ele>
        <time>2016-04-17T06:05:28.000Z</time>
      </trkpt>
      <trkpt lat="43.67643" lon="5.85392">
        <ele>482</ele>
        <time>2016-04-17T06:05:32.000Z</time>
      </trkpt>
      <trkpt lat="43.67648" lon="5.85392">
        <ele>482</ele>
        <time>2016-04-17T06:05:36.000Z</time>
      </trkpt>
      <trkpt lat="43.67653" lon="5.8539">
        <ele>482</ele>
        <time>2016-04-17T06:05:40.000Z</time>
      </trkpt>
      <trkpt lat="43.67658" lon="5.85389">
        <ele>483</ele>
        <time>2016-04-17T06:05:44.000Z</time>
      </trkpt>
      <trkpt lat="43.67663" lon="5.85387">
        <ele>483</ele>
        <time>2016-04-17T06:05:48.000Z</time>
      </trkpt>
      <trkpt lat="43.67667" lon="5.85385">
        <ele>484</ele>
        <time>2016-04-17T06:05:52.000Z</time>
      </trkpt>
      <trkpt lat="43.67672" lon="5.85382">
        <ele>485</ele>
        <time>2016-04-17T06:05:56.000Z</time>
      </trkpt>
      <trkpt lat="43.67677" lon="5.8538">
        <ele>486</ele>
        <time>2016-04-17T06:06:00.000Z</time>
      </trkpt>
      <trkpt lat="43.67681" lon="5.85378">
        <ele>484</ele>
        <time>2016-04-17T06:06:04.000Z</time>
      </trkpt>
      <trkpt lat="43.67686" lon="5.85375">
        <ele>486</ele>
        <time>2016-04-17T06:06:08.000Z</time>
      </trkpt>
      <trkpt lat="43.67691" lon="5.85371">
        <ele>485</ele>
        <time>2016-04-17T06:06:12.000Z</time>
      </trkpt>
      <trkpt lat="43.67695" lon="5.85368">
        <ele>486</ele>
        <time>2016-04-17T06:06:16.000Z</time>
      </trkpt>
      <trkpt lat="43.67699" lon="5.85364">
        <ele>485</ele>
        <time>2016-04-17T06:06:20.000Z</time>
      </trkpt>
      <trkpt lat="43.67704" lon="5.85359">
        <ele>486</ele>
        <time>2016-04-17T06:06:24.000Z</time>
      </trkpt>
      <trkpt lat="43.67707" lon="5.85354">
        <ele>488</ele>
        <time>2016-04-17T06:06:28.000Z</time>
      </trkpt>
      <trkpt lat="43.67711" lon="5.85349">
        <ele>489</ele>
        <time>2016-04-17T06:06:32.000Z</time>
      </trkpt>
      <trkpt lat="43.67715" lon="5.85343">
        <ele>490</ele>
        <time>2016-04-17T06:06:36.000Z</time>
      </trkpt>
      <trkpt lat="43.67718" lon="5.85337">
        <ele>491</ele>
        <time>2016-04-17T06:06:40.000Z</time>
      </trkpt>
      <trkpt lat="43.67721" lon="5.85332">
        <ele>491</ele>
        <time>2016-04-17T06:06:44.000Z</time>
      </trkpt>
      <trkpt lat="43.67724" lon="5.85327">
        <ele>492</ele>
        <time>2016-04-17T06:06:48.000Z</time>
      </trkpt>
      <trkpt lat="43.67728" lon="5.85321">
        <ele>493</ele>
        <time>2016-04-17T06:06:52.000Z</time>
      </trkpt>
      <trkpt lat="43.67732" lon="5.85314">
        <ele>493</ele>
        <time>2016-04-17T06:06:56.000Z</time>
      </trkpt>
      <trkpt lat="43.67735" lon="5.85308">
        <ele>493</ele>
        <time>2016-04-17T06:06:58.000Z</time>
      </trkpt>
      <trkpt lat="43.67738" lon="5.85301">
        <ele>494</ele>
        <time>2016-04-17T06:07:00.000Z</time>
      </trkpt>
      <trkpt lat="43.67739" lon="5.85295">
        <ele>494</ele>
        <time>2016-04-17T06:07:02.000Z</time>
      </trkpt>
      <trkpt lat="43.67739" lon="5.85295">
        <ele>494</ele>
        <time>2016-04-17T06:07:04.000Z</time>
      </trkpt>
      <trkpt lat="43.67741" lon="5.85288">
        <ele>495</ele>
        <time>2016-04-17T06:07:06.000Z</time>
      </trkpt>
      <trkpt lat="43.67741" lon="5.85288">
        <ele>495</ele>
        <time>2016-04-17T06:07:08.000Z</time>
      </trkpt>
      <trkpt lat="43.67741" lon="5.85288">
        <ele>495</ele>
        <time>2016-04-17T06:07:10.000Z</time>
      </trkpt>
      <trkpt lat="43.67741" lon="5.85288">
        <ele>495</ele>
        <time>2016-04-17T06:07:12.000Z</time>
      </trkpt>
      <trkpt lat="43.67741" lon="5.85288">
        <ele>495</ele>
        <time>2016-04-17T06:07:14.000Z</time>
      </trkpt>
      <trkpt lat="43.67741" lon="5.85288">
        <ele>495</ele>
        <time>2016-04-17T06:07:16.000Z</time>
      </trkpt>
      <trkpt lat="43.67741" lon="5.85288">
        <ele>495</ele>
        <time>2016-04-17T06:07:18.000Z</time>
      </trkpt>
      <trkpt lat="43.67741" lon="5.85288">
        <ele>495</ele>
        <time>2016-04-17T06:07:20.000Z</time>
      </trkpt>
      <trkpt lat="43.67741" lon="5.85288">
        <ele>495</ele>
        <time>2016-04-17T06:07:22.000Z</time>
      </trkpt>
      <trkpt lat="43.67741" lon="5.85288">
        <ele>495</ele>
        <time>2016-04-17T06:07:24.000Z</time>
      </trkpt>
      <trkpt lat="43.67741" lon="5.85288">
        <ele>495</ele>
        <time>2016-04-17T06:07:26.000Z</time>
      </trkpt>
      <trkpt lat="43.67741" lon="5.85288">
        <ele>495</ele>
        <time>2016-04-17T06:07:28.000Z</time>
      </trkpt>
      <trkpt lat="43.67741" lon="5.85288">
        <ele>495</ele>
        <time>2016-04-17T06:07:30.000Z</time>
      </trkpt>
      <trkpt lat="43.67741" lon="5.85288">
        <ele>495</ele>
        <time>2016-04-17T06:07:32.000Z</time>
      </trkpt>
      <trkpt lat="43.67741" lon="5.85288">
        <ele>495</ele>
        <time>2016-04-17T06:07:34.000Z</time>
      </trkpt>
      <trkpt lat="43.67741" lon="5.85288">
        <ele>495</ele>
        <time>2016-04-17T06:07:36.000Z</time>
      </trkpt>
      <trkpt lat="43.67739" lon="5.85251">
        <ele>501</ele>
        <time>2016-04-17T06:07:42.000Z</time>
      </trkpt>
      <trkpt lat="43.67738" lon="5.8523">
        <ele>501</ele>
        <time>2016-04-17T06:07:44.000Z</time>
      </trkpt>
      <trkpt lat="43.67737" lon="5.85218">
        <ele>502</ele>
        <time>2016-04-17T06:07:46.000Z</time>
      </trkpt>
      <trkpt lat="43.67736" lon="5.8521">
        <ele>502</ele>
        <time>2016-04-17T06:07:48.000Z</time>
      </trkpt>
      <trkpt lat="43.67735" lon="5.85202">
        <ele>503</ele>
        <time>2016-04-17T06:07:52.000Z</time>
      </trkpt>
      <trkpt lat="43.67735" lon="5.85195">
        <ele>503</ele>
        <time>2016-04-17T06:07:54.000Z</time>
      </trkpt>
      <trkpt lat="43.67736" lon="5.85188">
        <ele>503</ele>
        <time>2016-04-17T06:07:56.000Z</time>
      </trkpt>
      <trkpt lat="43.67737" lon="5.85182">
        <ele>503</ele>
        <time>2016-04-17T06:07:58.000Z</time>
      </trkpt>
      <trkpt lat="43.67738" lon="5.85175">
        <ele>503</ele>
        <time>2016-04-17T06:08:00.000Z</time>
      </trkpt>
      <trkpt lat="43.67741" lon="5.85163">
        <ele>503</ele>
        <time>2016-04-17T06:08:02.000Z</time>
      </trkpt>
      <trkpt lat="43.67744" lon="5.8515">
        <ele>504</ele>
        <time>2016-04-17T06:08:06.000Z</time>
      </trkpt>
      <trkpt lat="43.67744" lon="5.85137">
        <ele>504</ele>
        <time>2016-04-17T06:08:10.000Z</time>
      </trkpt>
      <trkpt lat="43.67739" lon="5.85121">
        <ele>504</ele>
        <time>2016-04-17T06:08:14.000Z</time>
      </trkpt>
      <trkpt lat="43.67735" lon="5.85104">
        <ele>504</ele>
        <time>2016-04-17T06:08:18.000Z</time>
      </trkpt>
      <trkpt lat="43.67731" lon="5.85086">
        <ele>504</ele>
        <time>2016-04-17T06:08:22.000Z</time>
      </trkpt>
      <trkpt lat="43.67729" lon="5.85068">
        <ele>503</ele>
        <time>2016-04-17T06:08:26.000Z</time>
      </trkpt>
      <trkpt lat="43.6773" lon="5.85049">
        <ele>502</ele>
        <time>2016-04-17T06:08:30.000Z</time>
      </trkpt>
      <trkpt lat="43.6773" lon="5.85049">
        <ele>502</ele>
        <time>2016-04-17T06:08:32.000Z</time>
      </trkpt>
      <trkpt lat="43.6773" lon="5.85049">
        <ele>502</ele>
        <time>2016-04-17T06:08:34.000Z</time>
      </trkpt>
      <trkpt lat="43.6773" lon="5.85049">
        <ele>502</ele>
        <time>2016-04-17T06:08:36.000Z</time>
      </trkpt>
      <trkpt lat="43.6773" lon="5.85049">
        <ele>502</ele>
        <time>2016-04-17T06:08:38.000Z</time>
      </trkpt>
      <trkpt lat="43.6773" lon="5.85049">
        <ele>502</ele>
        <time>2016-04-17T06:08:40.000Z</time>
      </trkpt>
      <trkpt lat="43.6773" lon="5.85049">
        <ele>502</ele>
        <time>2016-04-17T06:08:42.000Z</time>
      </trkpt>
      <trkpt lat="43.6773" lon="5.85049">
        <ele>502</ele>
        <time>2016-04-17T06:08:44.000Z</time>
      </trkpt>
      <trkpt lat="43.6773" lon="5.85049">
        <ele>502</ele>
        <time>2016-04-17T06:08:46.000Z</time>
      </trkpt>
      <trkpt lat="43.6773" lon="5.85049">
        <ele>502</ele>
        <time>2016-04-17T06:08:48.000Z</time>
      </trkpt>
      <trkpt lat="43.6773" lon="5.85049">
        <ele>502</ele>
        <time>2016-04-17T06:08:50.000Z</time>
      </trkpt>
      <trkpt lat="43.6773" lon="5.85049">
        <ele>502</ele>
        <time>2016-04-17T06:08:52.000Z</time>
      </trkpt>
      <trkpt lat="43.6773" lon="5.85049">
        <ele>502</ele>
        <time>2016-04-17T06:08:54.000Z</time>
      </trkpt>
      <trkpt lat="43.6773" lon="5.85049">
        <ele>502</ele>
        <time>2016-04-17T06:08:56.000Z</time>
      </trkpt>
      <trkpt lat="43.6773" lon="5.85049">
        <ele>502</ele>
        <time>2016-04-17T06:08:58.000Z</time>
      </trkpt>
      <trkpt lat="43.6773" lon="5.85049">
        <ele>502</ele>
        <time>2016-04-17T06:09:00.000Z</time>
      </trkpt>
      <trkpt lat="43.6773" lon="5.85049">
        <ele>502</ele>
        <time>2016-04-17T06:09:02.000Z</time>
      </trkpt>
      <trkpt lat="43.6773" lon="5.85049">
        <ele>502</ele>
        <time>2016-04-17T06:09:04.000Z</time>
      </trkpt>
      <trkpt lat="43.6773" lon="5.85049">
        <ele>502</ele>
        <time>2016-04-17T06:09:06.000Z</time>
      </trkpt>
      <trkpt lat="43.6773" lon="5.85049">
        <ele>502</ele>
        <time>2016-04-17T06:09:08.000Z</time>
      </trkpt>
      <trkpt lat="43.6773" lon="5.85049">
        <ele>502</ele>
        <time>2016-04-17T06:09:10.000Z</time>
      </trkpt>
      <trkpt lat="43.6773" lon="5.85049">
        <ele>502</ele>
        <time>2016-04-17T06:09:12.000Z</time>
      </trkpt>
      <trkpt lat="43.6773" lon="5.85049">
        <ele>502</ele>
        <time>2016-04-17T06:09:14.000Z</time>
      </trkpt>
      <trkpt lat="43.6773" lon="5.85049">
        <ele>502</ele>
        <time>2016-04-17T06:09:16.000Z</time>
      </trkpt>
      <trkpt lat="43.6773" lon="5.85049">
        <ele>502</ele>
        <time>2016-04-17T06:09:18.000Z</time>
      </trkpt>
      <trkpt lat="43.6773" lon="5.85049">
        <ele>502</ele>
        <time>2016-04-17T06:09:20.000Z</time>
      </trkpt>
      <trkpt lat="43.6773" lon="5.85049">
        <ele>502</ele>
        <time>2016-04-17T06:09:22.000Z</time>
      </trkpt>
      <trkpt lat="43.6773" lon="5.85049">
        <ele>502</ele>
        <time>2016-04-17T06:09:24.000Z</time>
      </trkpt>
      <trkpt lat="43.6773" lon="5.85049">
        <ele>502</ele>
        <time>2016-04-17T06:09:26.000Z</time>
      </trkpt>
      <trkpt lat="43.6773" lon="5.85049">
        <ele>502</ele>
        <time>2016-04-17T06:09:28.000Z</time>
      </trkpt>
      <trkpt lat="43.6773" lon="5.85049">
        <ele>502</ele>
        <time>2016-04-17T06:09:30.000Z</time>
      </trkpt>
      <trkpt lat="43.6773" lon="5.85049">
        <ele>502</ele>
        <time>2016-04-17T06:09:32.000Z</time>
      </trkpt>
      <trkpt lat="43.67784" lon="5.84957">
        <ele>504</ele>
        <time>2016-04-17T06:09:36.000Z</time>
      </trkpt>
      <trkpt lat="43.67815" lon="5.84908">
        <ele>501</ele>
        <time>2016-04-17T06:09:38.000Z</time>
      </trkpt>
      <trkpt lat="43.67834" lon="5.84881">
        <ele>498</ele>
        <time>2016-04-17T06:09:40.000Z</time>
      </trkpt>
      <trkpt lat="43.6785" lon="5.84862">
        <ele>495</ele>
        <time>2016-04-17T06:09:42.000Z</time>
      </trkpt>
      <trkpt lat="43.67862" lon="5.84846">
        <ele>493</ele>
        <time>2016-04-17T06:09:44.000Z</time>
      </trkpt>
      <trkpt lat="43.67883" lon="5.84822">
        <ele>491</ele>
        <time>2016-04-17T06:09:46.000Z</time>
      </trkpt>
      <trkpt lat="43.67894" lon="5.84818">
        <ele>492</ele>
        <time>2016-04-17T06:09:48.000Z</time>
      </trkpt>
      <trkpt lat="43.67903" lon="5.84817">
        <ele>491</ele>
        <time>2016-04-17T06:09:50.000Z</time>
      </trkpt>
      <trkpt lat="43.67913" lon="5.84816">
        <ele>493</ele>
        <time>2016-04-17T06:09:52.000Z</time>
      </trkpt>
      <trkpt lat="43.67913" lon="5.84816">
        <ele>493</ele>
        <time>2016-04-17T06:09:54.000Z</time>
      </trkpt>
      <trkpt lat="43.67913" lon="5.84816">
        <ele>493</ele>
        <time>2016-04-17T06:09:56.000Z</time>
      </trkpt>
      <trkpt lat="43.67913" lon="5.84816">
        <ele>493</ele>
        <time>2016-04-17T06:09:58.000Z</time>
      </trkpt>
      <trkpt lat="43.67913" lon="5.84816">
        <ele>493</ele>
        <time>2016-04-17T06:10:00.000Z</time>
      </trkpt>
      <trkpt lat="43.67913" lon="5.84816">
        <ele>493</ele>
        <time>2016-04-17T06:10:12.000Z</time>
      </trkpt>
      <trkpt lat="43.67913" lon="5.84816">
        <ele>493</ele>
        <time>2016-04-17T06:10:14.000Z</time>
      </trkpt>
      <trkpt lat="43.67996" lon="5.84761">
        <ele>484</ele>
        <time>2016-04-17T06:10:16.000Z</time>
      </trkpt>
      <trkpt lat="43.68005" lon="5.84753">
        <ele>481</ele>
        <time>2016-04-17T06:10:18.000Z</time>
      </trkpt>
      <trkpt lat="43.68015" lon="5.84742">
        <ele>480</ele>
        <time>2016-04-17T06:10:20.000Z</time>
      </trkpt>
      <trkpt lat="43.68024" lon="5.84731">
        <ele>478</ele>
        <time>2016-04-17T06:10:22.000Z</time>
      </trkpt>
      <trkpt lat="43.68036" lon="5.84719">
        <ele>475</ele>
        <time>2016-04-17T06:10:24.000Z</time>
      </trkpt>
      <trkpt lat="43.68044" lon="5.84707">
        <ele>472</ele>
        <time>2016-04-17T06:10:26.000Z</time>
      </trkpt>
      <trkpt lat="43.68044" lon="5.84707">
        <ele>472</ele>
        <time>2016-04-17T06:10:29.000Z</time>
      </trkpt>
      <trkpt lat="43.68044" lon="5.84707">
        <ele>472</ele>
        <time>2016-04-17T06:10:31.000Z</time>
      </trkpt>
      <trkpt lat="43.68044" lon="5.84707">
        <ele>472</ele>
        <time>2016-04-17T06:10:33.000Z</time>
      </trkpt>
      <trkpt lat="43.68077" lon="5.84664">
        <ele>461</ele>
        <time>2016-04-17T06:10:37.000Z</time>
      </trkpt>
      <trkpt lat="43.68084" lon="5.84657">
        <ele>459</ele>
        <time>2016-04-17T06:10:39.000Z</time>
      </trkpt>
      <trkpt lat="43.68095" lon="5.84645">
        <ele>455</ele>
        <time>2016-04-17T06:10:41.000Z</time>
      </trkpt>
      <trkpt lat="43.68105" lon="5.84634">
        <ele>453</ele>
        <time>2016-04-17T06:10:43.000Z</time>
      </trkpt>
      <trkpt lat="43.68115" lon="5.8463">
        <ele>452</ele>
        <time>2016-04-17T06:10:45.000Z</time>
      </trkpt>
      <trkpt lat="43.68115" lon="5.8463">
        <ele>452</ele>
        <time>2016-04-17T06:10:47.000Z</time>
      </trkpt>
      <trkpt lat="43.68133" lon="5.84629">
        <ele>448</ele>
        <time>2016-04-17T06:10:49.000Z</time>
      </trkpt>
      <trkpt lat="43.68146" lon="5.84637">
        <ele>448</ele>
        <time>2016-04-17T06:10:51.000Z</time>
      </trkpt>
      <trkpt lat="43.68157" lon="5.84646">
        <ele>446</ele>
        <time>2016-04-17T06:10:53.000Z</time>
      </trkpt>
      <trkpt lat="43.68167" lon="5.8465">
        <ele>443</ele>
        <time>2016-04-17T06:10:55.000Z</time>
      </trkpt>
      <trkpt lat="43.68167" lon="5.8465">
        <ele>443</ele>
        <time>2016-04-17T06:10:57.000Z</time>
      </trkpt>
      <trkpt lat="43.68167" lon="5.8465">
        <ele>443</ele>
        <time>2016-04-17T06:10:59.000Z</time>
      </trkpt>
      <trkpt lat="43.68167" lon="5.8465">
        <ele>443</ele>
        <time>2016-04-17T06:11:01.000Z</time>
      </trkpt>
      <trkpt lat="43.68216" lon="5.84638">
        <ele>435</ele>
        <time>2016-04-17T06:11:05.000Z</time>
      </trkpt>
      <trkpt lat="43.68227" lon="5.84637">
        <ele>434</ele>
        <time>2016-04-17T06:11:07.000Z</time>
      </trkpt>
      <trkpt lat="43.68227" lon="5.84637">
        <ele>434</ele>
        <time>2016-04-17T06:11:09.000Z</time>
      </trkpt>
      <trkpt lat="43.68227" lon="5.84637">
        <ele>434</ele>
        <time>2016-04-17T06:11:11.000Z</time>
      </trkpt>
      <trkpt lat="43.68227" lon="5.84637">
        <ele>434</ele>
        <time>2016-04-17T06:11:13.000Z</time>
      </trkpt>
      <trkpt lat="43.68227" lon="5.84637">
        <ele>434</ele>
        <time>2016-04-17T06:11:15.000Z</time>
      </trkpt>
      <trkpt lat="43.68227" lon="5.84637">
        <ele>434</ele>
        <time>2016-04-17T06:11:17.000Z</time>
      </trkpt>
      <trkpt lat="43.68227" lon="5.84637">
        <ele>434</ele>
        <time>2016-04-17T06:11:19.000Z</time>
      </trkpt>
      <trkpt lat="43.68227" lon="5.84637">
        <ele>434</ele>
        <time>2016-04-17T06:11:21.000Z</time>
      </trkpt>
      <trkpt lat="43.68227" lon="5.84637">
        <ele>434</ele>
        <time>2016-04-17T06:11:23.000Z</time>
      </trkpt>
      <trkpt lat="43.68227" lon="5.84637">
        <ele>434</ele>
        <time>2016-04-17T06:11:25.000Z</time>
      </trkpt>
      <trkpt lat="43.68227" lon="5.84637">
        <ele>434</ele>
        <time>2016-04-17T06:11:27.000Z</time>
      </trkpt>
      <trkpt lat="43.68227" lon="5.84637">
        <ele>434</ele>
        <time>2016-04-17T06:11:29.000Z</time>
      </trkpt>
      <trkpt lat="43.68227" lon="5.84637">
        <ele>434</ele>
        <time>2016-04-17T06:11:31.000Z</time>
      </trkpt>
      <trkpt lat="43.68274" lon="5.84671">
        <ele>426</ele>
        <time>2016-04-17T06:11:35.000Z</time>
      </trkpt>
      <trkpt lat="43.68298" lon="5.84692">
        <ele>424</ele>
        <time>2016-04-17T06:11:37.000Z</time>
      </trkpt>
      <trkpt lat="43.68298" lon="5.84692">
        <ele>424</ele>
        <time>2016-04-17T06:11:39.000Z</time>
      </trkpt>
      <trkpt lat="43.68298" lon="5.84692">
        <ele>424</ele>
        <time>2016-04-17T06:11:41.000Z</time>
      </trkpt>
      <trkpt lat="43.68298" lon="5.84692">
        <ele>424</ele>
        <time>2016-04-17T06:11:43.000Z</time>
      </trkpt>
      <trkpt lat="43.68298" lon="5.84692">
        <ele>424</ele>
        <time>2016-04-17T06:11:45.000Z</time>
      </trkpt>
      <trkpt lat="43.68298" lon="5.84692">
        <ele>424</ele>
        <time>2016-04-17T06:11:47.000Z</time>
      </trkpt>
      <trkpt lat="43.68318" lon="5.84726">
        <ele>416</ele>
        <time>2016-04-17T06:11:53.000Z</time>
      </trkpt>
      <trkpt lat="43.68331" lon="5.84748">
        <ele>416</ele>
        <time>2016-04-17T06:11:55.000Z</time>
      </trkpt>
      <trkpt lat="43.6834" lon="5.84764">
        <ele>416</ele>
        <time>2016-04-17T06:11:57.000Z</time>
      </trkpt>
      <trkpt lat="43.68347" lon="5.84777">
        <ele>417</ele>
        <time>2016-04-17T06:11:59.000Z</time>
      </trkpt>
      <trkpt lat="43.68354" lon="5.84787">
        <ele>418</ele>
        <time>2016-04-17T06:12:01.000Z</time>
      </trkpt>
      <trkpt lat="43.68367" lon="5.84802">
        <ele>419</ele>
        <time>2016-04-17T06:12:03.000Z</time>
      </trkpt>
      <trkpt lat="43.68367" lon="5.84802">
        <ele>419</ele>
        <time>2016-04-17T06:12:05.000Z</time>
      </trkpt>
      <trkpt lat="43.68367" lon="5.84802">
        <ele>419</ele>
        <time>2016-04-17T06:12:07.000Z</time>
      </trkpt>
      <trkpt lat="43.68367" lon="5.84802">
        <ele>419</ele>
        <time>2016-04-17T06:12:09.000Z</time>
      </trkpt>
      <trkpt lat="43.68396" lon="5.84824">
        <ele>410</ele>
        <time>2016-04-17T06:12:11.000Z</time>
      </trkpt>
      <trkpt lat="43.68409" lon="5.84833">
        <ele>409</ele>
        <time>2016-04-17T06:12:13.000Z</time>
      </trkpt>
      <trkpt lat="43.68423" lon="5.84842">
        <ele>408</ele>
        <time>2016-04-17T06:12:15.000Z</time>
      </trkpt>
      <trkpt lat="43.68436" lon="5.84852">
        <ele>408</ele>
        <time>2016-04-17T06:12:17.000Z</time>
      </trkpt>
      <trkpt lat="43.68448" lon="5.84866">
        <ele>407</ele>
        <time>2016-04-17T06:12:19.000Z</time>
      </trkpt>
      <trkpt lat="43.6846" lon="5.84877">
        <ele>408</ele>
        <time>2016-04-17T06:12:21.000Z</time>
      </trkpt>
      <trkpt lat="43.68466" lon="5.84888">
        <ele>408</ele>
        <time>2016-04-17T06:12:23.000Z</time>
      </trkpt>
      <trkpt lat="43.68475" lon="5.84897">
        <ele>409</ele>
        <time>2016-04-17T06:12:25.000Z</time>
      </trkpt>
      <trkpt lat="43.68485" lon="5.84897">
        <ele>411</ele>
        <time>2016-04-17T06:12:27.000Z</time>
      </trkpt>
      <trkpt lat="43.68496" lon="5.84895">
        <ele>411</ele>
        <time>2016-04-17T06:12:29.000Z</time>
      </trkpt>
      <trkpt lat="43.68509" lon="5.84896">
        <ele>411</ele>
        <time>2016-04-17T06:12:31.000Z</time>
      </trkpt>
      <trkpt lat="43.68521" lon="5.84897">
        <ele>411</ele>
        <time>2016-04-17T06:12:33.000Z</time>
      </trkpt>
      <trkpt lat="43.68534" lon="5.84895">
        <ele>411</ele>
        <time>2016-04-17T06:12:35.000Z</time>
      </trkpt>
      <trkpt lat="43.68544" lon="5.84896">
        <ele>411</ele>
        <time>2016-04-17T06:12:37.000Z</time>
      </trkpt>
      <trkpt lat="43.68544" lon="5.84896">
        <ele>411</ele>
        <time>2016-04-17T06:12:39.000Z</time>
      </trkpt>
      <trkpt lat="43.68544" lon="5.84896">
        <ele>411</ele>
        <time>2016-04-17T06:12:41.000Z</time>
      </trkpt>
      <trkpt lat="43.68544" lon="5.84896">
        <ele>411</ele>
        <time>2016-04-17T06:12:43.000Z</time>
      </trkpt>
      <trkpt lat="43.68544" lon="5.84896">
        <ele>411</ele>
        <time>2016-04-17T06:12:45.000Z</time>
      </trkpt>
      <trkpt lat="43.68544" lon="5.84896">
        <ele>411</ele>
        <time>2016-04-17T06:12:51.000Z</time>
      </trkpt>
      <trkpt lat="43.68544" lon="5.84896">
        <ele>411</ele>
        <time>2016-04-17T06:12:53.000Z</time>
      </trkpt>
      <trkpt lat="43.68544" lon="5.84896">
        <ele>411</ele>
        <time>2016-04-17T06:12:55.000Z</time>
      </trkpt>
      <trkpt lat="43.68544" lon="5.84896">
        <ele>411</ele>
        <time>2016-04-17T06:12:57.000Z</time>
      </trkpt>
      <trkpt lat="43.68544" lon="5.84896">
        <ele>411</ele>
        <time>2016-04-17T06:12:59.000Z</time>
      </trkpt>
      <trkpt lat="43.68544" lon="5.84896">
        <ele>411</ele>
        <time>2016-04-17T06:13:01.000Z</time>
      </trkpt>
      <trkpt lat="43.68544" lon="5.84896">
        <ele>411</ele>
        <time>2016-04-17T06:13:03.000Z</time>
      </trkpt>
      <trkpt lat="43.68544" lon="5.84896">
        <ele>411</ele>
        <time>2016-04-17T06:13:05.000Z</time>
      </trkpt>
      <trkpt lat="43.68544" lon="5.84896">
        <ele>411</ele>
        <time>2016-04-17T06:13:07.000Z</time>
      </trkpt>
      <trkpt lat="43.68544" lon="5.84896">
        <ele>411</ele>
        <time>2016-04-17T06:13:09.000Z</time>
      </trkpt>
      <trkpt lat="43.68544" lon="5.84896">
        <ele>411</ele>
        <time>2016-04-17T06:13:11.000Z</time>
      </trkpt>
      <trkpt lat="43.68544" lon="5.84896">
        <ele>411</ele>
        <time>2016-04-17T06:13:13.000Z</time>
      </trkpt>
      <trkpt lat="43.68544" lon="5.84896">
        <ele>411</ele>
        <time>2016-04-17T06:13:15.000Z</time>
      </trkpt>
      <trkpt lat="43.68544" lon="5.84896">
        <ele>411</ele>
        <time>2016-04-17T06:13:17.000Z</time>
      </trkpt>
      <trkpt lat="43.68544" lon="5.84896">
        <ele>411</ele>
        <time>2016-04-17T06:13:19.000Z</time>
      </trkpt>
      <trkpt lat="43.68544" lon="5.84896">
        <ele>411</ele>
        <time>2016-04-17T06:13:21.000Z</time>
      </trkpt>
      <trkpt lat="43.68544" lon="5.84896">
        <ele>411</ele>
        <time>2016-04-17T06:13:23.000Z</time>
      </trkpt>
      <trkpt lat="43.68544" lon="5.84896">
        <ele>411</ele>
        <time>2016-04-17T06:13:25.000Z</time>
      </trkpt>
      <trkpt lat="43.68544" lon="5.84896">
        <ele>411</ele>
        <time>2016-04-17T06:13:27.000Z</time>
      </trkpt>
      <trkpt lat="43.68544" lon="5.84896">
        <ele>411</ele>
        <time>2016-04-17T06:13:29.000Z</time>
      </trkpt>
      <trkpt lat="43.68544" lon="5.84896">
        <ele>411</ele>
        <time>2016-04-17T06:13:31.000Z</time>
      </trkpt>
      <trkpt lat="43.68544" lon="5.84896">
        <ele>411</ele>
        <time>2016-04-17T06:13:33.000Z</time>
      </trkpt>
      <trkpt lat="43.68544" lon="5.84896">
        <ele>411</ele>
        <time>2016-04-17T06:13:35.000Z</time>
      </trkpt>
      <trkpt lat="43.68544" lon="5.84896">
        <ele>411</ele>
        <time>2016-04-17T06:13:37.000Z</time>
      </trkpt>
      <trkpt lat="43.68515" lon="5.84997">
        <ele>417</ele>
        <time>2016-04-17T06:13:41.000Z</time>
      </trkpt>
      <trkpt lat="43.68502" lon="5.85051">
        <ele>417</ele>
        <time>2016-04-17T06:13:43.000Z</time>
      </trkpt>
      <trkpt lat="43.68496" lon="5.85082">
        <ele>417</ele>
        <time>2016-04-17T06:13:45.000Z</time>
      </trkpt>
      <trkpt lat="43.68495" lon="5.85102">
        <ele>417</ele>
        <time>2016-04-17T06:13:47.000Z</time>
      </trkpt>
      <trkpt lat="43.68495" lon="5.85115">
        <ele>417</ele>
        <time>2016-04-17T06:13:49.000Z</time>
      </trkpt>
      <trkpt lat="43.68499" lon="5.85135">
        <ele>417</ele>
        <time>2016-04-17T06:13:51.000Z</time>
      </trkpt>
      <trkpt lat="43.68507" lon="5.85145">
        <ele>418</ele>
        <time>2016-04-17T06:13:55.000Z</time>
      </trkpt>
      <trkpt lat="43.68507" lon="5.85145">
        <ele>418</ele>
        <time>2016-04-17T06:13:57.000Z</time>
      </trkpt>
      <trkpt lat="43.68507" lon="5.85145">
        <ele>418</ele>
        <time>2016-04-17T06:13:59.000Z</time>
      </trkpt>
      <trkpt lat="43.68507" lon="5.85145">
        <ele>418</ele>
        <time>2016-04-17T06:14:01.000Z</time>
      </trkpt>
      <trkpt lat="43.68507" lon="5.85145">
        <ele>418</ele>
        <time>2016-04-17T06:14:03.000Z</time>
      </trkpt>
      <trkpt lat="43.68507" lon="5.85145">
        <ele>418</ele>
        <time>2016-04-17T06:14:05.000Z</time>
      </trkpt>
      <trkpt lat="43.68507" lon="5.85145">
        <ele>418</ele>
        <time>2016-04-17T06:14:07.000Z</time>
      </trkpt>
      <trkpt lat="43.68507" lon="5.85145">
        <ele>418</ele>
        <time>2016-04-17T06:14:09.000Z</time>
      </trkpt>
      <trkpt lat="43.68507" lon="5.85145">
        <ele>418</ele>
        <time>2016-04-17T06:14:11.000Z</time>
      </trkpt>
      <trkpt lat="43.68507" lon="5.85145">
        <ele>418</ele>
        <time>2016-04-17T06:14:13.000Z</time>
      </trkpt>
      <trkpt lat="43.68507" lon="5.85145">
        <ele>418</ele>
        <time>2016-04-17T06:14:15.000Z</time>
      </trkpt>
      <trkpt lat="43.68545" lon="5.85165">
        <ele>422</ele>
        <time>2016-04-17T06:14:17.000Z</time>
      </trkpt>
      <trkpt lat="43.68553" lon="5.85162">
        <ele>423</ele>
        <time>2016-04-17T06:14:21.000Z</time>
      </trkpt>
      <trkpt lat="43.68553" lon="5.85162">
        <ele>423</ele>
        <time>2016-04-17T06:14:25.000Z</time>
      </trkpt>
      <trkpt lat="43.68565" lon="5.85157">
        <ele>422</ele>
        <time>2016-04-17T06:14:27.000Z</time>
      </trkpt>
      <trkpt lat="43.68565" lon="5.85157">
        <ele>422</ele>
        <time>2016-04-17T06:14:29.000Z</time>
      </trkpt>
      <trkpt lat="43.68565" lon="5.85157">
        <ele>422</ele>
        <time>2016-04-17T06:14:31.000Z</time>
      </trkpt>
      <trkpt lat="43.68565" lon="5.85157">
        <ele>422</ele>
        <time>2016-04-17T06:14:33.000Z</time>
      </trkpt>
      <trkpt lat="43.68565" lon="5.85157">
        <ele>422</ele>
        <time>2016-04-17T06:14:35.000Z</time>
      </trkpt>
      <trkpt lat="43.68565" lon="5.85157">
        <ele>422</ele>
        <time>2016-04-17T06:14:37.000Z</time>
      </trkpt>
      <trkpt lat="43.68565" lon="5.85157">
        <ele>422</ele>
        <time>2016-04-17T06:14:39.000Z</time>
      </trkpt>
      <trkpt lat="43.68565" lon="5.85157">
        <ele>422</ele>
        <time>2016-04-17T06:14:41.000Z</time>
      </trkpt>
      <trkpt lat="43.68565" lon="5.85157">
        <ele>422</ele>
        <time>2016-04-17T06:14:43.000Z</time>
      </trkpt>
      <trkpt lat="43.68565" lon="5.85157">
        <ele>422</ele>
        <time>2016-04-17T06:14:45.000Z</time>
      </trkpt>
      <trkpt lat="43.68565" lon="5.85157">
        <ele>422</ele>
        <time>2016-04-17T06:14:47.000Z</time>
      </trkpt>
      <trkpt lat="43.68565" lon="5.85157">
        <ele>422</ele>
        <time>2016-04-17T06:14:49.000Z</time>
      </trkpt>
      <trkpt lat="43.68565" lon="5.85157">
        <ele>422</ele>
        <time>2016-04-17T06:14:51.000Z</time>
      </trkpt>
      <trkpt lat="43.68598" lon="5.85196">
        <ele>428</ele>
        <time>2016-04-17T06:14:53.000Z</time>
      </trkpt>
      <trkpt lat="43.68607" lon="5.85204">
        <ele>428</ele>
        <time>2016-04-17T06:14:57.000Z</time>
      </trkpt>
      <trkpt lat="43.68619" lon="5.85211">
        <ele>431</ele>
        <time>2016-04-17T06:15:03.000Z</time>
      </trkpt>
      <trkpt lat="43.68619" lon="5.85211">
        <ele>431</ele>
        <time>2016-04-17T06:15:05.000Z</time>
      </trkpt>
      <trkpt lat="43.68619" lon="5.85211">
        <ele>431</ele>
        <time>2016-04-17T06:15:07.000Z</time>
      </trkpt>
      <trkpt lat="43.68619" lon="5.85211">
        <ele>431</ele>
        <time>2016-04-17T06:15:09.000Z</time>
      </trkpt>
      <trkpt lat="43.68619" lon="5.85211">
        <ele>431</ele>
        <time>2016-04-17T06:15:11.000Z</time>
      </trkpt>
      <trkpt lat="43.68619" lon="5.85211">
        <ele>431</ele>
        <time>2016-04-17T06:15:13.000Z</time>
      </trkpt>
      <trkpt lat="43.68619" lon="5.85211">
        <ele>431</ele>
        <time>2016-04-17T06:15:15.000Z</time>
      </trkpt>
      <trkpt lat="43.68619" lon="5.85211">
        <ele>431</ele>
        <time>2016-04-17T06:15:17.000Z</time>
      </trkpt>
      <trkpt lat="43.68619" lon="5.85211">
        <ele>431</ele>
        <time>2016-04-17T06:15:19.000Z</time>
      </trkpt>
      <trkpt lat="43.68619" lon="5.85211">
        <ele>431</ele>
        <time>2016-04-17T06:15:21.000Z</time>
      </trkpt>
      <trkpt lat="43.68639" lon="5.85218">
        <ele>428</ele>
        <time>2016-04-17T06:15:23.000Z</time>
      </trkpt>
      <trkpt lat="43.68651" lon="5.8522">
        <ele>427</ele>
        <time>2016-04-17T06:15:25.000Z</time>
      </trkpt>
      <trkpt lat="43.68659" lon="5.8522">
        <ele>426</ele>
        <time>2016-04-17T06:15:27.000Z</time>
      </trkpt>
      <trkpt lat="43.68666" lon="5.85219">
        <ele>426</ele>
        <time>2016-04-17T06:15:29.000Z</time>
      </trkpt>
      <trkpt lat="43.68673" lon="5.85217">
        <ele>425</ele>
        <time>2016-04-17T06:15:31.000Z</time>
      </trkpt>
      <trkpt lat="43.68692" lon="5.85217">
        <ele>425</ele>
        <time>2016-04-17T06:15:33.000Z</time>
      </trkpt>
      <trkpt lat="43.68702" lon="5.85225">
        <ele>424</ele>
        <time>2016-04-17T06:15:35.000Z</time>
      </trkpt>
      <trkpt lat="43.68711" lon="5.85233">
        <ele>423</ele>
        <time>2016-04-17T06:15:37.000Z</time>
      </trkpt>
      <trkpt lat="43.68724" lon="5.85246">
        <ele>423</ele>
        <time>2016-04-17T06:15:41.000Z</time>
      </trkpt>
      <trkpt lat="43.68724" lon="5.85246">
        <ele>423</ele>
        <time>2016-04-17T06:15:43.000Z</time>
      </trkpt>
      <trkpt lat="43.68724" lon="5.85246">
        <ele>423</ele>
        <time>2016-04-17T06:15:45.000Z</time>
      </trkpt>
      <trkpt lat="43.68724" lon="5.85246">
        <ele>423</ele>
        <time>2016-04-17T06:15:47.000Z</time>
      </trkpt>
      <trkpt lat="43.68724" lon="5.85246">
        <ele>423</ele>
        <time>2016-04-17T06:15:49.000Z</time>
      </trkpt>
      <trkpt lat="43.68724" lon="5.85246">
        <ele>423</ele>
        <time>2016-04-17T06:15:51.000Z</time>
      </trkpt>
      <trkpt lat="43.68724" lon="5.85246">
        <ele>423</ele>
        <time>2016-04-17T06:15:53.000Z</time>
      </trkpt>
      <trkpt lat="43.68724" lon="5.85246">
        <ele>423</ele>
        <time>2016-04-17T06:15:55.000Z</time>
      </trkpt>
      <trkpt lat="43.68724" lon="5.85246">
        <ele>423</ele>
        <time>2016-04-17T06:15:57.000Z</time>
      </trkpt>
      <trkpt lat="43.68724" lon="5.85246">
        <ele>423</ele>
        <time>2016-04-17T06:15:59.000Z</time>
      </trkpt>
      <trkpt lat="43.6876" lon="5.85278">
        <ele>428</ele>
        <time>2016-04-17T06:16:03.000Z</time>
      </trkpt>
      <trkpt lat="43.68771" lon="5.85287">
        <ele>428</ele>
        <time>2016-04-17T06:16:09.000Z</time>
      </trkpt>
      <trkpt lat="43.68783" lon="5.85291">
        <ele>427</ele>
        <time>2016-04-17T06:16:15.000Z</time>
      </trkpt>
      <trkpt lat="43.68794" lon="5.85293">
        <ele>431</ele>
        <time>2016-04-17T06:16:21.000Z</time>
      </trkpt>
      <trkpt lat="43.68794" lon="5.85293">
        <ele>431</ele>
        <time>2016-04-17T06:16:25.000Z</time>
      </trkpt>
      <trkpt lat="43.68794" lon="5.85293">
        <ele>431</ele>
        <time>2016-04-17T06:16:27.000Z</time>
      </trkpt>
      <trkpt lat="43.68794" lon="5.85293">
        <ele>431</ele>
        <time>2016-04-17T06:16:29.000Z</time>
      </trkpt>
      <trkpt lat="43.68814" lon="5.85307">
        <ele>433</ele>
        <time>2016-04-17T06:16:33.000Z</time>
      </trkpt>
      <trkpt lat="43.68826" lon="5.85311">
        <ele>432</ele>
        <time>2016-04-17T06:16:39.000Z</time>
      </trkpt>
      <trkpt lat="43.68826" lon="5.85311">
        <ele>432</ele>
        <time>2016-04-17T06:16:41.000Z</time>
      </trkpt>
      <trkpt lat="43.68826" lon="5.85311">
        <ele>432</ele>
        <time>2016-04-17T06:16:43.000Z</time>
      </trkpt>
      <trkpt lat="43.68837" lon="5.85314">
        <ele>432</ele>
        <time>2016-04-17T06:16:45.000Z</time>
      </trkpt>
      <trkpt lat="43.6885" lon="5.85318">
        <ele>433</ele>
        <time>2016-04-17T06:16:51.000Z</time>
      </trkpt>
      <trkpt lat="43.68855" lon="5.85319">
        <ele>433</ele>
        <time>2016-04-17T06:16:57.000Z</time>
      </trkpt>
      <trkpt lat="43.68855" lon="5.85319">
        <ele>433</ele>
        <time>2016-04-17T06:16:59.000Z</time>
      </trkpt>
      <trkpt lat="43.68855" lon="5.85319">
        <ele>433</ele>
        <time>2016-04-17T06:17:01.000Z</time>
      </trkpt>
      <trkpt lat="43.68855" lon="5.85319">
        <ele>433</ele>
        <time>2016-04-17T06:17:03.000Z</time>
      </trkpt>
      <trkpt lat="43.68855" lon="5.85319">
        <ele>433</ele>
        <time>2016-04-17T06:17:05.000Z</time>
      </trkpt>
      <trkpt lat="43.68855" lon="5.85319">
        <ele>433</ele>
        <time>2016-04-17T06:17:07.000Z</time>
      </trkpt>
      <trkpt lat="43.68855" lon="5.85319">
        <ele>433</ele>
        <time>2016-04-17T06:17:09.000Z</time>
      </trkpt>
      <trkpt lat="43.68855" lon="5.85319">
        <ele>433</ele>
        <time>2016-04-17T06:17:11.000Z</time>
      </trkpt>
      <trkpt lat="43.68855" lon="5.85319">
        <ele>433</ele>
        <time>2016-04-17T06:17:13.000Z</time>
      </trkpt>
      <trkpt lat="43.68855" lon="5.85319">
        <ele>433</ele>
        <time>2016-04-17T06:17:15.000Z</time>
      </trkpt>
      <trkpt lat="43.68855" lon="5.85319">
        <ele>433</ele>
        <time>2016-04-17T06:17:17.000Z</time>
      </trkpt>
      <trkpt lat="43.68855" lon="5.85319">
        <ele>433</ele>
        <time>2016-04-17T06:17:19.000Z</time>
      </trkpt>
      <trkpt lat="43.68855" lon="5.85319">
        <ele>433</ele>
        <time>2016-04-17T06:17:21.000Z</time>
      </trkpt>
      <trkpt lat="43.68855" lon="5.85319">
        <ele>433</ele>
        <time>2016-04-17T06:17:23.000Z</time>
      </trkpt>
      <trkpt lat="43.68855" lon="5.85319">
        <ele>433</ele>
        <time>2016-04-17T06:17:25.000Z</time>
      </trkpt>
      <trkpt lat="43.68855" lon="5.85319">
        <ele>433</ele>
        <time>2016-04-17T06:17:27.000Z</time>
      </trkpt>
      <trkpt lat="43.68855" lon="5.85319">
        <ele>433</ele>
        <time>2016-04-17T06:17:29.000Z</time>
      </trkpt>
      <trkpt lat="43.68855" lon="5.85319">
        <ele>433</ele>
        <time>2016-04-17T06:17:31.000Z</time>
      </trkpt>
      <trkpt lat="43.68855" lon="5.85319">
        <ele>433</ele>
        <time>2016-04-17T06:17:33.000Z</time>
      </trkpt>
      <trkpt lat="43.68855" lon="5.85319">
        <ele>433</ele>
        <time>2016-04-17T06:17:35.000Z</time>
      </trkpt>
      <trkpt lat="43.68855" lon="5.85319">
        <ele>433</ele>
        <time>2016-04-17T06:17:37.000Z</time>
      </trkpt>
      <trkpt lat="43.68855" lon="5.85319">
        <ele>433</ele>
        <time>2016-04-17T06:17:39.000Z</time>
      </trkpt>
      <trkpt lat="43.68897" lon="5.85332">
        <ele>436</ele>
        <time>2016-04-17T06:17:43.000Z</time>
      </trkpt>
      <trkpt lat="43.68919" lon="5.85339">
        <ele>436</ele>
        <time>2016-04-17T06:17:45.000Z</time>
      </trkpt>
      <trkpt lat="43.68932" lon="5.85343">
        <ele>437</ele>
        <time>2016-04-17T06:17:47.000Z</time>
      </trkpt>
      <trkpt lat="43.6894" lon="5.85345">
        <ele>437</ele>
        <time>2016-04-17T06:17:49.000Z</time>
      </trkpt>
      <trkpt lat="43.6894" lon="5.85345">
        <ele>437</ele>
        <time>2016-04-17T06:17:51.000Z</time>
      </trkpt>
      <trkpt lat="43.68948" lon="5.85348">
        <ele>437</ele>
        <time>2016-04-17T06:17:53.000Z</time>
      </trkpt>
      <trkpt lat="43.68954" lon="5.85351">
        <ele>437</ele>
        <time>2016-04-17T06:17:55.000Z</time>
      </trkpt>
      <trkpt lat="43.68959" lon="5.85352">
        <ele>439</ele>
        <time>2016-04-17T06:17:57.000Z</time>
      </trkpt>
      <trkpt lat="43.68964" lon="5.85353">
        <ele>439</ele>
        <time>2016-04-17T06:17:59.000Z</time>
      </trkpt>
      <trkpt lat="43.68964" lon="5.85353">
        <ele>439</ele>
        <time>2016-04-17T06:18:01.000Z</time>
      </trkpt>
      <trkpt lat="43.68964" lon="5.85353">
        <ele>439</ele>
        <time>2016-04-17T06:18:03.000Z</time>
      </trkpt>
      <trkpt lat="43.68964" lon="5.85353">
        <ele>439</ele>
        <time>2016-04-17T06:18:05.000Z</time>
      </trkpt>
      <trkpt lat="43.68964" lon="5.85353">
        <ele>439</ele>
        <time>2016-04-17T06:18:07.000Z</time>
      </trkpt>
      <trkpt lat="43.68964" lon="5.85353">
        <ele>439</ele>
        <time>2016-04-17T06:18:09.000Z</time>
      </trkpt>
      <trkpt lat="43.68964" lon="5.85353">
        <ele>439</ele>
        <time>2016-04-17T06:18:11.000Z</time>
      </trkpt>
      <trkpt lat="43.68964" lon="5.85353">
        <ele>439</ele>
        <time>2016-04-17T06:18:13.000Z</time>
      </trkpt>
      <trkpt lat="43.68964" lon="5.85353">
        <ele>439</ele>
        <time>2016-04-17T06:18:15.000Z</time>
      </trkpt>
      <trkpt lat="43.68964" lon="5.85353">
        <ele>439</ele>
        <time>2016-04-17T06:18:17.000Z</time>
      </trkpt>
      <trkpt lat="43.68964" lon="5.85353">
        <ele>439</ele>
        <time>2016-04-17T06:18:19.000Z</time>
      </trkpt>
      <trkpt lat="43.68964" lon="5.85353">
        <ele>439</ele>
        <time>2016-04-17T06:18:21.000Z</time>
      </trkpt>
      <trkpt lat="43.68964" lon="5.85353">
        <ele>439</ele>
        <time>2016-04-17T06:18:23.000Z</time>
      </trkpt>
      <trkpt lat="43.68964" lon="5.85353">
        <ele>439</ele>
        <time>2016-04-17T06:18:25.000Z</time>
      </trkpt>
      <trkpt lat="43.68964" lon="5.85353">
        <ele>439</ele>
        <time>2016-04-17T06:18:27.000Z</time>
      </trkpt>
      <trkpt lat="43.68988" lon="5.85367">
        <ele>441</ele>
        <time>2016-04-17T06:18:29.000Z</time>
      </trkpt>
      <trkpt lat="43.69002" lon="5.85374">
        <ele>440</ele>
        <time>2016-04-17T06:18:31.000Z</time>
      </trkpt>
      <trkpt lat="43.69012" lon="5.85376">
        <ele>439</ele>
        <time>2016-04-17T06:18:33.000Z</time>
      </trkpt>
      <trkpt lat="43.6902" lon="5.85376">
        <ele>441</ele>
        <time>2016-04-17T06:18:35.000Z</time>
      </trkpt>
      <trkpt lat="43.69025" lon="5.85374">
        <ele>441</ele>
        <time>2016-04-17T06:18:37.000Z</time>
      </trkpt>
      <trkpt lat="43.69036" lon="5.85368">
        <ele>440</ele>
        <time>2016-04-17T06:18:39.000Z</time>
      </trkpt>
      <trkpt lat="43.69043" lon="5.85362">
        <ele>440</ele>
        <time>2016-04-17T06:18:43.000Z</time>
      </trkpt>
      <trkpt lat="43.69043" lon="5.85362">
        <ele>440</ele>
        <time>2016-04-17T06:18:45.000Z</time>
      </trkpt>
      <trkpt lat="43.69043" lon="5.85362">
        <ele>440</ele>
        <time>2016-04-17T06:18:47.000Z</time>
      </trkpt>
      <trkpt lat="43.69043" lon="5.85362">
        <ele>440</ele>
        <time>2016-04-17T06:18:49.000Z</time>
      </trkpt>
      <trkpt lat="43.69043" lon="5.85362">
        <ele>440</ele>
        <time>2016-04-17T06:18:51.000Z</time>
      </trkpt>
      <trkpt lat="43.69043" lon="5.85362">
        <ele>440</ele>
        <time>2016-04-17T06:18:53.000Z</time>
      </trkpt>
      <trkpt lat="43.69062" lon="5.85334">
        <ele>440</ele>
        <time>2016-04-17T06:18:57.000Z</time>
      </trkpt>
      <trkpt lat="43.69062" lon="5.85334">
        <ele>440</ele>
        <time>2016-04-17T06:19:03.000Z</time>
      </trkpt>
      <trkpt lat="43.69062" lon="5.85334">
        <ele>440</ele>
        <time>2016-04-17T06:19:05.000Z</time>
      </trkpt>
      <trkpt lat="43.69062" lon="5.85334">
        <ele>440</ele>
        <time>2016-04-17T06:19:07.000Z</time>
      </trkpt>
      <trkpt lat="43.69062" lon="5.85334">
        <ele>440</ele>
        <time>2016-04-17T06:19:09.000Z</time>
      </trkpt>
      <trkpt lat="43.69062" lon="5.85334">
        <ele>440</ele>
        <time>2016-04-17T06:19:11.000Z</time>
      </trkpt>
      <trkpt lat="43.69062" lon="5.85334">
        <ele>440</ele>
        <time>2016-04-17T06:19:13.000Z</time>
      </trkpt>
      <trkpt lat="43.69062" lon="5.85334">
        <ele>440</ele>
        <time>2016-04-17T06:19:15.000Z</time>
      </trkpt>
      <trkpt lat="43.69062" lon="5.85334">
        <ele>440</ele>
        <time>2016-04-17T06:19:17.000Z</time>
      </trkpt>
      <trkpt lat="43.69062" lon="5.85334">
        <ele>440</ele>
        <time>2016-04-17T06:19:19.000Z</time>
      </trkpt>
      <trkpt lat="43.69062" lon="5.85334">
        <ele>440</ele>
        <time>2016-04-17T06:19:21.000Z</time>
      </trkpt>
      <trkpt lat="43.69062" lon="5.85334">
        <ele>440</ele>
        <time>2016-04-17T06:19:23.000Z</time>
      </trkpt>
      <trkpt lat="43.69062" lon="5.85334">
        <ele>440</ele>
        <time>2016-04-17T06:19:25.000Z</time>
      </trkpt>
      <trkpt lat="43.69062" lon="5.85334">
        <ele>440</ele>
        <time>2016-04-17T06:19:27.000Z</time>
      </trkpt>
      <trkpt lat="43.69062" lon="5.85334">
        <ele>440</ele>
        <time>2016-04-17T06:19:29.000Z</time>
      </trkpt>
      <trkpt lat="43.69062" lon="5.85334">
        <ele>440</ele>
        <time>2016-04-17T06:19:31.000Z</time>
      </trkpt>
      <trkpt lat="43.69062" lon="5.85334">
        <ele>440</ele>
        <time>2016-04-17T06:19:33.000Z</time>
      </trkpt>
      <trkpt lat="43.69101" lon="5.85292">
        <ele>445</ele>
        <time>2016-04-17T06:19:35.000Z</time>
      </trkpt>
      <trkpt lat="43.69111" lon="5.85289">
        <ele>442</ele>
        <time>2016-04-17T06:19:41.000Z</time>
      </trkpt>
      <trkpt lat="43.69111" lon="5.85289">
        <ele>442</ele>
        <time>2016-04-17T06:19:43.000Z</time>
      </trkpt>
      <trkpt lat="43.69111" lon="5.85289">
        <ele>442</ele>
        <time>2016-04-17T06:19:45.000Z</time>
      </trkpt>
      <trkpt lat="43.69111" lon="5.85289">
        <ele>442</ele>
        <time>2016-04-17T06:19:47.000Z</time>
      </trkpt>
      <trkpt lat="43.69111" lon="5.85289">
        <ele>442</ele>
        <time>2016-04-17T06:19:49.000Z</time>
      </trkpt>
      <trkpt lat="43.69111" lon="5.85289">
        <ele>442</ele>
        <time>2016-04-17T06:19:51.000Z</time>
      </trkpt>
      <trkpt lat="43.69111" lon="5.85289">
        <ele>442</ele>
        <time>2016-04-17T06:19:53.000Z</time>
      </trkpt>
      <trkpt lat="43.69111" lon="5.85289">
        <ele>442</ele>
        <time>2016-04-17T06:19:55.000Z</time>
      </trkpt>
      <trkpt lat="43.69111" lon="5.85289">
        <ele>442</ele>
        <time>2016-04-17T06:19:57.000Z</time>
      </trkpt>
      <trkpt lat="43.69111" lon="5.85289">
        <ele>442</ele>
        <time>2016-04-17T06:19:59.000Z</time>
      </trkpt>
      <trkpt lat="43.69125" lon="5.85279">
        <ele>446</ele>
        <time>2016-04-17T06:20:01.000Z</time>
      </trkpt>
      <trkpt lat="43.69133" lon="5.85275">
        <ele>446</ele>
        <time>2016-04-17T06:20:03.000Z</time>
      </trkpt>
      <trkpt lat="43.69139" lon="5.85272">
        <ele>446</ele>
        <time>2016-04-17T06:20:05.000Z</time>
      </trkpt>
      <trkpt lat="43.69144" lon="5.85269">
        <ele>446</ele>
        <time>2016-04-17T06:20:07.000Z</time>
      </trkpt>
      <trkpt lat="43.69144" lon="5.85269">
        <ele>446</ele>
        <time>2016-04-17T06:20:09.000Z</time>
      </trkpt>
      <trkpt lat="43.69144" lon="5.85269">
        <ele>446</ele>
        <time>2016-04-17T06:20:11.000Z</time>
      </trkpt>
      <trkpt lat="43.69144" lon="5.85269">
        <ele>446</ele>
        <time>2016-04-17T06:20:13.000Z</time>
      </trkpt>
      <trkpt lat="43.69144" lon="5.85269">
        <ele>446</ele>
        <time>2016-04-17T06:20:15.000Z</time>
      </trkpt>
      <trkpt lat="43.69144" lon="5.85269">
        <ele>446</ele>
        <time>2016-04-17T06:20:17.000Z</time>
      </trkpt>
      <trkpt lat="43.69144" lon="5.85269">
        <ele>446</ele>
        <time>2016-04-17T06:20:19.000Z</time>
      </trkpt>
      <trkpt lat="43.69144" lon="5.85269">
        <ele>446</ele>
        <time>2016-04-17T06:20:21.000Z</time>
      </trkpt>
      <trkpt lat="43.69144" lon="5.85269">
        <ele>446</ele>
        <time>2016-04-17T06:20:23.000Z</time>
      </trkpt>
      <trkpt lat="43.69144" lon="5.85269">
        <ele>446</ele>
        <time>2016-04-17T06:20:25.000Z</time>
      </trkpt>
      <trkpt lat="43.69144" lon="5.85269">
        <ele>446</ele>
        <time>2016-04-17T06:20:27.000Z</time>
      </trkpt>
      <trkpt lat="43.69144" lon="5.85269">
        <ele>446</ele>
        <time>2016-04-17T06:20:29.000Z</time>
      </trkpt>
      <trkpt lat="43.69144" lon="5.85269">
        <ele>446</ele>
        <time>2016-04-17T06:20:31.000Z</time>
      </trkpt>
      <trkpt lat="43.69144" lon="5.85269">
        <ele>446</ele>
        <time>2016-04-17T06:20:33.000Z</time>
      </trkpt>
      <trkpt lat="43.69144" lon="5.85269">
        <ele>446</ele>
        <time>2016-04-17T06:20:35.000Z</time>
      </trkpt>
      <trkpt lat="43.69144" lon="5.85269">
        <ele>446</ele>
        <time>2016-04-17T06:20:37.000Z</time>
      </trkpt>
      <trkpt lat="43.69144" lon="5.85269">
        <ele>446</ele>
        <time>2016-04-17T06:20:39.000Z</time>
      </trkpt>
      <trkpt lat="43.69162" lon="5.85239">
        <ele>455</ele>
        <time>2016-04-17T06:20:43.000Z</time>
      </trkpt>
      <trkpt lat="43.69172" lon="5.85222">
        <ele>456</ele>
        <time>2016-04-17T06:20:45.000Z</time>
      </trkpt>
      <trkpt lat="43.69178" lon="5.85212">
        <ele>456</ele>
        <time>2016-04-17T06:20:47.000Z</time>
      </trkpt>
      <trkpt lat="43.69183" lon="5.85205">
        <ele>458</ele>
        <time>2016-04-17T06:20:49.000Z</time>
      </trkpt>
      <trkpt lat="43.69185" lon="5.85201">
        <ele>458</ele>
        <time>2016-04-17T06:20:51.000Z</time>
      </trkpt>
      <trkpt lat="43.69185" lon="5.85201">
        <ele>458</ele>
        <time>2016-04-17T06:20:53.000Z</time>
      </trkpt>
      <trkpt lat="43.69185" lon="5.85201">
        <ele>458</ele>
        <time>2016-04-17T06:20:55.000Z</time>
      </trkpt>
      <trkpt lat="43.69185" lon="5.85201">
        <ele>458</ele>
        <time>2016-04-17T06:20:57.000Z</time>
      </trkpt>
      <trkpt lat="43.69185" lon="5.85201">
        <ele>458</ele>
        <time>2016-04-17T06:20:59.000Z</time>
      </trkpt>
      <trkpt lat="43.69185" lon="5.85201">
        <ele>458</ele>
        <time>2016-04-17T06:21:01.000Z</time>
      </trkpt>
      <trkpt lat="43.69185" lon="5.85201">
        <ele>458</ele>
        <time>2016-04-17T06:21:03.000Z</time>
      </trkpt>
      <trkpt lat="43.69185" lon="5.85201">
        <ele>458</ele>
        <time>2016-04-17T06:21:05.000Z</time>
      </trkpt>
      <trkpt lat="43.69185" lon="5.85201">
        <ele>458</ele>
        <time>2016-04-17T06:21:07.000Z</time>
      </trkpt>
      <trkpt lat="43.69185" lon="5.85201">
        <ele>458</ele>
        <time>2016-04-17T06:21:09.000Z</time>
      </trkpt>
      <trkpt lat="43.69185" lon="5.85201">
        <ele>458</ele>
        <time>2016-04-17T06:21:11.000Z</time>
      </trkpt>
      <trkpt lat="43.69185" lon="5.85201">
        <ele>458</ele>
        <time>2016-04-17T06:21:13.000Z</time>
      </trkpt>
      <trkpt lat="43.69185" lon="5.85201">
        <ele>458</ele>
        <time>2016-04-17T06:21:15.000Z</time>
      </trkpt>
      <trkpt lat="43.69185" lon="5.85201">
        <ele>458</ele>
        <time>2016-04-17T06:21:17.000Z</time>
      </trkpt>
      <trkpt lat="43.69185" lon="5.85201">
        <ele>458</ele>
        <time>2016-04-17T06:21:19.000Z</time>
      </trkpt>
      <trkpt lat="43.69185" lon="5.85201">
        <ele>458</ele>
        <time>2016-04-17T06:21:21.000Z</time>
      </trkpt>
      <trkpt lat="43.69185" lon="5.85201">
        <ele>458</ele>
        <time>2016-04-17T06:21:23.000Z</time>
      </trkpt>
      <trkpt lat="43.69185" lon="5.85201">
        <ele>458</ele>
        <time>2016-04-17T06:21:25.000Z</time>
      </trkpt>
      <trkpt lat="43.69185" lon="5.85201">
        <ele>458</ele>
        <time>2016-04-17T06:21:27.000Z</time>
      </trkpt>
      <trkpt lat="43.69185" lon="5.85201">
        <ele>458</ele>
        <time>2016-04-17T06:21:29.000Z</time>
      </trkpt>
      <trkpt lat="43.69185" lon="5.85201">
        <ele>458</ele>
        <time>2016-04-17T06:21:31.000Z</time>
      </trkpt>
      <trkpt lat="43.69185" lon="5.85201">
        <ele>458</ele>
        <time>2016-04-17T06:21:33.000Z</time>
      </trkpt>
      <trkpt lat="43.69185" lon="5.85201">
        <ele>458</ele>
        <time>2016-04-17T06:21:35.000Z</time>
      </trkpt>
      <trkpt lat="43.69185" lon="5.85201">
        <ele>458</ele>
        <time>2016-04-17T06:21:37.000Z</time>
      </trkpt>
      <trkpt lat="43.69185" lon="5.85201">
        <ele>458</ele>
        <time>2016-04-17T06:21:39.000Z</time>
      </trkpt>
      <trkpt lat="43.69218" lon="5.85127">
        <ele>462</ele>
        <time>2016-04-17T06:21:43.000Z</time>
      </trkpt>
      <trkpt lat="43.69225" lon="5.85116">
        <ele>469</ele>
        <time>2016-04-17T06:21:51.000Z</time>
      </trkpt>
      <trkpt lat="43.69225" lon="5.85116">
        <ele>469</ele>
        <time>2016-04-17T06:21:53.000Z</time>
      </trkpt>
      <trkpt lat="43.69225" lon="5.85116">
        <ele>469</ele>
        <time>2016-04-17T06:21:55.000Z</time>
      </trkpt>
      <trkpt lat="43.69225" lon="5.85116">
        <ele>469</ele>
        <time>2016-04-17T06:21:57.000Z</time>
      </trkpt>
      <trkpt lat="43.69225" lon="5.85116">
        <ele>469</ele>
        <time>2016-04-17T06:21:59.000Z</time>
      </trkpt>
      <trkpt lat="43.69231" lon="5.85112">
        <ele>470</ele>
        <time>2016-04-17T06:22:05.000Z</time>
      </trkpt>
      <trkpt lat="43.69236" lon="5.85109">
        <ele>471</ele>
        <time>2016-04-17T06:22:07.000Z</time>
      </trkpt>
      <trkpt lat="43.69236" lon="5.85109">
        <ele>471</ele>
        <time>2016-04-17T06:22:09.000Z</time>
      </trkpt>
      <trkpt lat="43.69241" lon="5.85108">
        <ele>470</ele>
        <time>2016-04-17T06:22:11.000Z</time>
      </trkpt>
      <trkpt lat="43.69241" lon="5.85108">
        <ele>470</ele>
        <time>2016-04-17T06:22:13.000Z</time>
      </trkpt>
      <trkpt lat="43.69249" lon="5.85107">
        <ele>469</ele>
        <time>2016-04-17T06:22:19.000Z</time>
      </trkpt>
      <trkpt lat="43.69254" lon="5.85106">
        <ele>469</ele>
        <time>2016-04-17T06:22:21.000Z</time>
      </trkpt>
      <trkpt lat="43.6926" lon="5.85104">
        <ele>468</ele>
        <time>2016-04-17T06:22:25.000Z</time>
      </trkpt>
      <trkpt lat="43.69265" lon="5.85104">
        <ele>469</ele>
        <time>2016-04-17T06:22:29.000Z</time>
      </trkpt>
      <trkpt lat="43.69271" lon="5.85105">
        <ele>470</ele>
        <time>2016-04-17T06:22:33.000Z</time>
      </trkpt>
      <trkpt lat="43.69276" lon="5.85105">
        <ele>470</ele>
        <time>2016-04-17T06:22:37.000Z</time>
      </trkpt>
      <trkpt lat="43.69276" lon="5.85105">
        <ele>470</ele>
        <time>2016-04-17T06:22:39.000Z</time>
      </trkpt>
      <trkpt lat="43.69276" lon="5.85105">
        <ele>470</ele>
        <time>2016-04-17T06:22:41.000Z</time>
      </trkpt>
      <trkpt lat="43.69276" lon="5.85105">
        <ele>470</ele>
        <time>2016-04-17T06:22:43.000Z</time>
      </trkpt>
      <trkpt lat="43.69276" lon="5.85105">
        <ele>470</ele>
        <time>2016-04-17T06:22:45.000Z</time>
      </trkpt>
      <trkpt lat="43.69276" lon="5.85105">
        <ele>470</ele>
        <time>2016-04-17T06:22:47.000Z</time>
      </trkpt>
      <trkpt lat="43.69276" lon="5.85105">
        <ele>470</ele>
        <time>2016-04-17T06:22:49.000Z</time>
      </trkpt>
      <trkpt lat="43.69276" lon="5.85105">
        <ele>470</ele>
        <time>2016-04-17T06:22:51.000Z</time>
      </trkpt>
      <trkpt lat="43.69276" lon="5.85105">
        <ele>470</ele>
        <time>2016-04-17T06:22:53.000Z</time>
      </trkpt>
      <trkpt lat="43.69276" lon="5.85105">
        <ele>470</ele>
        <time>2016-04-17T06:22:55.000Z</time>
      </trkpt>
      <trkpt lat="43.69276" lon="5.85105">
        <ele>470</ele>
        <time>2016-04-17T06:22:57.000Z</time>
      </trkpt>
      <trkpt lat="43.69276" lon="5.85105">
        <ele>470</ele>
        <time>2016-04-17T06:22:59.000Z</time>
      </trkpt>
      <trkpt lat="43.69276" lon="5.85105">
        <ele>470</ele>
        <time>2016-04-17T06:23:01.000Z</time>
      </trkpt>
      <trkpt lat="43.69276" lon="5.85105">
        <ele>470</ele>
        <time>2016-04-17T06:23:03.000Z</time>
      </trkpt>
      <trkpt lat="43.69276" lon="5.85105">
        <ele>470</ele>
        <time>2016-04-17T06:23:05.000Z</time>
      </trkpt>
      <trkpt lat="43.69276" lon="5.85105">
        <ele>470</ele>
        <time>2016-04-17T06:23:07.000Z</time>
      </trkpt>
      <trkpt lat="43.69276" lon="5.85105">
        <ele>470</ele>
        <time>2016-04-17T06:23:09.000Z</time>
      </trkpt>
      <trkpt lat="43.69276" lon="5.85105">
        <ele>470</ele>
        <time>2016-04-17T06:23:11.000Z</time>
      </trkpt>
      <trkpt lat="43.69276" lon="5.85105">
        <ele>470</ele>
        <time>2016-04-17T06:23:13.000Z</time>
      </trkpt>
      <trkpt lat="43.69276" lon="5.85105">
        <ele>470</ele>
        <time>2016-04-17T06:23:15.000Z</time>
      </trkpt>
      <trkpt lat="43.69276" lon="5.85105">
        <ele>470</ele>
        <time>2016-04-17T06:23:17.000Z</time>
      </trkpt>
      <trkpt lat="43.69276" lon="5.85105">
        <ele>470</ele>
        <time>2016-04-17T06:23:19.000Z</time>
      </trkpt>
      <trkpt lat="43.69276" lon="5.85105">
        <ele>470</ele>
        <time>2016-04-17T06:23:21.000Z</time>
      </trkpt>
      <trkpt lat="43.69276" lon="5.85105">
        <ele>470</ele>
        <time>2016-04-17T06:23:23.000Z</time>
      </trkpt>
      <trkpt lat="43.69309" lon="5.85112">
        <ele>475</ele>
        <time>2016-04-17T06:23:33.000Z</time>
      </trkpt>
      <trkpt lat="43.69327" lon="5.85116">
        <ele>476</ele>
        <time>2016-04-17T06:23:35.000Z</time>
      </trkpt>
      <trkpt lat="43.69336" lon="5.85118">
        <ele>476</ele>
        <time>2016-04-17T06:23:37.000Z</time>
      </trkpt>
      <trkpt lat="43.69342" lon="5.85119">
        <ele>476</ele>
        <time>2016-04-17T06:23:39.000Z</time>
      </trkpt>
      <trkpt lat="43.69348" lon="5.8512">
        <ele>477</ele>
        <time>2016-04-17T06:23:43.000Z</time>
      </trkpt>
      <trkpt lat="43.69352" lon="5.85122">
        <ele>477</ele>
        <time>2016-04-17T06:23:47.000Z</time>
      </trkpt>
      <trkpt lat="43.69357" lon="5.85122">
        <ele>477</ele>
        <time>2016-04-17T06:23:51.000Z</time>
      </trkpt>
      <trkpt lat="43.69362" lon="5.85122">
        <ele>479</ele>
        <time>2016-04-17T06:23:55.000Z</time>
      </trkpt>
      <trkpt lat="43.69367" lon="5.85123">
        <ele>480</ele>
        <time>2016-04-17T06:23:59.000Z</time>
      </trkpt>
      <trkpt lat="43.69371" lon="5.85124">
        <ele>481</ele>
        <time>2016-04-17T06:24:03.000Z</time>
      </trkpt>
      <trkpt lat="43.69376" lon="5.85127">
        <ele>480</ele>
        <time>2016-04-17T06:24:07.000Z</time>
      </trkpt>
      <trkpt lat="43.6938" lon="5.85129">
        <ele>481</ele>
        <time>2016-04-17T06:24:11.000Z</time>
      </trkpt>
      <trkpt lat="43.69386" lon="5.85129">
        <ele>483</ele>
        <time>2016-04-17T06:24:15.000Z</time>
      </trkpt>
      <trkpt lat="43.69392" lon="5.8513">
        <ele>481</ele>
        <time>2016-04-17T06:24:17.000Z</time>
      </trkpt>
      <trkpt lat="43.69396" lon="5.85133">
        <ele>480</ele>
        <time>2016-04-17T06:24:19.000Z</time>
      </trkpt>
      <trkpt lat="43.694" lon="5.85137">
        <ele>481</ele>
        <time>2016-04-17T06:24:21.000Z</time>
      </trkpt>
      <trkpt lat="43.69405" lon="5.85139">
        <ele>482</ele>
        <time>2016-04-17T06:24:23.000Z</time>
      </trkpt>
      <trkpt lat="43.69415" lon="5.8514">
        <ele>483</ele>
        <time>2016-04-17T06:24:25.000Z</time>
      </trkpt>
      <trkpt lat="43.69415" lon="5.8514">
        <ele>483</ele>
        <time>2016-04-17T06:24:27.000Z</time>
      </trkpt>
      <trkpt lat="43.69415" lon="5.8514">
        <ele>483</ele>
        <time>2016-04-17T06:24:29.000Z</time>
      </trkpt>
      <trkpt lat="43.69415" lon="5.8514">
        <ele>483</ele>
        <time>2016-04-17T06:24:31.000Z</time>
      </trkpt>
      <trkpt lat="43.69415" lon="5.8514">
        <ele>483</ele>
        <time>2016-04-17T06:24:33.000Z</time>
      </trkpt>
      <trkpt lat="43.69415" lon="5.8514">
        <ele>483</ele>
        <time>2016-04-17T06:24:35.000Z</time>
      </trkpt>
      <trkpt lat="43.69415" lon="5.8514">
        <ele>483</ele>
        <time>2016-04-17T06:24:37.000Z</time>
      </trkpt>
      <trkpt lat="43.69415" lon="5.8514">
        <ele>483</ele>
        <time>2016-04-17T06:24:39.000Z</time>
      </trkpt>
      <trkpt lat="43.69415" lon="5.8514">
        <ele>483</ele>
        <time>2016-04-17T06:24:41.000Z</time>
      </trkpt>
      <trkpt lat="43.69415" lon="5.8514">
        <ele>483</ele>
        <time>2016-04-17T06:24:43.000Z</time>
      </trkpt>
      <trkpt lat="43.69415" lon="5.8514">
        <ele>483</ele>
        <time>2016-04-17T06:24:45.000Z</time>
      </trkpt>
      <trkpt lat="43.69415" lon="5.8514">
        <ele>483</ele>
        <time>2016-04-17T06:24:47.000Z</time>
      </trkpt>
      <trkpt lat="43.69415" lon="5.8514">
        <ele>483</ele>
        <time>2016-04-17T06:24:49.000Z</time>
      </trkpt>
      <trkpt lat="43.69415" lon="5.8514">
        <ele>483</ele>
        <time>2016-04-17T06:24:51.000Z</time>
      </trkpt>
      <trkpt lat="43.69443" lon="5.85106">
        <ele>483</ele>
        <time>2016-04-17T06:24:53.000Z</time>
      </trkpt>
      <trkpt lat="43.6945" lon="5.85098">
        <ele>483</ele>
        <time>2016-04-17T06:24:57.000Z</time>
      </trkpt>
      <trkpt lat="43.69458" lon="5.8509">
        <ele>483</ele>
        <time>2016-04-17T06:25:01.000Z</time>
      </trkpt>
      <trkpt lat="43.69468" lon="5.8508">
        <ele>483</ele>
        <time>2016-04-17T06:25:05.000Z</time>
      </trkpt>
      <trkpt lat="43.6948" lon="5.85068">
        <ele>483</ele>
        <time>2016-04-17T06:25:09.000Z</time>
      </trkpt>
      <trkpt lat="43.69489" lon="5.85056">
        <ele>484</ele>
        <time>2016-04-17T06:25:13.000Z</time>
      </trkpt>
      <trkpt lat="43.69489" lon="5.85056">
        <ele>484</ele>
        <time>2016-04-17T06:25:15.000Z</time>
      </trkpt>
      <trkpt lat="43.69496" lon="5.85042">
        <ele>484</ele>
        <time>2016-04-17T06:25:17.000Z</time>
      </trkpt>
      <trkpt lat="43.69496" lon="5.85042">
        <ele>484</ele>
        <time>2016-04-17T06:25:19.000Z</time>
      </trkpt>
      <trkpt lat="43.69496" lon="5.85042">
        <ele>484</ele>
        <time>2016-04-17T06:25:21.000Z</time>
      </trkpt>
      <trkpt lat="43.69496" lon="5.85042">
        <ele>484</ele>
        <time>2016-04-17T06:25:23.000Z</time>
      </trkpt>
      <trkpt lat="43.69496" lon="5.85042">
        <ele>484</ele>
        <time>2016-04-17T06:25:25.000Z</time>
      </trkpt>
      <trkpt lat="43.69496" lon="5.85042">
        <ele>484</ele>
        <time>2016-04-17T06:25:27.000Z</time>
      </trkpt>
      <trkpt lat="43.69496" lon="5.85042">
        <ele>484</ele>
        <time>2016-04-17T06:25:29.000Z</time>
      </trkpt>
      <trkpt lat="43.69496" lon="5.85042">
        <ele>484</ele>
        <time>2016-04-17T06:25:31.000Z</time>
      </trkpt>
      <trkpt lat="43.69496" lon="5.85042">
        <ele>484</ele>
        <time>2016-04-17T06:25:33.000Z</time>
      </trkpt>
      <trkpt lat="43.69542" lon="5.84996">
        <ele>486</ele>
        <time>2016-04-17T06:25:37.000Z</time>
      </trkpt>
      <trkpt lat="43.69554" lon="5.84987">
        <ele>485</ele>
        <time>2016-04-17T06:25:41.000Z</time>
      </trkpt>
      <trkpt lat="43.6956" lon="5.84981">
        <ele>484</ele>
        <time>2016-04-17T06:25:45.000Z</time>
      </trkpt>
      <trkpt lat="43.69568" lon="5.84975">
        <ele>483</ele>
        <time>2016-04-17T06:25:47.000Z</time>
      </trkpt>
      <trkpt lat="43.69575" lon="5.84968">
        <ele>482</ele>
        <time>2016-04-17T06:25:49.000Z</time>
      </trkpt>
      <trkpt lat="43.69582" lon="5.84961">
        <ele>483</ele>
        <time>2016-04-17T06:25:51.000Z</time>
      </trkpt>
      <trkpt lat="43.69588" lon="5.84954">
        <ele>483</ele>
        <time>2016-04-17T06:25:53.000Z</time>
      </trkpt>
      <trkpt lat="43.69603" lon="5.84941">
        <ele>484</ele>
        <time>2016-04-17T06:25:55.000Z</time>
      </trkpt>
      <trkpt lat="43.69615" lon="5.84939">
        <ele>484</ele>
        <time>2016-04-17T06:25:57.000Z</time>
      </trkpt>
      <trkpt lat="43.69628" lon="5.84953">
        <ele>484</ele>
        <time>2016-04-17T06:26:01.000Z</time>
      </trkpt>
      <trkpt lat="43.69628" lon="5.84953">
        <ele>484</ele>
        <time>2016-04-17T06:26:03.000Z</time>
      </trkpt>
      <trkpt lat="43.69628" lon="5.84953">
        <ele>484</ele>
        <time>2016-04-17T06:26:05.000Z</time>
      </trkpt>
      <trkpt lat="43.69628" lon="5.84953">
        <ele>484</ele>
        <time>2016-04-17T06:26:07.000Z</time>
      </trkpt>
      <trkpt lat="43.69628" lon="5.84953">
        <ele>484</ele>
        <time>2016-04-17T06:26:09.000Z</time>
      </trkpt>
      <trkpt lat="43.69628" lon="5.84953">
        <ele>484</ele>
        <time>2016-04-17T06:26:11.000Z</time>
      </trkpt>
      <trkpt lat="43.69628" lon="5.84953">
        <ele>484</ele>
        <time>2016-04-17T06:26:13.000Z</time>
      </trkpt>
      <trkpt lat="43.69628" lon="5.84953">
        <ele>484</ele>
        <time>2016-04-17T06:26:15.000Z</time>
      </trkpt>
      <trkpt lat="43.69628" lon="5.84953">
        <ele>484</ele>
        <time>2016-04-17T06:26:17.000Z</time>
      </trkpt>
      <trkpt lat="43.69628" lon="5.84953">
        <ele>484</ele>
        <time>2016-04-17T06:26:19.000Z</time>
      </trkpt>
      <trkpt lat="43.69628" lon="5.84953">
        <ele>484</ele>
        <time>2016-04-17T06:26:21.000Z</time>
      </trkpt>
      <trkpt lat="43.69628" lon="5.84953">
        <ele>484</ele>
        <time>2016-04-17T06:26:23.000Z</time>
      </trkpt>
      <trkpt lat="43.69628" lon="5.84953">
        <ele>484</ele>
        <time>2016-04-17T06:26:25.000Z</time>
      </trkpt>
      <trkpt lat="43.69628" lon="5.84953">
        <ele>484</ele>
        <time>2016-04-17T06:26:27.000Z</time>
      </trkpt>
      <trkpt lat="43.69628" lon="5.84953">
        <ele>484</ele>
        <time>2016-04-17T06:26:29.000Z</time>
      </trkpt>
      <trkpt lat="43.69628" lon="5.84953">
        <ele>484</ele>
        <time>2016-04-17T06:26:31.000Z</time>
      </trkpt>
      <trkpt lat="43.69628" lon="5.84953">
        <ele>484</ele>
        <time>2016-04-17T06:26:33.000Z</time>
      </trkpt>
      <trkpt lat="43.69628" lon="5.84953">
        <ele>484</ele>
        <time>2016-04-17T06:26:35.000Z</time>
      </trkpt>
      <trkpt lat="43.69628" lon="5.84953">
        <ele>484</ele>
        <time>2016-04-17T06:26:37.000Z</time>
      </trkpt>
      <trkpt lat="43.69628" lon="5.84953">
        <ele>484</ele>
        <time>2016-04-17T06:26:39.000Z</time>
      </trkpt>
      <trkpt lat="43.69688" lon="5.84892">
        <ele>478</ele>
        <time>2016-04-17T06:26:41.000Z</time>
      </trkpt>
      <trkpt lat="43.6969" lon="5.84877">
        <ele>476</ele>
        <time>2016-04-17T06:26:45.000Z</time>
      </trkpt>
      <trkpt lat="43.69697" lon="5.84866">
        <ele>474</ele>
        <time>2016-04-17T06:26:49.000Z</time>
      </trkpt>
      <trkpt lat="43.69697" lon="5.84866">
        <ele>474</ele>
        <time>2016-04-17T06:26:51.000Z</time>
      </trkpt>
      <trkpt lat="43.69708" lon="5.84862">
        <ele>475</ele>
        <time>2016-04-17T06:26:53.000Z</time>
      </trkpt>
      <trkpt lat="43.69708" lon="5.84862">
        <ele>475</ele>
        <time>2016-04-17T06:26:55.000Z</time>
      </trkpt>
      <trkpt lat="43.69715" lon="5.84848">
        <ele>473</ele>
        <time>2016-04-17T06:26:57.000Z</time>
      </trkpt>
      <trkpt lat="43.6972" lon="5.84833">
        <ele>470</ele>
        <time>2016-04-17T06:27:01.000Z</time>
      </trkpt>
      <trkpt lat="43.6972" lon="5.84833">
        <ele>470</ele>
        <time>2016-04-17T06:27:03.000Z</time>
      </trkpt>
      <trkpt lat="43.6972" lon="5.84833">
        <ele>470</ele>
        <time>2016-04-17T06:27:05.000Z</time>
      </trkpt>
      <trkpt lat="43.69725" lon="5.84801">
        <ele>470</ele>
        <time>2016-04-17T06:27:09.000Z</time>
      </trkpt>
      <trkpt lat="43.69733" lon="5.84786">
        <ele>471</ele>
        <time>2016-04-17T06:27:13.000Z</time>
      </trkpt>
      <trkpt lat="43.69733" lon="5.84786">
        <ele>471</ele>
        <time>2016-04-17T06:27:15.000Z</time>
      </trkpt>
      <trkpt lat="43.69733" lon="5.84786">
        <ele>471</ele>
        <time>2016-04-17T06:27:17.000Z</time>
      </trkpt>
      <trkpt lat="43.69733" lon="5.84786">
        <ele>471</ele>
        <time>2016-04-17T06:27:19.000Z</time>
      </trkpt>
      <trkpt lat="43.69733" lon="5.84786">
        <ele>471</ele>
        <time>2016-04-17T06:27:21.000Z</time>
      </trkpt>
      <trkpt lat="43.69742" lon="5.84768">
        <ele>471</ele>
        <time>2016-04-17T06:27:25.000Z</time>
      </trkpt>
      <trkpt lat="43.69748" lon="5.84756">
        <ele>472</ele>
        <time>2016-04-17T06:27:27.000Z</time>
      </trkpt>
      <trkpt lat="43.69748" lon="5.84756">
        <ele>472</ele>
        <time>2016-04-17T06:27:29.000Z</time>
      </trkpt>
      <trkpt lat="43.69748" lon="5.84756">
        <ele>472</ele>
        <time>2016-04-17T06:27:31.000Z</time>
      </trkpt>
      <trkpt lat="43.69748" lon="5.84756">
        <ele>472</ele>
        <time>2016-04-17T06:27:33.000Z</time>
      </trkpt>
      <trkpt lat="43.69748" lon="5.84756">
        <ele>472</ele>
        <time>2016-04-17T06:27:35.000Z</time>
      </trkpt>
      <trkpt lat="43.69748" lon="5.84756">
        <ele>472</ele>
        <time>2016-04-17T06:27:37.000Z</time>
      </trkpt>
      <trkpt lat="43.69748" lon="5.84756">
        <ele>472</ele>
        <time>2016-04-17T06:27:39.000Z</time>
      </trkpt>
      <trkpt lat="43.69748" lon="5.84756">
        <ele>472</ele>
        <time>2016-04-17T06:27:41.000Z</time>
      </trkpt>
      <trkpt lat="43.69748" lon="5.84756">
        <ele>472</ele>
        <time>2016-04-17T06:27:43.000Z</time>
      </trkpt>
      <trkpt lat="43.69748" lon="5.84756">
        <ele>472</ele>
        <time>2016-04-17T06:27:45.000Z</time>
      </trkpt>
      <trkpt lat="43.69748" lon="5.84756">
        <ele>472</ele>
        <time>2016-04-17T06:27:47.000Z</time>
      </trkpt>
      <trkpt lat="43.69748" lon="5.84756">
        <ele>472</ele>
        <time>2016-04-17T06:27:57.000Z</time>
      </trkpt>
      <trkpt lat="43.69782" lon="5.84728">
        <ele>474</ele>
        <time>2016-04-17T06:27:59.000Z</time>
      </trkpt>
      <trkpt lat="43.69801" lon="5.84711">
        <ele>474</ele>
        <time>2016-04-17T06:28:01.000Z</time>
      </trkpt>
      <trkpt lat="43.69811" lon="5.84701">
        <ele>474</ele>
        <time>2016-04-17T06:28:03.000Z</time>
      </trkpt>
      <trkpt lat="43.69811" lon="5.84701">
        <ele>474</ele>
        <time>2016-04-17T06:28:05.000Z</time>
      </trkpt>
      <trkpt lat="43.69811" lon="5.84701">
        <ele>474</ele>
        <time>2016-04-17T06:28:07.000Z</time>
      </trkpt>
      <trkpt lat="43.69811" lon="5.84701">
        <ele>474</ele>
        <time>2016-04-17T06:28:09.000Z</time>
      </trkpt>
      <trkpt lat="43.69822" lon="5.84683">
        <ele>479</ele>
        <time>2016-04-17T06:28:13.000Z</time>
      </trkpt>
      <trkpt lat="43.69828" lon="5.84671">
        <ele>479</ele>
        <time>2016-04-17T06:28:15.000Z</time>
      </trkpt>
      <trkpt lat="43.69832" lon="5.84663">
        <ele>480</ele>
        <time>2016-04-17T06:28:17.000Z</time>
      </trkpt>
      <trkpt lat="43.69836" lon="5.84656">
        <ele>481</ele>
        <time>2016-04-17T06:28:19.000Z</time>
      </trkpt>
      <trkpt lat="43.69837" lon="5.8465">
        <ele>480</ele>
        <time>2016-04-17T06:28:21.000Z</time>
      </trkpt>
      <trkpt lat="43.69837" lon="5.8465">
        <ele>480</ele>
        <time>2016-04-17T06:28:23.000Z</time>
      </trkpt>
      <trkpt lat="43.69837" lon="5.8465">
        <ele>480</ele>
        <time>2016-04-17T06:28:25.000Z</time>
      </trkpt>
      <trkpt lat="43.69837" lon="5.8465">
        <ele>480</ele>
        <time>2016-04-17T06:28:27.000Z</time>
      </trkpt>
      <trkpt lat="43.69837" lon="5.8465">
        <ele>480</ele>
        <time>2016-04-17T06:28:29.000Z</time>
      </trkpt>
      <trkpt lat="43.69837" lon="5.8465">
        <ele>480</ele>
        <time>2016-04-17T06:28:31.000Z</time>
      </trkpt>
      <trkpt lat="43.6983" lon="5.84616">
        <ele>479</ele>
        <time>2016-04-17T06:28:35.000Z</time>
      </trkpt>
      <trkpt lat="43.6983" lon="5.84616">
        <ele>479</ele>
        <time>2016-04-17T06:28:39.000Z</time>
      </trkpt>
      <trkpt lat="43.69824" lon="5.84604">
        <ele>475</ele>
        <time>2016-04-17T06:28:41.000Z</time>
      </trkpt>
      <trkpt lat="43.69824" lon="5.84604">
        <ele>475</ele>
        <time>2016-04-17T06:28:43.000Z</time>
      </trkpt>
      <trkpt lat="43.69822" lon="5.84585">
        <ele>477</ele>
        <time>2016-04-17T06:28:47.000Z</time>
      </trkpt>
      <trkpt lat="43.69823" lon="5.84568">
        <ele>477</ele>
        <time>2016-04-17T06:28:53.000Z</time>
      </trkpt>
      <trkpt lat="43.69827" lon="5.84554">
        <ele>477</ele>
        <time>2016-04-17T06:28:57.000Z</time>
      </trkpt>
      <trkpt lat="43.69824" lon="5.84541">
        <ele>476</ele>
        <time>2016-04-17T06:29:01.000Z</time>
      </trkpt>
      <trkpt lat="43.69824" lon="5.84541">
        <ele>476</ele>
        <time>2016-04-17T06:29:03.000Z</time>
      </trkpt>
      <trkpt lat="43.69824" lon="5.84541">
        <ele>476</ele>
        <time>2016-04-17T06:29:05.000Z</time>
      </trkpt>
      <trkpt lat="43.69824" lon="5.84541">
        <ele>476</ele>
        <time>2016-04-17T06:29:07.000Z</time>
      </trkpt>
      <trkpt lat="43.69824" lon="5.84541">
        <ele>476</ele>
        <time>2016-04-17T06:29:09.000Z</time>
      </trkpt>
      <trkpt lat="43.69824" lon="5.84541">
        <ele>476</ele>
        <time>2016-04-17T06:29:11.000Z</time>
      </trkpt>
      <trkpt lat="43.69824" lon="5.84541">
        <ele>476</ele>
        <time>2016-04-17T06:29:13.000Z</time>
      </trkpt>
      <trkpt lat="43.69824" lon="5.84541">
        <ele>476</ele>
        <time>2016-04-17T06:29:15.000Z</time>
      </trkpt>
      <trkpt lat="43.69824" lon="5.84541">
        <ele>476</ele>
        <time>2016-04-17T06:29:17.000Z</time>
      </trkpt>
      <trkpt lat="43.69824" lon="5.84541">
        <ele>476</ele>
        <time>2016-04-17T06:29:19.000Z</time>
      </trkpt>
      <trkpt lat="43.69824" lon="5.84541">
        <ele>476</ele>
        <time>2016-04-17T06:29:21.000Z</time>
      </trkpt>
      <trkpt lat="43.69824" lon="5.84541">
        <ele>476</ele>
        <time>2016-04-17T06:29:23.000Z</time>
      </trkpt>
      <trkpt lat="43.69824" lon="5.84541">
        <ele>476</ele>
        <time>2016-04-17T06:29:25.000Z</time>
      </trkpt>
      <trkpt lat="43.69824" lon="5.84541">
        <ele>476</ele>
        <time>2016-04-17T06:29:27.000Z</time>
      </trkpt>
      <trkpt lat="43.69824" lon="5.84541">
        <ele>476</ele>
        <time>2016-04-17T06:29:29.000Z</time>
      </trkpt>
      <trkpt lat="43.69824" lon="5.84541">
        <ele>476</ele>
        <time>2016-04-17T06:29:31.000Z</time>
      </trkpt>
      <trkpt lat="43.69824" lon="5.84541">
        <ele>476</ele>
        <time>2016-04-17T06:29:33.000Z</time>
      </trkpt>
      <trkpt lat="43.69824" lon="5.84541">
        <ele>476</ele>
        <time>2016-04-17T06:29:35.000Z</time>
      </trkpt>
      <trkpt lat="43.69824" lon="5.84541">
        <ele>476</ele>
        <time>2016-04-17T06:29:37.000Z</time>
      </trkpt>
      <trkpt lat="43.69824" lon="5.84541">
        <ele>476</ele>
        <time>2016-04-17T06:29:39.000Z</time>
      </trkpt>
      <trkpt lat="43.69823" lon="5.84494">
        <ele>482</ele>
        <time>2016-04-17T06:29:43.000Z</time>
      </trkpt>
      <trkpt lat="43.69823" lon="5.84468">
        <ele>483</ele>
        <time>2016-04-17T06:29:45.000Z</time>
      </trkpt>
      <trkpt lat="43.69824" lon="5.84454">
        <ele>483</ele>
        <time>2016-04-17T06:29:47.000Z</time>
      </trkpt>
      <trkpt lat="43.69827" lon="5.84446">
        <ele>482</ele>
        <time>2016-04-17T06:29:49.000Z</time>
      </trkpt>
      <trkpt lat="43.6983" lon="5.84441">
        <ele>482</ele>
        <time>2016-04-17T06:29:51.000Z</time>
      </trkpt>
      <trkpt lat="43.69833" lon="5.84429">
        <ele>482</ele>
        <time>2016-04-17T06:29:55.000Z</time>
      </trkpt>
      <trkpt lat="43.69827" lon="5.84418">
        <ele>483</ele>
        <time>2016-04-17T06:30:01.000Z</time>
      </trkpt>
      <trkpt lat="43.69828" lon="5.84404">
        <ele>483</ele>
        <time>2016-04-17T06:30:07.000Z</time>
      </trkpt>
      <trkpt lat="43.69828" lon="5.8439">
        <ele>485</ele>
        <time>2016-04-17T06:30:13.000Z</time>
      </trkpt>
      <trkpt lat="43.69823" lon="5.84377">
        <ele>486</ele>
        <time>2016-04-17T06:30:19.000Z</time>
      </trkpt>
      <trkpt lat="43.6982" lon="5.84363">
        <ele>486</ele>
        <time>2016-04-17T06:30:25.000Z</time>
      </trkpt>
      <trkpt lat="43.6982" lon="5.84363">
        <ele>486</ele>
        <time>2016-04-17T06:30:31.000Z</time>
      </trkpt>
      <trkpt lat="43.6982" lon="5.84363">
        <ele>486</ele>
        <time>2016-04-17T06:30:33.000Z</time>
      </trkpt>
      <trkpt lat="43.6982" lon="5.84363">
        <ele>486</ele>
        <time>2016-04-17T06:30:35.000Z</time>
      </trkpt>
      <trkpt lat="43.6982" lon="5.84363">
        <ele>486</ele>
        <time>2016-04-17T06:30:37.000Z</time>
      </trkpt>
      <trkpt lat="43.69805" lon="5.84331">
        <ele>490</ele>
        <time>2016-04-17T06:30:43.000Z</time>
      </trkpt>
      <trkpt lat="43.69801" lon="5.84318">
        <ele>489</ele>
        <time>2016-04-17T06:30:47.000Z</time>
      </trkpt>
      <trkpt lat="43.69804" lon="5.84305">
        <ele>487</ele>
        <time>2016-04-17T06:30:51.000Z</time>
      </trkpt>
      <trkpt lat="43.69807" lon="5.84286">
        <ele>484</ele>
        <time>2016-04-17T06:30:55.000Z</time>
      </trkpt>
      <trkpt lat="43.69805" lon="5.84266">
        <ele>485</ele>
        <time>2016-04-17T06:30:59.000Z</time>
      </trkpt>
      <trkpt lat="43.69807" lon="5.84239">
        <ele>484</ele>
        <time>2016-04-17T06:31:03.000Z</time>
      </trkpt>
      <trkpt lat="43.69808" lon="5.84219">
        <ele>484</ele>
        <time>2016-04-17T06:31:07.000Z</time>
      </trkpt>
      <trkpt lat="43.69808" lon="5.84219">
        <ele>484</ele>
        <time>2016-04-17T06:31:09.000Z</time>
      </trkpt>
      <trkpt lat="43.69808" lon="5.84219">
        <ele>484</ele>
        <time>2016-04-17T06:31:11.000Z</time>
      </trkpt>
      <trkpt lat="43.69808" lon="5.84219">
        <ele>484</ele>
        <time>2016-04-17T06:31:13.000Z</time>
      </trkpt>
      <trkpt lat="43.69808" lon="5.84219">
        <ele>484</ele>
        <time>2016-04-17T06:31:15.000Z</time>
      </trkpt>
      <trkpt lat="43.69808" lon="5.84219">
        <ele>484</ele>
        <time>2016-04-17T06:31:23.000Z</time>
      </trkpt>
      <trkpt lat="43.69808" lon="5.84219">
        <ele>484</ele>
        <time>2016-04-17T06:31:25.000Z</time>
      </trkpt>
      <trkpt lat="43.69808" lon="5.84219">
        <ele>484</ele>
        <time>2016-04-17T06:31:27.000Z</time>
      </trkpt>
      <trkpt lat="43.69805" lon="5.84188">
        <ele>483</ele>
        <time>2016-04-17T06:31:31.000Z</time>
      </trkpt>
      <trkpt lat="43.69803" lon="5.84169">
        <ele>484</ele>
        <time>2016-04-17T06:31:33.000Z</time>
      </trkpt>
      <trkpt lat="43.69801" lon="5.84158">
        <ele>482</ele>
        <time>2016-04-17T06:31:35.000Z</time>
      </trkpt>
      <trkpt lat="43.69798" lon="5.84151">
        <ele>482</ele>
        <time>2016-04-17T06:31:37.000Z</time>
      </trkpt>
      <trkpt lat="43.69798" lon="5.84151">
        <ele>482</ele>
        <time>2016-04-17T06:31:39.000Z</time>
      </trkpt>
      <trkpt lat="43.69798" lon="5.84151">
        <ele>482</ele>
        <time>2016-04-17T06:31:41.000Z</time>
      </trkpt>
      <trkpt lat="43.69798" lon="5.84151">
        <ele>482</ele>
        <time>2016-04-17T06:31:43.000Z</time>
      </trkpt>
      <trkpt lat="43.69798" lon="5.84151">
        <ele>482</ele>
        <time>2016-04-17T06:31:45.000Z</time>
      </trkpt>
      <trkpt lat="43.69798" lon="5.84151">
        <ele>482</ele>
        <time>2016-04-17T06:31:47.000Z</time>
      </trkpt>
      <trkpt lat="43.69798" lon="5.84151">
        <ele>482</ele>
        <time>2016-04-17T06:31:49.000Z</time>
      </trkpt>
      <trkpt lat="43.69798" lon="5.84151">
        <ele>482</ele>
        <time>2016-04-17T06:31:51.000Z</time>
      </trkpt>
      <trkpt lat="43.69799" lon="5.8413">
        <ele>476</ele>
        <time>2016-04-17T06:31:55.000Z</time>
      </trkpt>
      <trkpt lat="43.69799" lon="5.84115">
        <ele>475</ele>
        <time>2016-04-17T06:31:57.000Z</time>
      </trkpt>
      <trkpt lat="43.69801" lon="5.84103">
        <ele>474</ele>
        <time>2016-04-17T06:31:59.000Z</time>
      </trkpt>
      <trkpt lat="43.69801" lon="5.84091">
        <ele>472</ele>
        <time>2016-04-17T06:32:01.000Z</time>
      </trkpt>
      <trkpt lat="43.69799" lon="5.84081">
        <ele>469</ele>
        <time>2016-04-17T06:32:03.000Z</time>
      </trkpt>
      <trkpt lat="43.69794" lon="5.84065">
        <ele>468</ele>
        <time>2016-04-17T06:32:05.000Z</time>
      </trkpt>
      <trkpt lat="43.69794" lon="5.84065">
        <ele>468</ele>
        <time>2016-04-17T06:32:07.000Z</time>
      </trkpt>
      <trkpt lat="43.69794" lon="5.84065">
        <ele>468</ele>
        <time>2016-04-17T06:32:09.000Z</time>
      </trkpt>
      <trkpt lat="43.6979" lon="5.84025">
        <ele>462</ele>
        <time>2016-04-17T06:32:17.000Z</time>
      </trkpt>
      <trkpt lat="43.6979" lon="5.84025">
        <ele>462</ele>
        <time>2016-04-17T06:32:21.000Z</time>
      </trkpt>
      <trkpt lat="43.6979" lon="5.84025">
        <ele>462</ele>
        <time>2016-04-17T06:32:23.000Z</time>
      </trkpt>
      <trkpt lat="43.6979" lon="5.84025">
        <ele>462</ele>
        <time>2016-04-17T06:32:25.000Z</time>
      </trkpt>
      <trkpt lat="43.69764" lon="5.83999">
        <ele>460</ele>
        <time>2016-04-17T06:32:29.000Z</time>
      </trkpt>
      <trkpt lat="43.69753" lon="5.83984">
        <ele>457</ele>
        <time>2016-04-17T06:32:33.000Z</time>
      </trkpt>
      <trkpt lat="43.69757" lon="5.83965">
        <ele>455</ele>
        <time>2016-04-17T06:32:37.000Z</time>
      </trkpt>
      <trkpt lat="43.69757" lon="5.83965">
        <ele>455</ele>
        <time>2016-04-17T06:32:39.000Z</time>
      </trkpt>
      <trkpt lat="43.69757" lon="5.83965">
        <ele>455</ele>
        <time>2016-04-17T06:32:41.000Z</time>
      </trkpt>
      <trkpt lat="43.69757" lon="5.83965">
        <ele>455</ele>
        <time>2016-04-17T06:32:43.000Z</time>
      </trkpt>
      <trkpt lat="43.69757" lon="5.83965">
        <ele>455</ele>
        <time>2016-04-17T06:32:49.000Z</time>
      </trkpt>
      <trkpt lat="43.69757" lon="5.83965">
        <ele>455</ele>
        <time>2016-04-17T06:32:51.000Z</time>
      </trkpt>
      <trkpt lat="43.69757" lon="5.83965">
        <ele>455</ele>
        <time>2016-04-17T06:32:53.000Z</time>
      </trkpt>
      <trkpt lat="43.69757" lon="5.83965">
        <ele>455</ele>
        <time>2016-04-17T06:32:55.000Z</time>
      </trkpt>
      <trkpt lat="43.69704" lon="5.83953">
        <ele>443</ele>
        <time>2016-04-17T06:33:01.000Z</time>
      </trkpt>
      <trkpt lat="43.69704" lon="5.83953">
        <ele>443</ele>
        <time>2016-04-17T06:33:03.000Z</time>
      </trkpt>
      <trkpt lat="43.69699" lon="5.83939">
        <ele>440</ele>
        <time>2016-04-17T06:33:05.000Z</time>
      </trkpt>
      <trkpt lat="43.69699" lon="5.83939">
        <ele>440</ele>
        <time>2016-04-17T06:33:07.000Z</time>
      </trkpt>
      <trkpt lat="43.69699" lon="5.83939">
        <ele>440</ele>
        <time>2016-04-17T06:33:09.000Z</time>
      </trkpt>
      <trkpt lat="43.69699" lon="5.83939">
        <ele>440</ele>
        <time>2016-04-17T06:33:11.000Z</time>
      </trkpt>
      <trkpt lat="43.69699" lon="5.83939">
        <ele>440</ele>
        <time>2016-04-17T06:33:13.000Z</time>
      </trkpt>
      <trkpt lat="43.69699" lon="5.83939">
        <ele>440</ele>
        <time>2016-04-17T06:33:15.000Z</time>
      </trkpt>
      <trkpt lat="43.6971" lon="5.83913">
        <ele>441</ele>
        <time>2016-04-17T06:35:01.000Z</time>
      </trkpt>
      <trkpt lat="43.69715" lon="5.83901">
        <ele>439</ele>
        <time>2016-04-17T06:35:04.000Z</time>
      </trkpt>
      <trkpt lat="43.69729" lon="5.83884">
        <ele>437</ele>
        <time>2016-04-17T06:35:08.000Z</time>
      </trkpt>
      <trkpt lat="43.69736" lon="5.83874">
        <ele>436</ele>
        <time>2016-04-17T06:35:10.000Z</time>
      </trkpt>
      <trkpt lat="43.69745" lon="5.83864">
        <ele>435</ele>
        <time>2016-04-17T06:35:12.000Z</time>
      </trkpt>
      <trkpt lat="43.69752" lon="5.83854">
        <ele>434</ele>
        <time>2016-04-17T06:35:14.000Z</time>
      </trkpt>
      <trkpt lat="43.69757" lon="5.83844">
        <ele>433</ele>
        <time>2016-04-17T06:35:16.000Z</time>
      </trkpt>
      <trkpt lat="43.69765" lon="5.83833">
        <ele>434</ele>
        <time>2016-04-17T06:35:18.000Z</time>
      </trkpt>
      <trkpt lat="43.69765" lon="5.83833">
        <ele>434</ele>
        <time>2016-04-17T06:35:20.000Z</time>
      </trkpt>
      <trkpt lat="43.69765" lon="5.83833">
        <ele>434</ele>
        <time>2016-04-17T06:35:22.000Z</time>
      </trkpt>
      <trkpt lat="43.69765" lon="5.83833">
        <ele>434</ele>
        <time>2016-04-17T06:35:24.000Z</time>
      </trkpt>
      <trkpt lat="43.69765" lon="5.83833">
        <ele>434</ele>
        <time>2016-04-17T06:35:26.000Z</time>
      </trkpt>
      <trkpt lat="43.69795" lon="5.83791">
        <ele>430</ele>
        <time>2016-04-17T06:35:30.000Z</time>
      </trkpt>
      <trkpt lat="43.69801" lon="5.8378">
        <ele>430</ele>
        <time>2016-04-17T06:35:32.000Z</time>
      </trkpt>
      <trkpt lat="43.69812" lon="5.83761">
        <ele>428</ele>
        <time>2016-04-17T06:35:36.000Z</time>
      </trkpt>
      <trkpt lat="43.69817" lon="5.83749">
        <ele>428</ele>
        <time>2016-04-17T06:35:38.000Z</time>
      </trkpt>
      <trkpt lat="43.69823" lon="5.83736">
        <ele>429</ele>
        <time>2016-04-17T06:35:40.000Z</time>
      </trkpt>
      <trkpt lat="43.69825" lon="5.83723">
        <ele>427</ele>
        <time>2016-04-17T06:35:42.000Z</time>
      </trkpt>
      <trkpt lat="43.69825" lon="5.83723">
        <ele>427</ele>
        <time>2016-04-17T06:35:44.000Z</time>
      </trkpt>
      <trkpt lat="43.69828" lon="5.83696">
        <ele>424</ele>
        <time>2016-04-17T06:35:46.000Z</time>
      </trkpt>
      <trkpt lat="43.69828" lon="5.83696">
        <ele>424</ele>
        <time>2016-04-17T06:35:48.000Z</time>
      </trkpt>
      <trkpt lat="43.69843" lon="5.83677">
        <ele>422</ele>
        <time>2016-04-17T06:35:50.000Z</time>
      </trkpt>
      <trkpt lat="43.69849" lon="5.83665">
        <ele>421</ele>
        <time>2016-04-17T06:35:52.000Z</time>
      </trkpt>
      <trkpt lat="43.69859" lon="5.83654">
        <ele>420</ele>
        <time>2016-04-17T06:35:54.000Z</time>
      </trkpt>
      <trkpt lat="43.69866" lon="5.83645">
        <ele>418</ele>
        <time>2016-04-17T06:35:56.000Z</time>
      </trkpt>
      <trkpt lat="43.69868" lon="5.83633">
        <ele>418</ele>
        <time>2016-04-17T06:35:58.000Z</time>
      </trkpt>
      <trkpt lat="43.69868" lon="5.83633">
        <ele>418</ele>
        <time>2016-04-17T06:36:00.000Z</time>
      </trkpt>
      <trkpt lat="43.69868" lon="5.83633">
        <ele>418</ele>
        <time>2016-04-17T06:36:06.000Z</time>
      </trkpt>
      <trkpt lat="43.69868" lon="5.83633">
        <ele>418</ele>
        <time>2016-04-17T06:36:08.000Z</time>
      </trkpt>
      <trkpt lat="43.69868" lon="5.83633">
        <ele>418</ele>
        <time>2016-04-17T06:36:10.000Z</time>
      </trkpt>
      <trkpt lat="43.69868" lon="5.83633">
        <ele>418</ele>
        <time>2016-04-17T06:36:12.000Z</time>
      </trkpt>
      <trkpt lat="43.69868" lon="5.83633">
        <ele>418</ele>
        <time>2016-04-17T06:36:14.000Z</time>
      </trkpt>
      <trkpt lat="43.69868" lon="5.83633">
        <ele>418</ele>
        <time>2016-04-17T06:36:16.000Z</time>
      </trkpt>
      <trkpt lat="43.69868" lon="5.83633">
        <ele>418</ele>
        <time>2016-04-17T06:36:18.000Z</time>
      </trkpt>
      <trkpt lat="43.69868" lon="5.83633">
        <ele>418</ele>
        <time>2016-04-17T06:36:20.000Z</time>
      </trkpt>
      <trkpt lat="43.69868" lon="5.83633">
        <ele>418</ele>
        <time>2016-04-17T06:36:22.000Z</time>
      </trkpt>
      <trkpt lat="43.69919" lon="5.83523">
        <ele>411</ele>
        <time>2016-04-17T06:36:25.000Z</time>
      </trkpt>
      <trkpt lat="43.69936" lon="5.83508">
        <ele>410</ele>
        <time>2016-04-17T06:36:28.000Z</time>
      </trkpt>
      <trkpt lat="43.69946" lon="5.83511">
        <ele>410</ele>
        <time>2016-04-17T06:36:30.000Z</time>
      </trkpt>
      <trkpt lat="43.69954" lon="5.83515">
        <ele>409</ele>
        <time>2016-04-17T06:36:32.000Z</time>
      </trkpt>
      <trkpt lat="43.69963" lon="5.83514">
        <ele>408</ele>
        <time>2016-04-17T06:36:34.000Z</time>
      </trkpt>
      <trkpt lat="43.69973" lon="5.83508">
        <ele>408</ele>
        <time>2016-04-17T06:36:36.000Z</time>
      </trkpt>
      <trkpt lat="43.69981" lon="5.83509">
        <ele>408</ele>
        <time>2016-04-17T06:36:38.000Z</time>
      </trkpt>
      <trkpt lat="43.69994" lon="5.83507">
        <ele>407</ele>
        <time>2016-04-17T06:36:40.000Z</time>
      </trkpt>
      <trkpt lat="43.70007" lon="5.83507">
        <ele>407</ele>
        <time>2016-04-17T06:36:42.000Z</time>
      </trkpt>
      <trkpt lat="43.70007" lon="5.83507">
        <ele>407</ele>
        <time>2016-04-17T06:36:46.000Z</time>
      </trkpt>
      <trkpt lat="43.70007" lon="5.83507">
        <ele>407</ele>
        <time>2016-04-17T06:36:48.000Z</time>
      </trkpt>
      <trkpt lat="43.70007" lon="5.83507">
        <ele>407</ele>
        <time>2016-04-17T06:36:50.000Z</time>
      </trkpt>
      <trkpt lat="43.70007" lon="5.83507">
        <ele>407</ele>
        <time>2016-04-17T06:36:52.000Z</time>
      </trkpt>
      <trkpt lat="43.70007" lon="5.83507">
        <ele>407</ele>
        <time>2016-04-17T06:36:54.000Z</time>
      </trkpt>
      <trkpt lat="43.70007" lon="5.83507">
        <ele>407</ele>
        <time>2016-04-17T06:36:56.000Z</time>
      </trkpt>
      <trkpt lat="43.70007" lon="5.83507">
        <ele>407</ele>
        <time>2016-04-17T06:36:58.000Z</time>
      </trkpt>
      <trkpt lat="43.70007" lon="5.83507">
        <ele>407</ele>
        <time>2016-04-17T06:37:00.000Z</time>
      </trkpt>
      <trkpt lat="43.70007" lon="5.83507">
        <ele>407</ele>
        <time>2016-04-17T06:37:02.000Z</time>
      </trkpt>
      <trkpt lat="43.70007" lon="5.83507">
        <ele>407</ele>
        <time>2016-04-17T06:37:04.000Z</time>
      </trkpt>
      <trkpt lat="43.70007" lon="5.83507">
        <ele>407</ele>
        <time>2016-04-17T06:37:06.000Z</time>
      </trkpt>
      <trkpt lat="43.70007" lon="5.83507">
        <ele>407</ele>
        <time>2016-04-17T06:37:08.000Z</time>
      </trkpt>
      <trkpt lat="43.70007" lon="5.83507">
        <ele>407</ele>
        <time>2016-04-17T06:37:10.000Z</time>
      </trkpt>
      <trkpt lat="43.70007" lon="5.83507">
        <ele>407</ele>
        <time>2016-04-17T06:37:12.000Z</time>
      </trkpt>
      <trkpt lat="43.70007" lon="5.83507">
        <ele>407</ele>
        <time>2016-04-17T06:37:14.000Z</time>
      </trkpt>
      <trkpt lat="43.70007" lon="5.83507">
        <ele>407</ele>
        <time>2016-04-17T06:37:16.000Z</time>
      </trkpt>
      <trkpt lat="43.70007" lon="5.83507">
        <ele>407</ele>
        <time>2016-04-17T06:37:18.000Z</time>
      </trkpt>
      <trkpt lat="43.70007" lon="5.83507">
        <ele>407</ele>
        <time>2016-04-17T06:37:20.000Z</time>
      </trkpt>
      <trkpt lat="43.70007" lon="5.83507">
        <ele>407</ele>
        <time>2016-04-17T06:37:22.000Z</time>
      </trkpt>
      <trkpt lat="43.70007" lon="5.83507">
        <ele>407</ele>
        <time>2016-04-17T06:37:24.000Z</time>
      </trkpt>
      <trkpt lat="43.70068" lon="5.83517">
        <ele>412</ele>
        <time>2016-04-17T06:37:54.000Z</time>
      </trkpt>
      <trkpt lat="43.70068" lon="5.83517">
        <ele>412</ele>
        <time>2016-04-17T06:38:00.000Z</time>
      </trkpt>
      <trkpt lat="43.70068" lon="5.83517">
        <ele>412</ele>
        <time>2016-04-17T06:38:02.000Z</time>
      </trkpt>
      <trkpt lat="43.70068" lon="5.83517">
        <ele>412</ele>
        <time>2016-04-17T06:38:04.000Z</time>
      </trkpt>
      <trkpt lat="43.70083" lon="5.83513">
        <ele>414</ele>
        <time>2016-04-17T06:38:20.000Z</time>
      </trkpt>
      <trkpt lat="43.70083" lon="5.83513">
        <ele>414</ele>
        <time>2016-04-17T06:38:26.000Z</time>
      </trkpt>
      <trkpt lat="43.70083" lon="5.83513">
        <ele>414</ele>
        <time>2016-04-17T06:38:28.000Z</time>
      </trkpt>
      <trkpt lat="43.70083" lon="5.83513">
        <ele>414</ele>
        <time>2016-04-17T06:38:30.000Z</time>
      </trkpt>
      <trkpt lat="43.70101" lon="5.83506">
        <ele>424</ele>
        <time>2016-04-17T06:38:56.000Z</time>
      </trkpt>
      <trkpt lat="43.70111" lon="5.83504">
        <ele>428</ele>
        <time>2016-04-17T06:39:04.000Z</time>
      </trkpt>
      <trkpt lat="43.70123" lon="5.83501">
        <ele>422</ele>
        <time>2016-04-17T06:39:12.000Z</time>
      </trkpt>
      <trkpt lat="43.70129" lon="5.83491">
        <ele>422</ele>
        <time>2016-04-17T06:39:16.000Z</time>
      </trkpt>
      <trkpt lat="43.70131" lon="5.83471">
        <ele>419</ele>
        <time>2016-04-17T06:39:22.000Z</time>
      </trkpt>
      <trkpt lat="43.70136" lon="5.83454">
        <ele>418</ele>
        <time>2016-04-17T06:39:26.000Z</time>
      </trkpt>
      <trkpt lat="43.70146" lon="5.83438">
        <ele>418</ele>
        <time>2016-04-17T06:39:30.000Z</time>
      </trkpt>
      <trkpt lat="43.70156" lon="5.83423">
        <ele>419</ele>
        <time>2016-04-17T06:39:34.000Z</time>
      </trkpt>
      <trkpt lat="43.70169" lon="5.83413">
        <ele>419</ele>
        <time>2016-04-17T06:39:38.000Z</time>
      </trkpt>
      <trkpt lat="43.70184" lon="5.83395">
        <ele>417</ele>
        <time>2016-04-17T06:39:42.000Z</time>
      </trkpt>
      <trkpt lat="43.70192" lon="5.83383">
        <ele>418</ele>
        <time>2016-04-17T06:39:44.000Z</time>
      </trkpt>
      <trkpt lat="43.702" lon="5.8337">
        <ele>418</ele>
        <time>2016-04-17T06:39:46.000Z</time>
      </trkpt>
      <trkpt lat="43.70205" lon="5.83356">
        <ele>418</ele>
        <time>2016-04-17T06:39:48.000Z</time>
      </trkpt>
      <trkpt lat="43.70213" lon="5.83346">
        <ele>416</ele>
        <time>2016-04-17T06:39:50.000Z</time>
      </trkpt>
      <trkpt lat="43.70221" lon="5.83337">
        <ele>416</ele>
        <time>2016-04-17T06:39:52.000Z</time>
      </trkpt>
      <trkpt lat="43.70229" lon="5.83327">
        <ele>417</ele>
        <time>2016-04-17T06:39:54.000Z</time>
      </trkpt>
      <trkpt lat="43.70238" lon="5.83319">
        <ele>415</ele>
        <time>2016-04-17T06:39:56.000Z</time>
      </trkpt>
      <trkpt lat="43.70238" lon="5.83319">
        <ele>415</ele>
        <time>2016-04-17T06:39:58.000Z</time>
      </trkpt>
      <trkpt lat="43.70238" lon="5.83319">
        <ele>415</ele>
        <time>2016-04-17T06:40:00.000Z</time>
      </trkpt>
      <trkpt lat="43.70238" lon="5.83319">
        <ele>415</ele>
        <time>2016-04-17T06:40:02.000Z</time>
      </trkpt>
      <trkpt lat="43.70238" lon="5.83319">
        <ele>415</ele>
        <time>2016-04-17T06:40:04.000Z</time>
      </trkpt>
      <trkpt lat="43.70238" lon="5.83319">
        <ele>415</ele>
        <time>2016-04-17T06:40:06.000Z</time>
      </trkpt>
      <trkpt lat="43.70238" lon="5.83319">
        <ele>415</ele>
        <time>2016-04-17T06:40:08.000Z</time>
      </trkpt>
      <trkpt lat="43.70238" lon="5.83319">
        <ele>415</ele>
        <time>2016-04-17T06:40:10.000Z</time>
      </trkpt>
      <trkpt lat="43.703" lon="5.83256">
        <ele>410</ele>
        <time>2016-04-17T06:40:12.000Z</time>
      </trkpt>
      <trkpt lat="43.70309" lon="5.83249">
        <ele>409</ele>
        <time>2016-04-17T06:40:14.000Z</time>
      </trkpt>
      <trkpt lat="43.70319" lon="5.83239">
        <ele>409</ele>
        <time>2016-04-17T06:40:16.000Z</time>
      </trkpt>
      <trkpt lat="43.7033" lon="5.83231">
        <ele>409</ele>
        <time>2016-04-17T06:40:18.000Z</time>
      </trkpt>
      <trkpt lat="43.70341" lon="5.83223">
        <ele>408</ele>
        <time>2016-04-17T06:40:20.000Z</time>
      </trkpt>
      <trkpt lat="43.70351" lon="5.83215">
        <ele>407</ele>
        <time>2016-04-17T06:40:22.000Z</time>
      </trkpt>
      <trkpt lat="43.7036" lon="5.83213">
        <ele>408</ele>
        <time>2016-04-17T06:40:24.000Z</time>
      </trkpt>
      <trkpt lat="43.7036" lon="5.83213">
        <ele>408</ele>
        <time>2016-04-17T06:40:26.000Z</time>
      </trkpt>
      <trkpt lat="43.7036" lon="5.83213">
        <ele>408</ele>
        <time>2016-04-17T06:40:28.000Z</time>
      </trkpt>
      <trkpt lat="43.7036" lon="5.83213">
        <ele>408</ele>
        <time>2016-04-17T06:40:30.000Z</time>
      </trkpt>
      <trkpt lat="43.7041" lon="5.83232">
        <ele>402</ele>
        <time>2016-04-17T06:40:36.000Z</time>
      </trkpt>
      <trkpt lat="43.7041" lon="5.83232">
        <ele>402</ele>
        <time>2016-04-17T06:40:38.000Z</time>
      </trkpt>
      <trkpt lat="43.7041" lon="5.83232">
        <ele>402</ele>
        <time>2016-04-17T06:40:40.000Z</time>
      </trkpt>
      <trkpt lat="43.7041" lon="5.83232">
        <ele>402</ele>
        <time>2016-04-17T06:40:42.000Z</time>
      </trkpt>
      <trkpt lat="43.7041" lon="5.83232">
        <ele>402</ele>
        <time>2016-04-17T06:40:44.000Z</time>
      </trkpt>
      <trkpt lat="43.70417" lon="5.83245">
        <ele>406</ele>
        <time>2016-04-17T06:40:50.000Z</time>
      </trkpt>
      <trkpt lat="43.70423" lon="5.83256">
        <ele>406</ele>
        <time>2016-04-17T06:40:52.000Z</time>
      </trkpt>
      <trkpt lat="43.70428" lon="5.83265">
        <ele>406</ele>
        <time>2016-04-17T06:40:54.000Z</time>
      </trkpt>
      <trkpt lat="43.70433" lon="5.83272">
        <ele>406</ele>
        <time>2016-04-17T06:40:56.000Z</time>
      </trkpt>
      <trkpt lat="43.70433" lon="5.83272">
        <ele>406</ele>
        <time>2016-04-17T06:40:58.000Z</time>
      </trkpt>
      <trkpt lat="43.70433" lon="5.83272">
        <ele>406</ele>
        <time>2016-04-17T06:41:00.000Z</time>
      </trkpt>
      <trkpt lat="43.70433" lon="5.83272">
        <ele>406</ele>
        <time>2016-04-17T06:41:02.000Z</time>
      </trkpt>
      <trkpt lat="43.70433" lon="5.83272">
        <ele>406</ele>
        <time>2016-04-17T06:41:04.000Z</time>
      </trkpt>
      <trkpt lat="43.70433" lon="5.83272">
        <ele>406</ele>
        <time>2016-04-17T06:41:06.000Z</time>
      </trkpt>
      <trkpt lat="43.70433" lon="5.83272">
        <ele>406</ele>
        <time>2016-04-17T06:41:08.000Z</time>
      </trkpt>
      <trkpt lat="43.70433" lon="5.83272">
        <ele>406</ele>
        <time>2016-04-17T06:41:10.000Z</time>
      </trkpt>
      <trkpt lat="43.70433" lon="5.83272">
        <ele>406</ele>
        <time>2016-04-17T06:41:12.000Z</time>
      </trkpt>
      <trkpt lat="43.70433" lon="5.83272">
        <ele>406</ele>
        <time>2016-04-17T06:41:14.000Z</time>
      </trkpt>
      <trkpt lat="43.70433" lon="5.83272">
        <ele>406</ele>
        <time>2016-04-17T06:41:16.000Z</time>
      </trkpt>
      <trkpt lat="43.70455" lon="5.83295">
        <ele>409</ele>
        <time>2016-04-17T06:41:20.000Z</time>
      </trkpt>
      <trkpt lat="43.70468" lon="5.83307">
        <ele>409</ele>
        <time>2016-04-17T06:41:22.000Z</time>
      </trkpt>
      <trkpt lat="43.70477" lon="5.83316">
        <ele>409</ele>
        <time>2016-04-17T06:41:24.000Z</time>
      </trkpt>
      <trkpt lat="43.70483" lon="5.83322">
        <ele>408</ele>
        <time>2016-04-17T06:41:26.000Z</time>
      </trkpt>
      <trkpt lat="43.70489" lon="5.83327">
        <ele>408</ele>
        <time>2016-04-17T06:41:28.000Z</time>
      </trkpt>
      <trkpt lat="43.70501" lon="5.83333">
        <ele>408</ele>
        <time>2016-04-17T06:41:30.000Z</time>
      </trkpt>
      <trkpt lat="43.70518" lon="5.83342">
        <ele>406</ele>
        <time>2016-04-17T06:41:34.000Z</time>
      </trkpt>
      <trkpt lat="43.70526" lon="5.8335">
        <ele>406</ele>
        <time>2016-04-17T06:41:36.000Z</time>
      </trkpt>
      <trkpt lat="43.70533" lon="5.8336">
        <ele>404</ele>
        <time>2016-04-17T06:41:38.000Z</time>
      </trkpt>
      <trkpt lat="43.70533" lon="5.8338">
        <ele>404</ele>
        <time>2016-04-17T06:41:42.000Z</time>
      </trkpt>
      <trkpt lat="43.70533" lon="5.8338">
        <ele>404</ele>
        <time>2016-04-17T06:41:44.000Z</time>
      </trkpt>
      <trkpt lat="43.70533" lon="5.8338">
        <ele>404</ele>
        <time>2016-04-17T06:41:46.000Z</time>
      </trkpt>
      <trkpt lat="43.70533" lon="5.8338">
        <ele>404</ele>
        <time>2016-04-17T06:41:48.000Z</time>
      </trkpt>
      <trkpt lat="43.70533" lon="5.8338">
        <ele>404</ele>
        <time>2016-04-17T06:41:50.000Z</time>
      </trkpt>
      <trkpt lat="43.70533" lon="5.8338">
        <ele>404</ele>
        <time>2016-04-17T06:41:52.000Z</time>
      </trkpt>
      <trkpt lat="43.70533" lon="5.8338">
        <ele>404</ele>
        <time>2016-04-17T06:41:54.000Z</time>
      </trkpt>
      <trkpt lat="43.70533" lon="5.8338">
        <ele>404</ele>
        <time>2016-04-17T06:41:56.000Z</time>
      </trkpt>
      <trkpt lat="43.70533" lon="5.8338">
        <ele>404</ele>
        <time>2016-04-17T06:41:58.000Z</time>
      </trkpt>
      <trkpt lat="43.70533" lon="5.8338">
        <ele>404</ele>
        <time>2016-04-17T06:42:00.000Z</time>
      </trkpt>
      <trkpt lat="43.70533" lon="5.8338">
        <ele>404</ele>
        <time>2016-04-17T06:42:02.000Z</time>
      </trkpt>
      <trkpt lat="43.70517" lon="5.83449">
        <ele>418</ele>
        <time>2016-04-17T06:42:06.000Z</time>
      </trkpt>
      <trkpt lat="43.70514" lon="5.83466">
        <ele>415</ele>
        <time>2016-04-17T06:42:10.000Z</time>
      </trkpt>
      <trkpt lat="43.70511" lon="5.83482">
        <ele>413</ele>
        <time>2016-04-17T06:42:14.000Z</time>
      </trkpt>
      <trkpt lat="43.70511" lon="5.83482">
        <ele>413</ele>
        <time>2016-04-17T06:42:16.000Z</time>
      </trkpt>
      <trkpt lat="43.70501" lon="5.83496">
        <ele>411</ele>
        <time>2016-04-17T06:42:18.000Z</time>
      </trkpt>
      <trkpt lat="43.70493" lon="5.83512">
        <ele>415</ele>
        <time>2016-04-17T06:42:22.000Z</time>
      </trkpt>
      <trkpt lat="43.70493" lon="5.83512">
        <ele>415</ele>
        <time>2016-04-17T06:42:24.000Z</time>
      </trkpt>
      <trkpt lat="43.70493" lon="5.83512">
        <ele>415</ele>
        <time>2016-04-17T06:42:26.000Z</time>
      </trkpt>
      <trkpt lat="43.70493" lon="5.83512">
        <ele>415</ele>
        <time>2016-04-17T06:42:28.000Z</time>
      </trkpt>
      <trkpt lat="43.70493" lon="5.83512">
        <ele>415</ele>
        <time>2016-04-17T06:42:30.000Z</time>
      </trkpt>
      <trkpt lat="43.70493" lon="5.83512">
        <ele>415</ele>
        <time>2016-04-17T06:42:34.000Z</time>
      </trkpt>
      <trkpt lat="43.70493" lon="5.83512">
        <ele>415</ele>
        <time>2016-04-17T06:42:36.000Z</time>
      </trkpt>
      <trkpt lat="43.70493" lon="5.83512">
        <ele>415</ele>
        <time>2016-04-17T06:42:38.000Z</time>
      </trkpt>
      <trkpt lat="43.70493" lon="5.83512">
        <ele>415</ele>
        <time>2016-04-17T06:42:40.000Z</time>
      </trkpt>
      <trkpt lat="43.70493" lon="5.83512">
        <ele>415</ele>
        <time>2016-04-17T06:42:42.000Z</time>
      </trkpt>
      <trkpt lat="43.70493" lon="5.83512">
        <ele>415</ele>
        <time>2016-04-17T06:42:44.000Z</time>
      </trkpt>
      <trkpt lat="43.70493" lon="5.83512">
        <ele>415</ele>
        <time>2016-04-17T06:42:46.000Z</time>
      </trkpt>
      <trkpt lat="43.70493" lon="5.83512">
        <ele>415</ele>
        <time>2016-04-17T06:42:48.000Z</time>
      </trkpt>
      <trkpt lat="43.70493" lon="5.83512">
        <ele>415</ele>
        <time>2016-04-17T06:42:50.000Z</time>
      </trkpt>
      <trkpt lat="43.70493" lon="5.83512">
        <ele>415</ele>
        <time>2016-04-17T06:42:52.000Z</time>
      </trkpt>
      <trkpt lat="43.70493" lon="5.83512">
        <ele>415</ele>
        <time>2016-04-17T06:42:54.000Z</time>
      </trkpt>
      <trkpt lat="43.70493" lon="5.83512">
        <ele>415</ele>
        <time>2016-04-17T06:42:56.000Z</time>
      </trkpt>
      <trkpt lat="43.70493" lon="5.83512">
        <ele>415</ele>
        <time>2016-04-17T06:42:58.000Z</time>
      </trkpt>
      <trkpt lat="43.70493" lon="5.83512">
        <ele>415</ele>
        <time>2016-04-17T06:43:00.000Z</time>
      </trkpt>
      <trkpt lat="43.70493" lon="5.83512">
        <ele>415</ele>
        <time>2016-04-17T06:43:02.000Z</time>
      </trkpt>
      <trkpt lat="43.70493" lon="5.83512">
        <ele>415</ele>
        <time>2016-04-17T06:43:04.000Z</time>
      </trkpt>
      <trkpt lat="43.70493" lon="5.83512">
        <ele>415</ele>
        <time>2016-04-17T06:43:06.000Z</time>
      </trkpt>
      <trkpt lat="43.70493" lon="5.83512">
        <ele>415</ele>
        <time>2016-04-17T06:43:08.000Z</time>
      </trkpt>
      <trkpt lat="43.70493" lon="5.83512">
        <ele>415</ele>
        <time>2016-04-17T06:43:10.000Z</time>
      </trkpt>
      <trkpt lat="43.70493" lon="5.83512">
        <ele>415</ele>
        <time>2016-04-17T06:43:12.000Z</time>
      </trkpt>
      <trkpt lat="43.70493" lon="5.83512">
        <ele>415</ele>
        <time>2016-04-17T06:43:14.000Z</time>
      </trkpt>
      <trkpt lat="43.70493" lon="5.83512">
        <ele>415</ele>
        <time>2016-04-17T06:43:16.000Z</time>
      </trkpt>
      <trkpt lat="43.70493" lon="5.83512">
        <ele>415</ele>
        <time>2016-04-17T06:43:18.000Z</time>
      </trkpt>
      <trkpt lat="43.70493" lon="5.83512">
        <ele>415</ele>
        <time>2016-04-17T06:43:20.000Z</time>
      </trkpt>
      <trkpt lat="43.70493" lon="5.83512">
        <ele>415</ele>
        <time>2016-04-17T06:43:22.000Z</time>
      </trkpt>
      <trkpt lat="43.70529" lon="5.83585">
        <ele>421</ele>
        <time>2016-04-17T06:43:32.000Z</time>
      </trkpt>
      <trkpt lat="43.70546" lon="5.83625">
        <ele>422</ele>
        <time>2016-04-17T06:43:34.000Z</time>
      </trkpt>
      <trkpt lat="43.70554" lon="5.83648">
        <ele>421</ele>
        <time>2016-04-17T06:43:36.000Z</time>
      </trkpt>
      <trkpt lat="43.70557" lon="5.83663">
        <ele>422</ele>
        <time>2016-04-17T06:43:38.000Z</time>
      </trkpt>
      <trkpt lat="43.70557" lon="5.83674">
        <ele>422</ele>
        <time>2016-04-17T06:43:40.000Z</time>
      </trkpt>
      <trkpt lat="43.70554" lon="5.83695">
        <ele>423</ele>
        <time>2016-04-17T06:43:42.000Z</time>
      </trkpt>
      <trkpt lat="43.70549" lon="5.83713">
        <ele>423</ele>
        <time>2016-04-17T06:43:46.000Z</time>
      </trkpt>
      <trkpt lat="43.70549" lon="5.83732">
        <ele>419</ele>
        <time>2016-04-17T06:43:50.000Z</time>
      </trkpt>
      <trkpt lat="43.70549" lon="5.83732">
        <ele>419</ele>
        <time>2016-04-17T06:43:52.000Z</time>
      </trkpt>
      <trkpt lat="43.70549" lon="5.83732">
        <ele>419</ele>
        <time>2016-04-17T06:43:54.000Z</time>
      </trkpt>
      <trkpt lat="43.70549" lon="5.83732">
        <ele>419</ele>
        <time>2016-04-17T06:43:56.000Z</time>
      </trkpt>
      <trkpt lat="43.70549" lon="5.83732">
        <ele>419</ele>
        <time>2016-04-17T06:43:58.000Z</time>
      </trkpt>
      <trkpt lat="43.7056" lon="5.83772">
        <ele>419</ele>
        <time>2016-04-17T06:44:02.000Z</time>
      </trkpt>
      <trkpt lat="43.7056" lon="5.8379">
        <ele>421</ele>
        <time>2016-04-17T06:44:06.000Z</time>
      </trkpt>
      <trkpt lat="43.70557" lon="5.83808">
        <ele>421</ele>
        <time>2016-04-17T06:44:10.000Z</time>
      </trkpt>
      <trkpt lat="43.70557" lon="5.83808">
        <ele>421</ele>
        <time>2016-04-17T06:44:12.000Z</time>
      </trkpt>
      <trkpt lat="43.70557" lon="5.83808">
        <ele>421</ele>
        <time>2016-04-17T06:44:14.000Z</time>
      </trkpt>
      <trkpt lat="43.70557" lon="5.83808">
        <ele>421</ele>
        <time>2016-04-17T06:44:16.000Z</time>
      </trkpt>
      <trkpt lat="43.70557" lon="5.83808">
        <ele>421</ele>
        <time>2016-04-17T06:44:18.000Z</time>
      </trkpt>
      <trkpt lat="43.70557" lon="5.83808">
        <ele>421</ele>
        <time>2016-04-17T06:44:20.000Z</time>
      </trkpt>
      <trkpt lat="43.70557" lon="5.83808">
        <ele>421</ele>
        <time>2016-04-17T06:44:22.000Z</time>
      </trkpt>
      <trkpt lat="43.70557" lon="5.83808">
        <ele>421</ele>
        <time>2016-04-17T06:44:24.000Z</time>
      </trkpt>
      <trkpt lat="43.70557" lon="5.83808">
        <ele>421</ele>
        <time>2016-04-17T06:44:26.000Z</time>
      </trkpt>
      <trkpt lat="43.70557" lon="5.83808">
        <ele>421</ele>
        <time>2016-04-17T06:44:28.000Z</time>
      </trkpt>
      <trkpt lat="43.70557" lon="5.83808">
        <ele>421</ele>
        <time>2016-04-17T06:44:30.000Z</time>
      </trkpt>
      <trkpt lat="43.70557" lon="5.83808">
        <ele>421</ele>
        <time>2016-04-17T06:44:32.000Z</time>
      </trkpt>
      <trkpt lat="43.70557" lon="5.83808">
        <ele>421</ele>
        <time>2016-04-17T06:44:34.000Z</time>
      </trkpt>
      <trkpt lat="43.7052" lon="5.83837">
        <ele>421</ele>
        <time>2016-04-17T06:44:38.000Z</time>
      </trkpt>
      <trkpt lat="43.70512" lon="5.83845">
        <ele>427</ele>
        <time>2016-04-17T06:44:44.000Z</time>
      </trkpt>
      <trkpt lat="43.70504" lon="5.83855">
        <ele>428</ele>
        <time>2016-04-17T06:44:50.000Z</time>
      </trkpt>
      <trkpt lat="43.70494" lon="5.83862">
        <ele>431</ele>
        <time>2016-04-17T06:44:56.000Z</time>
      </trkpt>
      <trkpt lat="43.70494" lon="5.83862">
        <ele>431</ele>
        <time>2016-04-17T06:44:58.000Z</time>
      </trkpt>
      <trkpt lat="43.70494" lon="5.83862">
        <ele>431</ele>
        <time>2016-04-17T06:45:00.000Z</time>
      </trkpt>
      <trkpt lat="43.70494" lon="5.83862">
        <ele>431</ele>
        <time>2016-04-17T06:45:02.000Z</time>
      </trkpt>
      <trkpt lat="43.70494" lon="5.83862">
        <ele>431</ele>
        <time>2016-04-17T06:45:04.000Z</time>
      </trkpt>
      <trkpt lat="43.70494" lon="5.83862">
        <ele>431</ele>
        <time>2016-04-17T06:45:06.000Z</time>
      </trkpt>
      <trkpt lat="43.70494" lon="5.83862">
        <ele>431</ele>
        <time>2016-04-17T06:45:08.000Z</time>
      </trkpt>
      <trkpt lat="43.70494" lon="5.83862">
        <ele>431</ele>
        <time>2016-04-17T06:45:10.000Z</time>
      </trkpt>
      <trkpt lat="43.70494" lon="5.83862">
        <ele>431</ele>
        <time>2016-04-17T06:45:12.000Z</time>
      </trkpt>
      <trkpt lat="43.70494" lon="5.83862">
        <ele>431</ele>
        <time>2016-04-17T06:45:14.000Z</time>
      </trkpt>
      <trkpt lat="43.70494" lon="5.83862">
        <ele>431</ele>
        <time>2016-04-17T06:45:16.000Z</time>
      </trkpt>
      <trkpt lat="43.70494" lon="5.83862">
        <ele>431</ele>
        <time>2016-04-17T06:45:18.000Z</time>
      </trkpt>
      <trkpt lat="43.70494" lon="5.83862">
        <ele>431</ele>
        <time>2016-04-17T06:45:20.000Z</time>
      </trkpt>
      <trkpt lat="43.70494" lon="5.83862">
        <ele>431</ele>
        <time>2016-04-17T06:45:22.000Z</time>
      </trkpt>
      <trkpt lat="43.70494" lon="5.83862">
        <ele>431</ele>
        <time>2016-04-17T06:45:24.000Z</time>
      </trkpt>
      <trkpt lat="43.70494" lon="5.83862">
        <ele>431</ele>
        <time>2016-04-17T06:45:26.000Z</time>
      </trkpt>
      <trkpt lat="43.70494" lon="5.83862">
        <ele>431</ele>
        <time>2016-04-17T06:45:28.000Z</time>
      </trkpt>
      <trkpt lat="43.70494" lon="5.83862">
        <ele>431</ele>
        <time>2016-04-17T06:45:30.000Z</time>
      </trkpt>
      <trkpt lat="43.70494" lon="5.83862">
        <ele>431</ele>
        <time>2016-04-17T06:45:32.000Z</time>
      </trkpt>
      <trkpt lat="43.70494" lon="5.83862">
        <ele>431</ele>
        <time>2016-04-17T06:45:34.000Z</time>
      </trkpt>
      <trkpt lat="43.70494" lon="5.83862">
        <ele>431</ele>
        <time>2016-04-17T06:45:36.000Z</time>
      </trkpt>
      <trkpt lat="43.70494" lon="5.83862">
        <ele>431</ele>
        <time>2016-04-17T06:45:38.000Z</time>
      </trkpt>
      <trkpt lat="43.70494" lon="5.83862">
        <ele>431</ele>
        <time>2016-04-17T06:45:40.000Z</time>
      </trkpt>
      <trkpt lat="43.70494" lon="5.83862">
        <ele>431</ele>
        <time>2016-04-17T06:45:42.000Z</time>
      </trkpt>
      <trkpt lat="43.70494" lon="5.83862">
        <ele>431</ele>
        <time>2016-04-17T06:45:44.000Z</time>
      </trkpt>
      <trkpt lat="43.70494" lon="5.83862">
        <ele>431</ele>
        <time>2016-04-17T06:45:46.000Z</time>
      </trkpt>
      <trkpt lat="43.70494" lon="5.83862">
        <ele>431</ele>
        <time>2016-04-17T06:45:48.000Z</time>
      </trkpt>
      <trkpt lat="43.70494" lon="5.83862">
        <ele>431</ele>
        <time>2016-04-17T06:45:50.000Z</time>
      </trkpt>
      <trkpt lat="43.70494" lon="5.83862">
        <ele>431</ele>
        <time>2016-04-17T06:45:52.000Z</time>
      </trkpt>
      <trkpt lat="43.70423" lon="5.83937">
        <ele>428</ele>
        <time>2016-04-17T06:46:03.000Z</time>
      </trkpt>
      <trkpt lat="43.70411" lon="5.83946">
        <ele>428</ele>
        <time>2016-04-17T06:46:07.000Z</time>
      </trkpt>
      <trkpt lat="43.70411" lon="5.83946">
        <ele>428</ele>
        <time>2016-04-17T06:46:09.000Z</time>
      </trkpt>
      <trkpt lat="43.70411" lon="5.83946">
        <ele>428</ele>
        <time>2016-04-17T06:46:11.000Z</time>
      </trkpt>
      <trkpt lat="43.70411" lon="5.83946">
        <ele>428</ele>
        <time>2016-04-17T06:46:13.000Z</time>
      </trkpt>
      <trkpt lat="43.70411" lon="5.83946">
        <ele>428</ele>
        <time>2016-04-17T06:46:15.000Z</time>
      </trkpt>
      <trkpt lat="43.70411" lon="5.83946">
        <ele>428</ele>
        <time>2016-04-17T06:46:17.000Z</time>
      </trkpt>
      <trkpt lat="43.70411" lon="5.83946">
        <ele>428</ele>
        <time>2016-04-17T06:46:19.000Z</time>
      </trkpt>
      <trkpt lat="43.70411" lon="5.83946">
        <ele>428</ele>
        <time>2016-04-17T06:46:21.000Z</time>
      </trkpt>
      <trkpt lat="43.70411" lon="5.83946">
        <ele>428</ele>
        <time>2016-04-17T06:46:23.000Z</time>
      </trkpt>
      <trkpt lat="43.70411" lon="5.83946">
        <ele>428</ele>
        <time>2016-04-17T06:46:25.000Z</time>
      </trkpt>
      <trkpt lat="43.70411" lon="5.83946">
        <ele>428</ele>
        <time>2016-04-17T06:46:27.000Z</time>
      </trkpt>
      <trkpt lat="43.70411" lon="5.83946">
        <ele>428</ele>
        <time>2016-04-17T06:46:29.000Z</time>
      </trkpt>
      <trkpt lat="43.70411" lon="5.83946">
        <ele>428</ele>
        <time>2016-04-17T06:46:31.000Z</time>
      </trkpt>
      <trkpt lat="43.70411" lon="5.83946">
        <ele>428</ele>
        <time>2016-04-17T06:46:33.000Z</time>
      </trkpt>
      <trkpt lat="43.70411" lon="5.83946">
        <ele>428</ele>
        <time>2016-04-17T06:46:35.000Z</time>
      </trkpt>
      <trkpt lat="43.70411" lon="5.83946">
        <ele>428</ele>
        <time>2016-04-17T06:46:37.000Z</time>
      </trkpt>
      <trkpt lat="43.70411" lon="5.83946">
        <ele>428</ele>
        <time>2016-04-17T06:46:39.000Z</time>
      </trkpt>
      <trkpt lat="43.70411" lon="5.83946">
        <ele>428</ele>
        <time>2016-04-17T06:46:41.000Z</time>
      </trkpt>
      <trkpt lat="43.70411" lon="5.83946">
        <ele>428</ele>
        <time>2016-04-17T06:46:43.000Z</time>
      </trkpt>
      <trkpt lat="43.70411" lon="5.83946">
        <ele>428</ele>
        <time>2016-04-17T06:46:45.000Z</time>
      </trkpt>
      <trkpt lat="43.70411" lon="5.83946">
        <ele>428</ele>
        <time>2016-04-17T06:46:47.000Z</time>
      </trkpt>
      <trkpt lat="43.70411" lon="5.83946">
        <ele>428</ele>
        <time>2016-04-17T06:46:49.000Z</time>
      </trkpt>
      <trkpt lat="43.70411" lon="5.83946">
        <ele>428</ele>
        <time>2016-04-17T06:46:51.000Z</time>
      </trkpt>
      <trkpt lat="43.70411" lon="5.83946">
        <ele>428</ele>
        <time>2016-04-17T06:46:53.000Z</time>
      </trkpt>
      <trkpt lat="43.70411" lon="5.83946">
        <ele>428</ele>
        <time>2016-04-17T06:46:55.000Z</time>
      </trkpt>
      <trkpt lat="43.70333" lon="5.83969">
        <ele>434</ele>
        <time>2016-04-17T06:46:57.000Z</time>
      </trkpt>
      <trkpt lat="43.70324" lon="5.83972">
        <ele>434</ele>
        <time>2016-04-17T06:47:03.000Z</time>
      </trkpt>
      <trkpt lat="43.70315" lon="5.83975">
        <ele>435</ele>
        <time>2016-04-17T06:47:09.000Z</time>
      </trkpt>
      <trkpt lat="43.7031" lon="5.83975">
        <ele>434</ele>
        <time>2016-04-17T06:47:15.000Z</time>
      </trkpt>
      <trkpt lat="43.70304" lon="5.83975">
        <ele>435</ele>
        <time>2016-04-17T06:47:19.000Z</time>
      </trkpt>
      <trkpt lat="43.70298" lon="5.83975">
        <ele>436</ele>
        <time>2016-04-17T06:47:23.000Z</time>
      </trkpt>
      <trkpt lat="43.70294" lon="5.83976">
        <ele>437</ele>
        <time>2016-04-17T06:47:25.000Z</time>
      </trkpt>
      <trkpt lat="43.70288" lon="5.83976">
        <ele>437</ele>
        <time>2016-04-17T06:47:29.000Z</time>
      </trkpt>
      <trkpt lat="43.70284" lon="5.83976">
        <ele>437</ele>
        <time>2016-04-17T06:47:31.000Z</time>
      </trkpt>
      <trkpt lat="43.70278" lon="5.83976">
        <ele>437</ele>
        <time>2016-04-17T06:47:35.000Z</time>
      </trkpt>
      <trkpt lat="43.70272" lon="5.83976">
        <ele>437</ele>
        <time>2016-04-17T06:47:39.000Z</time>
      </trkpt>
      <trkpt lat="43.70267" lon="5.83976">
        <ele>438</ele>
        <time>2016-04-17T06:47:41.000Z</time>
      </trkpt>
      <trkpt lat="43.70263" lon="5.83979">
        <ele>438</ele>
        <time>2016-04-17T06:47:45.000Z</time>
      </trkpt>
      <trkpt lat="43.70258" lon="5.83983">
        <ele>441</ele>
        <time>2016-04-17T06:47:49.000Z</time>
      </trkpt>
      <trkpt lat="43.70253" lon="5.83988">
        <ele>441</ele>
        <time>2016-04-17T06:47:53.000Z</time>
      </trkpt>
      <trkpt lat="43.70253" lon="5.83988">
        <ele>441</ele>
        <time>2016-04-17T06:47:57.000Z</time>
      </trkpt>
      <trkpt lat="43.70253" lon="5.83988">
        <ele>441</ele>
        <time>2016-04-17T06:47:59.000Z</time>
      </trkpt>
      <trkpt lat="43.70253" lon="5.83988">
        <ele>441</ele>
        <time>2016-04-17T06:48:01.000Z</time>
      </trkpt>
      <trkpt lat="43.70253" lon="5.83988">
        <ele>441</ele>
        <time>2016-04-17T06:48:03.000Z</time>
      </trkpt>
      <trkpt lat="43.70244" lon="5.84002">
        <ele>449</ele>
        <time>2016-04-17T06:48:09.000Z</time>
      </trkpt>
      <trkpt lat="43.70244" lon="5.84002">
        <ele>449</ele>
        <time>2016-04-17T06:48:11.000Z</time>
      </trkpt>
      <trkpt lat="43.70244" lon="5.84002">
        <ele>449</ele>
        <time>2016-04-17T06:48:13.000Z</time>
      </trkpt>
      <trkpt lat="43.70244" lon="5.84002">
        <ele>449</ele>
        <time>2016-04-17T06:48:15.000Z</time>
      </trkpt>
      <trkpt lat="43.70244" lon="5.84002">
        <ele>449</ele>
        <time>2016-04-17T06:48:17.000Z</time>
      </trkpt>
      <trkpt lat="43.70244" lon="5.84002">
        <ele>449</ele>
        <time>2016-04-17T06:48:19.000Z</time>
      </trkpt>
      <trkpt lat="43.70244" lon="5.84002">
        <ele>449</ele>
        <time>2016-04-17T06:48:21.000Z</time>
      </trkpt>
      <trkpt lat="43.70244" lon="5.84002">
        <ele>449</ele>
        <time>2016-04-17T06:48:23.000Z</time>
      </trkpt>
      <trkpt lat="43.70244" lon="5.84002">
        <ele>449</ele>
        <time>2016-04-17T06:48:25.000Z</time>
      </trkpt>
      <trkpt lat="43.70244" lon="5.84002">
        <ele>449</ele>
        <time>2016-04-17T06:48:27.000Z</time>
      </trkpt>
      <trkpt lat="43.70244" lon="5.84002">
        <ele>449</ele>
        <time>2016-04-17T06:48:29.000Z</time>
      </trkpt>
      <trkpt lat="43.70244" lon="5.84002">
        <ele>449</ele>
        <time>2016-04-17T06:48:31.000Z</time>
      </trkpt>
      <trkpt lat="43.70244" lon="5.84002">
        <ele>449</ele>
        <time>2016-04-17T06:48:33.000Z</time>
      </trkpt>
      <trkpt lat="43.70244" lon="5.84002">
        <ele>449</ele>
        <time>2016-04-17T06:48:35.000Z</time>
      </trkpt>
      <trkpt lat="43.70244" lon="5.84002">
        <ele>449</ele>
        <time>2016-04-17T06:48:37.000Z</time>
      </trkpt>
      <trkpt lat="43.70244" lon="5.84002">
        <ele>449</ele>
        <time>2016-04-17T06:48:39.000Z</time>
      </trkpt>
      <trkpt lat="43.70244" lon="5.84002">
        <ele>449</ele>
        <time>2016-04-17T06:48:41.000Z</time>
      </trkpt>
      <trkpt lat="43.70244" lon="5.84002">
        <ele>449</ele>
        <time>2016-04-17T06:48:43.000Z</time>
      </trkpt>
      <trkpt lat="43.70244" lon="5.84002">
        <ele>449</ele>
        <time>2016-04-17T06:48:45.000Z</time>
      </trkpt>
      <trkpt lat="43.70244" lon="5.84002">
        <ele>449</ele>
        <time>2016-04-17T06:48:47.000Z</time>
      </trkpt>
      <trkpt lat="43.70244" lon="5.84002">
        <ele>449</ele>
        <time>2016-04-17T06:48:49.000Z</time>
      </trkpt>
      <trkpt lat="43.70244" lon="5.84002">
        <ele>449</ele>
        <time>2016-04-17T06:48:51.000Z</time>
      </trkpt>
      <trkpt lat="43.70208" lon="5.84038">
        <ele>456</ele>
        <time>2016-04-17T06:49:01.000Z</time>
      </trkpt>
      <trkpt lat="43.7019" lon="5.84057">
        <ele>457</ele>
        <time>2016-04-17T06:49:03.000Z</time>
      </trkpt>
      <trkpt lat="43.70179" lon="5.84067">
        <ele>458</ele>
        <time>2016-04-17T06:49:05.000Z</time>
      </trkpt>
      <trkpt lat="43.70173" lon="5.84074">
        <ele>458</ele>
        <time>2016-04-17T06:49:07.000Z</time>
      </trkpt>
      <trkpt lat="43.70169" lon="5.84079">
        <ele>457</ele>
        <time>2016-04-17T06:49:09.000Z</time>
      </trkpt>
      <trkpt lat="43.70161" lon="5.84089">
        <ele>460</ele>
        <time>2016-04-17T06:49:13.000Z</time>
      </trkpt>
      <trkpt lat="43.70155" lon="5.84103">
        <ele>463</ele>
        <time>2016-04-17T06:49:21.000Z</time>
      </trkpt>
      <trkpt lat="43.7015" lon="5.84113">
        <ele>464</ele>
        <time>2016-04-17T06:49:27.000Z</time>
      </trkpt>
      <trkpt lat="43.7015" lon="5.84113">
        <ele>464</ele>
        <time>2016-04-17T06:49:31.000Z</time>
      </trkpt>
      <trkpt lat="43.7015" lon="5.84113">
        <ele>464</ele>
        <time>2016-04-17T06:49:33.000Z</time>
      </trkpt>
      <trkpt lat="43.7015" lon="5.84113">
        <ele>464</ele>
        <time>2016-04-17T06:49:35.000Z</time>
      </trkpt>
      <trkpt lat="43.7015" lon="5.84113">
        <ele>464</ele>
        <time>2016-04-17T06:49:37.000Z</time>
      </trkpt>
      <trkpt lat="43.7015" lon="5.84113">
        <ele>464</ele>
        <time>2016-04-17T06:49:39.000Z</time>
      </trkpt>
      <trkpt lat="43.70134" lon="5.84134">
        <ele>470</ele>
        <time>2016-04-17T06:49:45.000Z</time>
      </trkpt>
      <trkpt lat="43.70126" lon="5.84144">
        <ele>471</ele>
        <time>2016-04-17T06:49:53.000Z</time>
      </trkpt>
      <trkpt lat="43.70119" lon="5.84154">
        <ele>474</ele>
        <time>2016-04-17T06:49:59.000Z</time>
      </trkpt>
      <trkpt lat="43.70119" lon="5.84154">
        <ele>474</ele>
        <time>2016-04-17T06:50:03.000Z</time>
      </trkpt>
      <trkpt lat="43.70119" lon="5.84154">
        <ele>474</ele>
        <time>2016-04-17T06:50:05.000Z</time>
      </trkpt>
      <trkpt lat="43.70119" lon="5.84154">
        <ele>474</ele>
        <time>2016-04-17T06:50:07.000Z</time>
      </trkpt>
      <trkpt lat="43.7011" lon="5.84171">
        <ele>475</ele>
        <time>2016-04-17T06:50:15.000Z</time>
      </trkpt>
      <trkpt lat="43.70105" lon="5.84183">
        <ele>476</ele>
        <time>2016-04-17T06:50:23.000Z</time>
      </trkpt>
      <trkpt lat="43.70105" lon="5.84183">
        <ele>476</ele>
        <time>2016-04-17T06:50:25.000Z</time>
      </trkpt>
      <trkpt lat="43.70105" lon="5.84183">
        <ele>476</ele>
        <time>2016-04-17T06:50:27.000Z</time>
      </trkpt>
      <trkpt lat="43.70099" lon="5.84198">
        <ele>473</ele>
        <time>2016-04-17T06:50:33.000Z</time>
      </trkpt>
      <trkpt lat="43.70099" lon="5.84198">
        <ele>473</ele>
        <time>2016-04-17T06:50:41.000Z</time>
      </trkpt>
      <trkpt lat="43.70099" lon="5.84198">
        <ele>473</ele>
        <time>2016-04-17T06:50:43.000Z</time>
      </trkpt>
      <trkpt lat="43.70099" lon="5.84198">
        <ele>473</ele>
        <time>2016-04-17T06:50:45.000Z</time>
      </trkpt>
      <trkpt lat="43.70091" lon="5.84226">
        <ele>468</ele>
        <time>2016-04-17T06:50:53.000Z</time>
      </trkpt>
      <trkpt lat="43.70091" lon="5.84226">
        <ele>468</ele>
        <time>2016-04-17T06:50:55.000Z</time>
      </trkpt>
      <trkpt lat="43.70091" lon="5.84226">
        <ele>468</ele>
        <time>2016-04-17T06:50:57.000Z</time>
      </trkpt>
      <trkpt lat="43.70091" lon="5.84226">
        <ele>468</ele>
        <time>2016-04-17T06:50:59.000Z</time>
      </trkpt>
      <trkpt lat="43.70091" lon="5.84226">
        <ele>468</ele>
        <time>2016-04-17T06:51:01.000Z</time>
      </trkpt>
      <trkpt lat="43.70091" lon="5.84226">
        <ele>468</ele>
        <time>2016-04-17T06:51:03.000Z</time>
      </trkpt>
      <trkpt lat="43.70091" lon="5.84226">
        <ele>468</ele>
        <time>2016-04-17T06:51:05.000Z</time>
      </trkpt>
      <trkpt lat="43.70091" lon="5.84226">
        <ele>468</ele>
        <time>2016-04-17T06:51:07.000Z</time>
      </trkpt>
      <trkpt lat="43.70091" lon="5.84226">
        <ele>468</ele>
        <time>2016-04-17T06:51:09.000Z</time>
      </trkpt>
      <trkpt lat="43.70091" lon="5.84226">
        <ele>468</ele>
        <time>2016-04-17T06:51:11.000Z</time>
      </trkpt>
      <trkpt lat="43.70091" lon="5.84226">
        <ele>468</ele>
        <time>2016-04-17T06:51:13.000Z</time>
      </trkpt>
      <trkpt lat="43.70082" lon="5.84269">
        <ele>477</ele>
        <time>2016-04-17T06:51:19.000Z</time>
      </trkpt>
      <trkpt lat="43.70082" lon="5.84269">
        <ele>477</ele>
        <time>2016-04-17T06:51:21.000Z</time>
      </trkpt>
      <trkpt lat="43.70082" lon="5.84269">
        <ele>477</ele>
        <time>2016-04-17T06:51:23.000Z</time>
      </trkpt>
      <trkpt lat="43.70082" lon="5.84269">
        <ele>477</ele>
        <time>2016-04-17T06:51:25.000Z</time>
      </trkpt>
      <trkpt lat="43.70069" lon="5.84296">
        <ele>468</ele>
        <time>2016-04-17T06:52:58.000Z</time>
      </trkpt>
      <trkpt lat="43.70069" lon="5.84296">
        <ele>468</ele>
        <time>2016-04-17T06:53:01.000Z</time>
      </trkpt>
      <trkpt lat="43.70069" lon="5.84296">
        <ele>468</ele>
        <time>2016-04-17T06:53:03.000Z</time>
      </trkpt>
      <trkpt lat="43.70069" lon="5.84296">
        <ele>468</ele>
        <time>2016-04-17T06:53:05.000Z</time>
      </trkpt>
      <trkpt lat="43.70051" lon="5.84329">
        <ele>464</ele>
        <time>2016-04-17T06:53:07.000Z</time>
      </trkpt>
      <trkpt lat="43.70039" lon="5.84343">
        <ele>464</ele>
        <time>2016-04-17T06:53:11.000Z</time>
      </trkpt>
      <trkpt lat="43.70028" lon="5.84356">
        <ele>462</ele>
        <time>2016-04-17T06:53:15.000Z</time>
      </trkpt>
      <trkpt lat="43.70028" lon="5.84356">
        <ele>462</ele>
        <time>2016-04-17T06:53:17.000Z</time>
      </trkpt>
      <trkpt lat="43.70028" lon="5.84356">
        <ele>462</ele>
        <time>2016-04-17T06:53:19.000Z</time>
      </trkpt>
      <trkpt lat="43.70028" lon="5.84356">
        <ele>462</ele>
        <time>2016-04-17T06:53:21.000Z</time>
      </trkpt>
      <trkpt lat="43.70028" lon="5.84356">
        <ele>462</ele>
        <time>2016-04-17T06:53:23.000Z</time>
      </trkpt>
      <trkpt lat="43.70028" lon="5.84356">
        <ele>462</ele>
        <time>2016-04-17T06:53:31.000Z</time>
      </trkpt>
      <trkpt lat="43.70028" lon="5.84356">
        <ele>462</ele>
        <time>2016-04-17T06:53:33.000Z</time>
      </trkpt>
      <trkpt lat="43.70028" lon="5.84356">
        <ele>462</ele>
        <time>2016-04-17T06:53:35.000Z</time>
      </trkpt>
      <trkpt lat="43.70028" lon="5.84356">
        <ele>462</ele>
        <time>2016-04-17T06:53:37.000Z</time>
      </trkpt>
      <trkpt lat="43.70028" lon="5.84356">
        <ele>462</ele>
        <time>2016-04-17T06:53:39.000Z</time>
      </trkpt>
      <trkpt lat="43.70028" lon="5.84356">
        <ele>462</ele>
        <time>2016-04-17T06:53:41.000Z</time>
      </trkpt>
      <trkpt lat="43.70028" lon="5.84356">
        <ele>462</ele>
        <time>2016-04-17T06:53:43.000Z</time>
      </trkpt>
      <trkpt lat="43.70072" lon="5.84447">
        <ele>458</ele>
        <time>2016-04-17T06:53:45.000Z</time>
      </trkpt>
      <trkpt lat="43.70078" lon="5.84463">
        <ele>458</ele>
        <time>2016-04-17T06:53:49.000Z</time>
      </trkpt>
      <trkpt lat="43.70081" lon="5.84478">
        <ele>462</ele>
        <time>2016-04-17T06:53:53.000Z</time>
      </trkpt>
      <trkpt lat="43.70081" lon="5.84478">
        <ele>462</ele>
        <time>2016-04-17T06:53:55.000Z</time>
      </trkpt>
      <trkpt lat="43.70081" lon="5.84478">
        <ele>462</ele>
        <time>2016-04-17T06:53:57.000Z</time>
      </trkpt>
      <trkpt lat="43.70081" lon="5.84478">
        <ele>462</ele>
        <time>2016-04-17T06:53:59.000Z</time>
      </trkpt>
      <trkpt lat="43.70081" lon="5.84478">
        <ele>462</ele>
        <time>2016-04-17T06:54:01.000Z</time>
      </trkpt>
      <trkpt lat="43.70081" lon="5.84478">
        <ele>462</ele>
        <time>2016-04-17T06:54:03.000Z</time>
      </trkpt>
      <trkpt lat="43.70081" lon="5.84478">
        <ele>462</ele>
        <time>2016-04-17T06:54:05.000Z</time>
      </trkpt>
      <trkpt lat="43.70081" lon="5.84478">
        <ele>462</ele>
        <time>2016-04-17T06:54:07.000Z</time>
      </trkpt>
      <trkpt lat="43.70081" lon="5.84478">
        <ele>462</ele>
        <time>2016-04-17T06:54:09.000Z</time>
      </trkpt>
      <trkpt lat="43.70081" lon="5.84478">
        <ele>462</ele>
        <time>2016-04-17T06:54:11.000Z</time>
      </trkpt>
      <trkpt lat="43.70081" lon="5.84478">
        <ele>462</ele>
        <time>2016-04-17T06:54:13.000Z</time>
      </trkpt>
      <trkpt lat="43.70081" lon="5.84478">
        <ele>462</ele>
        <time>2016-04-17T06:54:15.000Z</time>
      </trkpt>
      <trkpt lat="43.70081" lon="5.84478">
        <ele>462</ele>
        <time>2016-04-17T06:54:17.000Z</time>
      </trkpt>
      <trkpt lat="43.70081" lon="5.84478">
        <ele>462</ele>
        <time>2016-04-17T06:54:19.000Z</time>
      </trkpt>
      <trkpt lat="43.70081" lon="5.84478">
        <ele>462</ele>
        <time>2016-04-17T06:54:21.000Z</time>
      </trkpt>
      <trkpt lat="43.70081" lon="5.84478">
        <ele>462</ele>
        <time>2016-04-17T06:54:23.000Z</time>
      </trkpt>
      <trkpt lat="43.70081" lon="5.84478">
        <ele>462</ele>
        <time>2016-04-17T06:54:25.000Z</time>
      </trkpt>
      <trkpt lat="43.70081" lon="5.84478">
        <ele>462</ele>
        <time>2016-04-17T06:54:27.000Z</time>
      </trkpt>
      <trkpt lat="43.70081" lon="5.84478">
        <ele>462</ele>
        <time>2016-04-17T06:54:29.000Z</time>
      </trkpt>
      <trkpt lat="43.70081" lon="5.84478">
        <ele>462</ele>
        <time>2016-04-17T06:54:31.000Z</time>
      </trkpt>
      <trkpt lat="43.70081" lon="5.84478">
        <ele>462</ele>
        <time>2016-04-17T06:54:33.000Z</time>
      </trkpt>
      <trkpt lat="43.70081" lon="5.84478">
        <ele>462</ele>
        <time>2016-04-17T06:54:35.000Z</time>
      </trkpt>
      <trkpt lat="43.70081" lon="5.84478">
        <ele>462</ele>
        <time>2016-04-17T06:54:37.000Z</time>
      </trkpt>
      <trkpt lat="43.70081" lon="5.84478">
        <ele>462</ele>
        <time>2016-04-17T06:54:39.000Z</time>
      </trkpt>
      <trkpt lat="43.70081" lon="5.84478">
        <ele>462</ele>
        <time>2016-04-17T06:54:41.000Z</time>
      </trkpt>
      <trkpt lat="43.70081" lon="5.84478">
        <ele>462</ele>
        <time>2016-04-17T06:54:43.000Z</time>
      </trkpt>
      <trkpt lat="43.70081" lon="5.84478">
        <ele>462</ele>
        <time>2016-04-17T06:54:45.000Z</time>
      </trkpt>
      <trkpt lat="43.70057" lon="5.84547">
        <ele>458</ele>
        <time>2016-04-17T06:54:47.000Z</time>
      </trkpt>
      <trkpt lat="43.70044" lon="5.84583">
        <ele>459</ele>
        <time>2016-04-17T06:54:49.000Z</time>
      </trkpt>
      <trkpt lat="43.70036" lon="5.84603">
        <ele>460</ele>
        <time>2016-04-17T06:54:51.000Z</time>
      </trkpt>
      <trkpt lat="43.7003" lon="5.84614">
        <ele>461</ele>
        <time>2016-04-17T06:54:53.000Z</time>
      </trkpt>
      <trkpt lat="43.70025" lon="5.84621">
        <ele>461</ele>
        <time>2016-04-17T06:54:55.000Z</time>
      </trkpt>
      <trkpt lat="43.70018" lon="5.84629">
        <ele>461</ele>
        <time>2016-04-17T06:54:57.000Z</time>
      </trkpt>
      <trkpt lat="43.70018" lon="5.84629">
        <ele>461</ele>
        <time>2016-04-17T06:54:59.000Z</time>
      </trkpt>
      <trkpt lat="43.70018" lon="5.84629">
        <ele>461</ele>
        <time>2016-04-17T06:55:01.000Z</time>
      </trkpt>
      <trkpt lat="43.70018" lon="5.84629">
        <ele>461</ele>
        <time>2016-04-17T06:55:03.000Z</time>
      </trkpt>
      <trkpt lat="43.70018" lon="5.84629">
        <ele>461</ele>
        <time>2016-04-17T06:55:05.000Z</time>
      </trkpt>
      <trkpt lat="43.7" lon="5.8465">
        <ele>462</ele>
        <time>2016-04-17T06:55:09.000Z</time>
      </trkpt>
      <trkpt lat="43.69994" lon="5.8466">
        <ele>463</ele>
        <time>2016-04-17T06:55:13.000Z</time>
      </trkpt>
      <trkpt lat="43.69988" lon="5.8467">
        <ele>463</ele>
        <time>2016-04-17T06:55:17.000Z</time>
      </trkpt>
      <trkpt lat="43.69981" lon="5.84679">
        <ele>463</ele>
        <time>2016-04-17T06:55:21.000Z</time>
      </trkpt>
      <trkpt lat="43.69981" lon="5.84679">
        <ele>463</ele>
        <time>2016-04-17T06:55:27.000Z</time>
      </trkpt>
      <trkpt lat="43.69981" lon="5.84679">
        <ele>463</ele>
        <time>2016-04-17T06:55:29.000Z</time>
      </trkpt>
      <trkpt lat="43.69981" lon="5.84679">
        <ele>463</ele>
        <time>2016-04-17T06:55:31.000Z</time>
      </trkpt>
      <trkpt lat="43.69981" lon="5.84679">
        <ele>463</ele>
        <time>2016-04-17T06:55:33.000Z</time>
      </trkpt>
      <trkpt lat="43.69981" lon="5.84679">
        <ele>463</ele>
        <time>2016-04-17T06:55:35.000Z</time>
      </trkpt>
      <trkpt lat="43.69946" lon="5.84695">
        <ele>465</ele>
        <time>2016-04-17T06:55:41.000Z</time>
      </trkpt>
      <trkpt lat="43.69946" lon="5.84695">
        <ele>465</ele>
        <time>2016-04-17T06:55:43.000Z</time>
      </trkpt>
      <trkpt lat="43.69946" lon="5.84695">
        <ele>465</ele>
        <time>2016-04-17T06:55:45.000Z</time>
      </trkpt>
      <trkpt lat="43.69946" lon="5.84695">
        <ele>465</ele>
        <time>2016-04-17T06:55:47.000Z</time>
      </trkpt>
      <trkpt lat="43.69946" lon="5.84695">
        <ele>465</ele>
        <time>2016-04-17T06:55:49.000Z</time>
      </trkpt>
      <trkpt lat="43.69946" lon="5.84695">
        <ele>465</ele>
        <time>2016-04-17T06:55:51.000Z</time>
      </trkpt>
      <trkpt lat="43.69946" lon="5.84695">
        <ele>465</ele>
        <time>2016-04-17T06:55:53.000Z</time>
      </trkpt>
      <trkpt lat="43.69946" lon="5.84695">
        <ele>465</ele>
        <time>2016-04-17T06:55:55.000Z</time>
      </trkpt>
      <trkpt lat="43.69946" lon="5.84695">
        <ele>465</ele>
        <time>2016-04-17T06:55:57.000Z</time>
      </trkpt>
      <trkpt lat="43.69946" lon="5.84695">
        <ele>465</ele>
        <time>2016-04-17T06:55:59.000Z</time>
      </trkpt>
      <trkpt lat="43.69946" lon="5.84695">
        <ele>465</ele>
        <time>2016-04-17T06:56:01.000Z</time>
      </trkpt>
      <trkpt lat="43.69929" lon="5.84753">
        <ele>468</ele>
        <time>2016-04-17T06:56:05.000Z</time>
      </trkpt>
      <trkpt lat="43.69925" lon="5.84764">
        <ele>469</ele>
        <time>2016-04-17T06:56:09.000Z</time>
      </trkpt>
      <trkpt lat="43.69925" lon="5.84764">
        <ele>469</ele>
        <time>2016-04-17T06:56:13.000Z</time>
      </trkpt>
      <trkpt lat="43.69923" lon="5.84773">
        <ele>467</ele>
        <time>2016-04-17T06:56:15.000Z</time>
      </trkpt>
      <trkpt lat="43.69923" lon="5.84773">
        <ele>467</ele>
        <time>2016-04-17T06:56:17.000Z</time>
      </trkpt>
      <trkpt lat="43.69923" lon="5.84773">
        <ele>467</ele>
        <time>2016-04-17T06:56:19.000Z</time>
      </trkpt>
      <trkpt lat="43.69923" lon="5.84773">
        <ele>467</ele>
        <time>2016-04-17T06:56:21.000Z</time>
      </trkpt>
      <trkpt lat="43.69923" lon="5.84773">
        <ele>467</ele>
        <time>2016-04-17T06:56:23.000Z</time>
      </trkpt>
      <trkpt lat="43.69923" lon="5.84773">
        <ele>467</ele>
        <time>2016-04-17T06:56:25.000Z</time>
      </trkpt>
      <trkpt lat="43.69923" lon="5.84773">
        <ele>467</ele>
        <time>2016-04-17T06:56:27.000Z</time>
      </trkpt>
      <trkpt lat="43.69923" lon="5.84773">
        <ele>467</ele>
        <time>2016-04-17T06:56:29.000Z</time>
      </trkpt>
      <trkpt lat="43.69923" lon="5.84773">
        <ele>467</ele>
        <time>2016-04-17T06:56:31.000Z</time>
      </trkpt>
      <trkpt lat="43.69923" lon="5.84773">
        <ele>467</ele>
        <time>2016-04-17T06:56:33.000Z</time>
      </trkpt>
      <trkpt lat="43.69923" lon="5.84773">
        <ele>467</ele>
        <time>2016-04-17T06:56:35.000Z</time>
      </trkpt>
      <trkpt lat="43.69923" lon="5.84773">
        <ele>467</ele>
        <time>2016-04-17T06:56:37.000Z</time>
      </trkpt>
      <trkpt lat="43.69923" lon="5.84773">
        <ele>467</ele>
        <time>2016-04-17T06:56:39.000Z</time>
      </trkpt>
      <trkpt lat="43.69923" lon="5.84773">
        <ele>467</ele>
        <time>2016-04-17T06:56:41.000Z</time>
      </trkpt>
      <trkpt lat="43.69923" lon="5.84773">
        <ele>467</ele>
        <time>2016-04-17T06:56:43.000Z</time>
      </trkpt>
      <trkpt lat="43.69923" lon="5.84773">
        <ele>467</ele>
        <time>2016-04-17T06:56:45.000Z</time>
      </trkpt>
      <trkpt lat="43.69923" lon="5.84773">
        <ele>467</ele>
        <time>2016-04-17T06:56:47.000Z</time>
      </trkpt>
      <trkpt lat="43.69903" lon="5.84832">
        <ele>467</ele>
        <time>2016-04-17T06:56:57.000Z</time>
      </trkpt>
      <trkpt lat="43.69891" lon="5.84864">
        <ele>467</ele>
        <time>2016-04-17T06:56:59.000Z</time>
      </trkpt>
      <trkpt lat="43.69884" lon="5.84882">
        <ele>467</ele>
        <time>2016-04-17T06:57:01.000Z</time>
      </trkpt>
      <trkpt lat="43.69879" lon="5.84893">
        <ele>467</ele>
        <time>2016-04-17T06:57:03.000Z</time>
      </trkpt>
      <trkpt lat="43.69876" lon="5.84901">
        <ele>467</ele>
        <time>2016-04-17T06:57:05.000Z</time>
      </trkpt>
      <trkpt lat="43.6987" lon="5.84913">
        <ele>467</ele>
        <time>2016-04-17T06:57:07.000Z</time>
      </trkpt>
      <trkpt lat="43.69864" lon="5.84926">
        <ele>468</ele>
        <time>2016-04-17T06:57:13.000Z</time>
      </trkpt>
      <trkpt lat="43.69857" lon="5.84938">
        <ele>471</ele>
        <time>2016-04-17T06:57:19.000Z</time>
      </trkpt>
      <trkpt lat="43.69848" lon="5.8495">
        <ele>475</ele>
        <time>2016-04-17T06:57:25.000Z</time>
      </trkpt>
      <trkpt lat="43.69848" lon="5.8495">
        <ele>475</ele>
        <time>2016-04-17T06:57:27.000Z</time>
      </trkpt>
      <trkpt lat="43.69848" lon="5.8495">
        <ele>475</ele>
        <time>2016-04-17T06:57:29.000Z</time>
      </trkpt>
      <trkpt lat="43.69848" lon="5.8495">
        <ele>475</ele>
        <time>2016-04-17T06:57:31.000Z</time>
      </trkpt>
      <trkpt lat="43.69834" lon="5.84986">
        <ele>480</ele>
        <time>2016-04-17T06:57:41.000Z</time>
      </trkpt>
      <trkpt lat="43.69828" lon="5.85">
        <ele>481</ele>
        <time>2016-04-17T06:57:47.000Z</time>
      </trkpt>
      <trkpt lat="43.69822" lon="5.85015">
        <ele>481</ele>
        <time>2016-04-17T06:57:53.000Z</time>
      </trkpt>
      <trkpt lat="43.69815" lon="5.85029">
        <ele>484</ele>
        <time>2016-04-17T06:57:59.000Z</time>
      </trkpt>
      <trkpt lat="43.69806" lon="5.85041">
        <ele>483</ele>
        <time>2016-04-17T06:58:05.000Z</time>
      </trkpt>
      <trkpt lat="43.69799" lon="5.85049">
        <ele>484</ele>
        <time>2016-04-17T06:58:09.000Z</time>
      </trkpt>
      <trkpt lat="43.69792" lon="5.85063">
        <ele>481</ele>
        <time>2016-04-17T06:58:15.000Z</time>
      </trkpt>
      <trkpt lat="43.69792" lon="5.85063">
        <ele>481</ele>
        <time>2016-04-17T06:58:17.000Z</time>
      </trkpt>
      <trkpt lat="43.69792" lon="5.85063">
        <ele>481</ele>
        <time>2016-04-17T06:58:19.000Z</time>
      </trkpt>
      <trkpt lat="43.69792" lon="5.85063">
        <ele>481</ele>
        <time>2016-04-17T06:58:21.000Z</time>
      </trkpt>
      <trkpt lat="43.69792" lon="5.85063">
        <ele>481</ele>
        <time>2016-04-17T06:58:23.000Z</time>
      </trkpt>
      <trkpt lat="43.69792" lon="5.85063">
        <ele>481</ele>
        <time>2016-04-17T06:58:25.000Z</time>
      </trkpt>
      <trkpt lat="43.69792" lon="5.85063">
        <ele>481</ele>
        <time>2016-04-17T06:58:27.000Z</time>
      </trkpt>
      <trkpt lat="43.69781" lon="5.85083">
        <ele>485</ele>
        <time>2016-04-17T06:58:35.000Z</time>
      </trkpt>
      <trkpt lat="43.69775" lon="5.85095">
        <ele>485</ele>
        <time>2016-04-17T06:58:37.000Z</time>
      </trkpt>
      <trkpt lat="43.69771" lon="5.85104">
        <ele>485</ele>
        <time>2016-04-17T06:58:39.000Z</time>
      </trkpt>
      <trkpt lat="43.69769" lon="5.85111">
        <ele>485</ele>
        <time>2016-04-17T06:58:41.000Z</time>
      </trkpt>
      <trkpt lat="43.69766" lon="5.85117">
        <ele>485</ele>
        <time>2016-04-17T06:58:43.000Z</time>
      </trkpt>
      <trkpt lat="43.69759" lon="5.8513">
        <ele>485</ele>
        <time>2016-04-17T06:58:47.000Z</time>
      </trkpt>
      <trkpt lat="43.69751" lon="5.85142">
        <ele>483</ele>
        <time>2016-04-17T06:58:53.000Z</time>
      </trkpt>
      <trkpt lat="43.69741" lon="5.85152">
        <ele>482</ele>
        <time>2016-04-17T06:58:59.000Z</time>
      </trkpt>
      <trkpt lat="43.69733" lon="5.85164">
        <ele>483</ele>
        <time>2016-04-17T06:59:05.000Z</time>
      </trkpt>
      <trkpt lat="43.69727" lon="5.85176">
        <ele>484</ele>
        <time>2016-04-17T06:59:11.000Z</time>
      </trkpt>
      <trkpt lat="43.69717" lon="5.85188">
        <ele>484</ele>
        <time>2016-04-17T06:59:17.000Z</time>
      </trkpt>
      <trkpt lat="43.69711" lon="5.85203">
        <ele>485</ele>
        <time>2016-04-17T06:59:23.000Z</time>
      </trkpt>
      <trkpt lat="43.69711" lon="5.85203">
        <ele>485</ele>
        <time>2016-04-17T06:59:25.000Z</time>
      </trkpt>
      <trkpt lat="43.69711" lon="5.85203">
        <ele>485</ele>
        <time>2016-04-17T06:59:27.000Z</time>
      </trkpt>
      <trkpt lat="43.69711" lon="5.85203">
        <ele>485</ele>
        <time>2016-04-17T06:59:29.000Z</time>
      </trkpt>
      <trkpt lat="43.69698" lon="5.85224">
        <ele>484</ele>
        <time>2016-04-17T06:59:33.000Z</time>
      </trkpt>
      <trkpt lat="43.69691" lon="5.85238">
        <ele>484</ele>
        <time>2016-04-17T06:59:39.000Z</time>
      </trkpt>
      <trkpt lat="43.69691" lon="5.85238">
        <ele>484</ele>
        <time>2016-04-17T06:59:41.000Z</time>
      </trkpt>
      <trkpt lat="43.69691" lon="5.85238">
        <ele>484</ele>
        <time>2016-04-17T06:59:43.000Z</time>
      </trkpt>
      <trkpt lat="43.69678" lon="5.85258">
        <ele>484</ele>
        <time>2016-04-17T06:59:49.000Z</time>
      </trkpt>
      <trkpt lat="43.69666" lon="5.85267">
        <ele>485</ele>
        <time>2016-04-17T06:59:55.000Z</time>
      </trkpt>
      <trkpt lat="43.69656" lon="5.85276">
        <ele>485</ele>
        <time>2016-04-17T07:00:01.000Z</time>
      </trkpt>
      <trkpt lat="43.69645" lon="5.85277">
        <ele>484</ele>
        <time>2016-04-17T07:00:07.000Z</time>
      </trkpt>
      <trkpt lat="43.69642" lon="5.85269">
        <ele>482</ele>
        <time>2016-04-17T07:00:13.000Z</time>
      </trkpt>
      <trkpt lat="43.6964" lon="5.85262">
        <ele>482</ele>
        <time>2016-04-17T07:00:15.000Z</time>
      </trkpt>
      <trkpt lat="43.69638" lon="5.85256">
        <ele>482</ele>
        <time>2016-04-17T07:00:17.000Z</time>
      </trkpt>
      <trkpt lat="43.69638" lon="5.85256">
        <ele>482</ele>
        <time>2016-04-17T07:00:21.000Z</time>
      </trkpt>
      <trkpt lat="43.69638" lon="5.85256">
        <ele>482</ele>
        <time>2016-04-17T07:00:23.000Z</time>
      </trkpt>
      <trkpt lat="43.69638" lon="5.85256">
        <ele>482</ele>
        <time>2016-04-17T07:00:25.000Z</time>
      </trkpt>
      <trkpt lat="43.69638" lon="5.85256">
        <ele>482</ele>
        <time>2016-04-17T07:00:27.000Z</time>
      </trkpt>
      <trkpt lat="43.69638" lon="5.85256">
        <ele>482</ele>
        <time>2016-04-17T07:00:29.000Z</time>
      </trkpt>
      <trkpt lat="43.69638" lon="5.85256">
        <ele>482</ele>
        <time>2016-04-17T07:00:31.000Z</time>
      </trkpt>
      <trkpt lat="43.69638" lon="5.85256">
        <ele>482</ele>
        <time>2016-04-17T07:00:33.000Z</time>
      </trkpt>
      <trkpt lat="43.69638" lon="5.85256">
        <ele>482</ele>
        <time>2016-04-17T07:00:35.000Z</time>
      </trkpt>
      <trkpt lat="43.69638" lon="5.85256">
        <ele>482</ele>
        <time>2016-04-17T07:00:37.000Z</time>
      </trkpt>
      <trkpt lat="43.69638" lon="5.85256">
        <ele>482</ele>
        <time>2016-04-17T07:00:39.000Z</time>
      </trkpt>
      <trkpt lat="43.69638" lon="5.85256">
        <ele>482</ele>
        <time>2016-04-17T07:00:41.000Z</time>
      </trkpt>
      <trkpt lat="43.69638" lon="5.85256">
        <ele>482</ele>
        <time>2016-04-17T07:00:43.000Z</time>
      </trkpt>
      <trkpt lat="43.69638" lon="5.85256">
        <ele>482</ele>
        <time>2016-04-17T07:00:45.000Z</time>
      </trkpt>
      <trkpt lat="43.69638" lon="5.85256">
        <ele>482</ele>
        <time>2016-04-17T07:00:47.000Z</time>
      </trkpt>
      <trkpt lat="43.69638" lon="5.85256">
        <ele>482</ele>
        <time>2016-04-17T07:00:49.000Z</time>
      </trkpt>
      <trkpt lat="43.69638" lon="5.85256">
        <ele>482</ele>
        <time>2016-04-17T07:00:51.000Z</time>
      </trkpt>
      <trkpt lat="43.69638" lon="5.85256">
        <ele>482</ele>
        <time>2016-04-17T07:00:53.000Z</time>
      </trkpt>
      <trkpt lat="43.69638" lon="5.85256">
        <ele>482</ele>
        <time>2016-04-17T07:00:55.000Z</time>
      </trkpt>
      <trkpt lat="43.69614" lon="5.85237">
        <ele>486</ele>
        <time>2016-04-17T07:00:59.000Z</time>
      </trkpt>
      <trkpt lat="43.69601" lon="5.85227">
        <ele>486</ele>
        <time>2016-04-17T07:01:01.000Z</time>
      </trkpt>
      <trkpt lat="43.69592" lon="5.85222">
        <ele>486</ele>
        <time>2016-04-17T07:01:03.000Z</time>
      </trkpt>
      <trkpt lat="43.69587" lon="5.8522">
        <ele>486</ele>
        <time>2016-04-17T07:01:05.000Z</time>
      </trkpt>
      <trkpt lat="43.69582" lon="5.85218">
        <ele>487</ele>
        <time>2016-04-17T07:01:07.000Z</time>
      </trkpt>
      <trkpt lat="43.69569" lon="5.85214">
        <ele>487</ele>
        <time>2016-04-17T07:01:11.000Z</time>
      </trkpt>
      <trkpt lat="43.69569" lon="5.85214">
        <ele>487</ele>
        <time>2016-04-17T07:01:17.000Z</time>
      </trkpt>
      <trkpt lat="43.69569" lon="5.85214">
        <ele>487</ele>
        <time>2016-04-17T07:01:19.000Z</time>
      </trkpt>
      <trkpt lat="43.69569" lon="5.85214">
        <ele>487</ele>
        <time>2016-04-17T07:01:21.000Z</time>
      </trkpt>
      <trkpt lat="43.69569" lon="5.85214">
        <ele>487</ele>
        <time>2016-04-17T07:01:23.000Z</time>
      </trkpt>
      <trkpt lat="43.69569" lon="5.85214">
        <ele>487</ele>
        <time>2016-04-17T07:01:25.000Z</time>
      </trkpt>
      <trkpt lat="43.69569" lon="5.85214">
        <ele>487</ele>
        <time>2016-04-17T07:01:27.000Z</time>
      </trkpt>
      <trkpt lat="43.69569" lon="5.85214">
        <ele>487</ele>
        <time>2016-04-17T07:01:29.000Z</time>
      </trkpt>
      <trkpt lat="43.69569" lon="5.85214">
        <ele>487</ele>
        <time>2016-04-17T07:01:31.000Z</time>
      </trkpt>
      <trkpt lat="43.69569" lon="5.85214">
        <ele>487</ele>
        <time>2016-04-17T07:01:33.000Z</time>
      </trkpt>
      <trkpt lat="43.69569" lon="5.85214">
        <ele>487</ele>
        <time>2016-04-17T07:01:35.000Z</time>
      </trkpt>
      <trkpt lat="43.69569" lon="5.85214">
        <ele>487</ele>
        <time>2016-04-17T07:01:37.000Z</time>
      </trkpt>
      <trkpt lat="43.69569" lon="5.85214">
        <ele>487</ele>
        <time>2016-04-17T07:01:39.000Z</time>
      </trkpt>
      <trkpt lat="43.69569" lon="5.85214">
        <ele>487</ele>
        <time>2016-04-17T07:01:41.000Z</time>
      </trkpt>
      <trkpt lat="43.69569" lon="5.85214">
        <ele>487</ele>
        <time>2016-04-17T07:01:43.000Z</time>
      </trkpt>
      <trkpt lat="43.69569" lon="5.85214">
        <ele>487</ele>
        <time>2016-04-17T07:01:45.000Z</time>
      </trkpt>
      <trkpt lat="43.69569" lon="5.85214">
        <ele>487</ele>
        <time>2016-04-17T07:01:47.000Z</time>
      </trkpt>
      <trkpt lat="43.69569" lon="5.85214">
        <ele>487</ele>
        <time>2016-04-17T07:01:49.000Z</time>
      </trkpt>
      <trkpt lat="43.69569" lon="5.85214">
        <ele>487</ele>
        <time>2016-04-17T07:01:51.000Z</time>
      </trkpt>
      <trkpt lat="43.69569" lon="5.85214">
        <ele>487</ele>
        <time>2016-04-17T07:01:53.000Z</time>
      </trkpt>
      <trkpt lat="43.69569" lon="5.85214">
        <ele>487</ele>
        <time>2016-04-17T07:01:55.000Z</time>
      </trkpt>
      <trkpt lat="43.69569" lon="5.85214">
        <ele>487</ele>
        <time>2016-04-17T07:01:57.000Z</time>
      </trkpt>
      <trkpt lat="43.69569" lon="5.85214">
        <ele>487</ele>
        <time>2016-04-17T07:01:59.000Z</time>
      </trkpt>
      <trkpt lat="43.69569" lon="5.85214">
        <ele>487</ele>
        <time>2016-04-17T07:02:01.000Z</time>
      </trkpt>
      <trkpt lat="43.69569" lon="5.85214">
        <ele>487</ele>
        <time>2016-04-17T07:02:03.000Z</time>
      </trkpt>
      <trkpt lat="43.69569" lon="5.85214">
        <ele>487</ele>
        <time>2016-04-17T07:02:05.000Z</time>
      </trkpt>
      <trkpt lat="43.69569" lon="5.85214">
        <ele>487</ele>
        <time>2016-04-17T07:02:07.000Z</time>
      </trkpt>
      <trkpt lat="43.69569" lon="5.85214">
        <ele>487</ele>
        <time>2016-04-17T07:02:09.000Z</time>
      </trkpt>
      <trkpt lat="43.69569" lon="5.85214">
        <ele>487</ele>
        <time>2016-04-17T07:02:11.000Z</time>
      </trkpt>
      <trkpt lat="43.69535" lon="5.85182">
        <ele>495</ele>
        <time>2016-04-17T07:02:13.000Z</time>
      </trkpt>
      <trkpt lat="43.69517" lon="5.85165">
        <ele>495</ele>
        <time>2016-04-17T07:02:15.000Z</time>
      </trkpt>
      <trkpt lat="43.69506" lon="5.85157">
        <ele>495</ele>
        <time>2016-04-17T07:02:17.000Z</time>
      </trkpt>
      <trkpt lat="43.69498" lon="5.85152">
        <ele>495</ele>
        <time>2016-04-17T07:02:19.000Z</time>
      </trkpt>
      <trkpt lat="43.69492" lon="5.8515">
        <ele>496</ele>
        <time>2016-04-17T07:02:21.000Z</time>
      </trkpt>
      <trkpt lat="43.69483" lon="5.85147">
        <ele>496</ele>
        <time>2016-04-17T07:02:23.000Z</time>
      </trkpt>
      <trkpt lat="43.69473" lon="5.85151">
        <ele>497</ele>
        <time>2016-04-17T07:02:29.000Z</time>
      </trkpt>
      <trkpt lat="43.69473" lon="5.85151">
        <ele>497</ele>
        <time>2016-04-17T07:02:31.000Z</time>
      </trkpt>
      <trkpt lat="43.69473" lon="5.85151">
        <ele>497</ele>
        <time>2016-04-17T07:02:33.000Z</time>
      </trkpt>
      <trkpt lat="43.69473" lon="5.85151">
        <ele>497</ele>
        <time>2016-04-17T07:02:35.000Z</time>
      </trkpt>
      <trkpt lat="43.69473" lon="5.85151">
        <ele>497</ele>
        <time>2016-04-17T07:02:37.000Z</time>
      </trkpt>
      <trkpt lat="43.69467" lon="5.85176">
        <ele>502</ele>
        <time>2016-04-17T07:02:41.000Z</time>
      </trkpt>
      <trkpt lat="43.69463" lon="5.85193">
        <ele>501</ele>
        <time>2016-04-17T07:02:47.000Z</time>
      </trkpt>
      <trkpt lat="43.69463" lon="5.85193">
        <ele>501</ele>
        <time>2016-04-17T07:02:49.000Z</time>
      </trkpt>
      <trkpt lat="43.69463" lon="5.85193">
        <ele>501</ele>
        <time>2016-04-17T07:02:51.000Z</time>
      </trkpt>
      <trkpt lat="43.69463" lon="5.85193">
        <ele>501</ele>
        <time>2016-04-17T07:02:53.000Z</time>
      </trkpt>
      <trkpt lat="43.69463" lon="5.85193">
        <ele>501</ele>
        <time>2016-04-17T07:02:55.000Z</time>
      </trkpt>
      <trkpt lat="43.69463" lon="5.85193">
        <ele>501</ele>
        <time>2016-04-17T07:02:57.000Z</time>
      </trkpt>
      <trkpt lat="43.69463" lon="5.85193">
        <ele>501</ele>
        <time>2016-04-17T07:02:59.000Z</time>
      </trkpt>
      <trkpt lat="43.69463" lon="5.85193">
        <ele>501</ele>
        <time>2016-04-17T07:03:01.000Z</time>
      </trkpt>
      <trkpt lat="43.69448" lon="5.85228">
        <ele>500</ele>
        <time>2016-04-17T07:03:03.000Z</time>
      </trkpt>
      <trkpt lat="43.69443" lon="5.85248">
        <ele>497</ele>
        <time>2016-04-17T07:03:07.000Z</time>
      </trkpt>
      <trkpt lat="43.69439" lon="5.85259">
        <ele>496</ele>
        <time>2016-04-17T07:03:09.000Z</time>
      </trkpt>
      <trkpt lat="43.69437" lon="5.85279">
        <ele>493</ele>
        <time>2016-04-17T07:03:13.000Z</time>
      </trkpt>
      <trkpt lat="43.69439" lon="5.85307">
        <ele>491</ele>
        <time>2016-04-17T07:03:17.000Z</time>
      </trkpt>
      <trkpt lat="43.6944" lon="5.85322">
        <ele>490</ele>
        <time>2016-04-17T07:03:19.000Z</time>
      </trkpt>
      <trkpt lat="43.6944" lon="5.85338">
        <ele>490</ele>
        <time>2016-04-17T07:03:21.000Z</time>
      </trkpt>
      <trkpt lat="43.69441" lon="5.85357">
        <ele>489</ele>
        <time>2016-04-17T07:03:23.000Z</time>
      </trkpt>
      <trkpt lat="43.6944" lon="5.85374">
        <ele>487</ele>
        <time>2016-04-17T07:03:25.000Z</time>
      </trkpt>
      <trkpt lat="43.69438" lon="5.8539">
        <ele>486</ele>
        <time>2016-04-17T07:03:27.000Z</time>
      </trkpt>
      <trkpt lat="43.69439" lon="5.85403">
        <ele>486</ele>
        <time>2016-04-17T07:03:29.000Z</time>
      </trkpt>
      <trkpt lat="43.69439" lon="5.85403">
        <ele>486</ele>
        <time>2016-04-17T07:03:31.000Z</time>
      </trkpt>
      <trkpt lat="43.69439" lon="5.85403">
        <ele>486</ele>
        <time>2016-04-17T07:03:33.000Z</time>
      </trkpt>
      <trkpt lat="43.69439" lon="5.85403">
        <ele>486</ele>
        <time>2016-04-17T07:03:35.000Z</time>
      </trkpt>
      <trkpt lat="43.69484" lon="5.85434">
        <ele>482</ele>
        <time>2016-04-17T07:03:39.000Z</time>
      </trkpt>
      <trkpt lat="43.69486" lon="5.85453">
        <ele>482</ele>
        <time>2016-04-17T07:03:41.000Z</time>
      </trkpt>
      <trkpt lat="43.69485" lon="5.85473">
        <ele>476</ele>
        <time>2016-04-17T07:03:43.000Z</time>
      </trkpt>
      <trkpt lat="43.69482" lon="5.8549">
        <ele>474</ele>
        <time>2016-04-17T07:03:45.000Z</time>
      </trkpt>
      <trkpt lat="43.69479" lon="5.85507">
        <ele>472</ele>
        <time>2016-04-17T07:03:47.000Z</time>
      </trkpt>
      <trkpt lat="43.6948" lon="5.85524">
        <ele>472</ele>
        <time>2016-04-17T07:03:49.000Z</time>
      </trkpt>
      <trkpt lat="43.69477" lon="5.85542">
        <ele>470</ele>
        <time>2016-04-17T07:03:51.000Z</time>
      </trkpt>
      <trkpt lat="43.69471" lon="5.85558">
        <ele>470</ele>
        <time>2016-04-17T07:03:53.000Z</time>
      </trkpt>
      <trkpt lat="43.69471" lon="5.85575">
        <ele>468</ele>
        <time>2016-04-17T07:03:55.000Z</time>
      </trkpt>
      <trkpt lat="43.69468" lon="5.8559">
        <ele>467</ele>
        <time>2016-04-17T07:03:57.000Z</time>
      </trkpt>
      <trkpt lat="43.69463" lon="5.85602">
        <ele>466</ele>
        <time>2016-04-17T07:03:59.000Z</time>
      </trkpt>
      <trkpt lat="43.69463" lon="5.85602">
        <ele>466</ele>
        <time>2016-04-17T07:04:01.000Z</time>
      </trkpt>
      <trkpt lat="43.69463" lon="5.85602">
        <ele>466</ele>
        <time>2016-04-17T07:04:03.000Z</time>
      </trkpt>
      <trkpt lat="43.69463" lon="5.85602">
        <ele>466</ele>
        <time>2016-04-17T07:04:05.000Z</time>
      </trkpt>
      <trkpt lat="43.69463" lon="5.85602">
        <ele>466</ele>
        <time>2016-04-17T07:04:07.000Z</time>
      </trkpt>
      <trkpt lat="43.69463" lon="5.85602">
        <ele>466</ele>
        <time>2016-04-17T07:04:09.000Z</time>
      </trkpt>
      <trkpt lat="43.69463" lon="5.85602">
        <ele>466</ele>
        <time>2016-04-17T07:04:11.000Z</time>
      </trkpt>
      <trkpt lat="43.69463" lon="5.85602">
        <ele>466</ele>
        <time>2016-04-17T07:04:13.000Z</time>
      </trkpt>
      <trkpt lat="43.69463" lon="5.85602">
        <ele>466</ele>
        <time>2016-04-17T07:04:15.000Z</time>
      </trkpt>
      <trkpt lat="43.69463" lon="5.85602">
        <ele>466</ele>
        <time>2016-04-17T07:04:17.000Z</time>
      </trkpt>
      <trkpt lat="43.69463" lon="5.85602">
        <ele>466</ele>
        <time>2016-04-17T07:04:19.000Z</time>
      </trkpt>
      <trkpt lat="43.69442" lon="5.85652">
        <ele>462</ele>
        <time>2016-04-17T07:04:23.000Z</time>
      </trkpt>
      <trkpt lat="43.6943" lon="5.85682">
        <ele>462</ele>
        <time>2016-04-17T07:04:25.000Z</time>
      </trkpt>
      <trkpt lat="43.69421" lon="5.857">
        <ele>461</ele>
        <time>2016-04-17T07:04:28.000Z</time>
      </trkpt>
      <trkpt lat="43.69421" lon="5.857">
        <ele>461</ele>
        <time>2016-04-17T07:04:30.000Z</time>
      </trkpt>
      <trkpt lat="43.69421" lon="5.857">
        <ele>461</ele>
        <time>2016-04-17T07:04:32.000Z</time>
      </trkpt>
      <trkpt lat="43.69421" lon="5.857">
        <ele>461</ele>
        <time>2016-04-17T07:04:34.000Z</time>
      </trkpt>
      <trkpt lat="43.69421" lon="5.857">
        <ele>461</ele>
        <time>2016-04-17T07:04:36.000Z</time>
      </trkpt>
      <trkpt lat="43.69421" lon="5.857">
        <ele>461</ele>
        <time>2016-04-17T07:04:38.000Z</time>
      </trkpt>
      <trkpt lat="43.69416" lon="5.85728">
        <ele>462</ele>
        <time>2016-04-17T07:04:42.000Z</time>
      </trkpt>
      <trkpt lat="43.69413" lon="5.85745">
        <ele>461</ele>
        <time>2016-04-17T07:04:44.000Z</time>
      </trkpt>
      <trkpt lat="43.69412" lon="5.85758">
        <ele>459</ele>
        <time>2016-04-17T07:04:46.000Z</time>
      </trkpt>
      <trkpt lat="43.69413" lon="5.8577">
        <ele>458</ele>
        <time>2016-04-17T07:04:48.000Z</time>
      </trkpt>
      <trkpt lat="43.69414" lon="5.85783">
        <ele>458</ele>
        <time>2016-04-17T07:04:50.000Z</time>
      </trkpt>
      <trkpt lat="43.69415" lon="5.85807">
        <ele>458</ele>
        <time>2016-04-17T07:04:52.000Z</time>
      </trkpt>
      <trkpt lat="43.69415" lon="5.85807">
        <ele>458</ele>
        <time>2016-04-17T07:04:54.000Z</time>
      </trkpt>
      <trkpt lat="43.69422" lon="5.85818">
        <ele>457</ele>
        <time>2016-04-17T07:04:56.000Z</time>
      </trkpt>
      <trkpt lat="43.69422" lon="5.85818">
        <ele>457</ele>
        <time>2016-04-17T07:04:58.000Z</time>
      </trkpt>
      <trkpt lat="43.69422" lon="5.85818">
        <ele>457</ele>
        <time>2016-04-17T07:05:00.000Z</time>
      </trkpt>
      <trkpt lat="43.69446" lon="5.85839">
        <ele>456</ele>
        <time>2016-04-17T07:05:06.000Z</time>
      </trkpt>
      <trkpt lat="43.69455" lon="5.85851">
        <ele>455</ele>
        <time>2016-04-17T07:05:10.000Z</time>
      </trkpt>
      <trkpt lat="43.69459" lon="5.85866">
        <ele>455</ele>
        <time>2016-04-17T07:05:14.000Z</time>
      </trkpt>
      <trkpt lat="43.69459" lon="5.85866">
        <ele>455</ele>
        <time>2016-04-17T07:05:16.000Z</time>
      </trkpt>
      <trkpt lat="43.69459" lon="5.85866">
        <ele>455</ele>
        <time>2016-04-17T07:05:18.000Z</time>
      </trkpt>
      <trkpt lat="43.69459" lon="5.85866">
        <ele>455</ele>
        <time>2016-04-17T07:05:20.000Z</time>
      </trkpt>
      <trkpt lat="43.69459" lon="5.85866">
        <ele>455</ele>
        <time>2016-04-17T07:05:22.000Z</time>
      </trkpt>
      <trkpt lat="43.69459" lon="5.85866">
        <ele>455</ele>
        <time>2016-04-17T07:05:24.000Z</time>
      </trkpt>
      <trkpt lat="43.69464" lon="5.85916">
        <ele>455</ele>
        <time>2016-04-17T07:05:28.000Z</time>
      </trkpt>
      <trkpt lat="43.69473" lon="5.85927">
        <ele>455</ele>
        <time>2016-04-17T07:05:32.000Z</time>
      </trkpt>
      <trkpt lat="43.6948" lon="5.85943">
        <ele>454</ele>
        <time>2016-04-17T07:05:36.000Z</time>
      </trkpt>
      <trkpt lat="43.69485" lon="5.85956">
        <ele>453</ele>
        <time>2016-04-17T07:05:38.000Z</time>
      </trkpt>
      <trkpt lat="43.69486" lon="5.85971">
        <ele>452</ele>
        <time>2016-04-17T07:05:40.000Z</time>
      </trkpt>
      <trkpt lat="43.69489" lon="5.85984">
        <ele>451</ele>
        <time>2016-04-17T07:05:42.000Z</time>
      </trkpt>
      <trkpt lat="43.69494" lon="5.85995">
        <ele>451</ele>
        <time>2016-04-17T07:05:44.000Z</time>
      </trkpt>
      <trkpt lat="43.695" lon="5.86006">
        <ele>450</ele>
        <time>2016-04-17T07:05:46.000Z</time>
      </trkpt>
      <trkpt lat="43.69505" lon="5.86019">
        <ele>450</ele>
        <time>2016-04-17T07:05:48.000Z</time>
      </trkpt>
      <trkpt lat="43.69506" lon="5.86035">
        <ele>449</ele>
        <time>2016-04-17T07:05:50.000Z</time>
      </trkpt>
      <trkpt lat="43.69508" lon="5.86052">
        <ele>449</ele>
        <time>2016-04-17T07:05:52.000Z</time>
      </trkpt>
      <trkpt lat="43.69508" lon="5.86067">
        <ele>448</ele>
        <time>2016-04-17T07:05:54.000Z</time>
      </trkpt>
      <trkpt lat="43.69506" lon="5.86082">
        <ele>448</ele>
        <time>2016-04-17T07:05:56.000Z</time>
      </trkpt>
      <trkpt lat="43.69504" lon="5.86097">
        <ele>448</ele>
        <time>2016-04-17T07:05:58.000Z</time>
      </trkpt>
      <trkpt lat="43.69502" lon="5.86113">
        <ele>447</ele>
        <time>2016-04-17T07:06:00.000Z</time>
      </trkpt>
      <trkpt lat="43.69503" lon="5.8613">
        <ele>446</ele>
        <time>2016-04-17T07:06:02.000Z</time>
      </trkpt>
      <trkpt lat="43.69506" lon="5.86146">
        <ele>446</ele>
        <time>2016-04-17T07:06:04.000Z</time>
      </trkpt>
      <trkpt lat="43.69508" lon="5.86159">
        <ele>445</ele>
        <time>2016-04-17T07:06:06.000Z</time>
      </trkpt>
      <trkpt lat="43.69508" lon="5.86159">
        <ele>445</ele>
        <time>2016-04-17T07:06:08.000Z</time>
      </trkpt>
      <trkpt lat="43.69508" lon="5.86159">
        <ele>445</ele>
        <time>2016-04-17T07:06:10.000Z</time>
      </trkpt>
      <trkpt lat="43.69508" lon="5.86159">
        <ele>445</ele>
        <time>2016-04-17T07:06:12.000Z</time>
      </trkpt>
      <trkpt lat="43.69508" lon="5.86159">
        <ele>445</ele>
        <time>2016-04-17T07:06:14.000Z</time>
      </trkpt>
      <trkpt lat="43.69508" lon="5.86159">
        <ele>445</ele>
        <time>2016-04-17T07:06:16.000Z</time>
      </trkpt>
      <trkpt lat="43.69508" lon="5.86159">
        <ele>445</ele>
        <time>2016-04-17T07:06:18.000Z</time>
      </trkpt>
      <trkpt lat="43.69508" lon="5.86159">
        <ele>445</ele>
        <time>2016-04-17T07:06:20.000Z</time>
      </trkpt>
      <trkpt lat="43.69508" lon="5.86159">
        <ele>445</ele>
        <time>2016-04-17T07:06:22.000Z</time>
      </trkpt>
      <trkpt lat="43.69508" lon="5.86159">
        <ele>445</ele>
        <time>2016-04-17T07:06:24.000Z</time>
      </trkpt>
      <trkpt lat="43.69508" lon="5.86159">
        <ele>445</ele>
        <time>2016-04-17T07:06:26.000Z</time>
      </trkpt>
      <trkpt lat="43.69508" lon="5.86159">
        <ele>445</ele>
        <time>2016-04-17T07:06:28.000Z</time>
      </trkpt>
      <trkpt lat="43.69508" lon="5.86159">
        <ele>445</ele>
        <time>2016-04-17T07:06:30.000Z</time>
      </trkpt>
      <trkpt lat="43.69529" lon="5.86191">
        <ele>446</ele>
        <time>2016-04-17T07:06:32.000Z</time>
      </trkpt>
      <trkpt lat="43.69532" lon="5.86203">
        <ele>448</ele>
        <time>2016-04-17T07:06:36.000Z</time>
      </trkpt>
      <trkpt lat="43.69536" lon="5.86209">
        <ele>448</ele>
        <time>2016-04-17T07:06:42.000Z</time>
      </trkpt>
      <trkpt lat="43.69536" lon="5.86209">
        <ele>448</ele>
        <time>2016-04-17T07:06:44.000Z</time>
      </trkpt>
      <trkpt lat="43.69536" lon="5.86209">
        <ele>448</ele>
        <time>2016-04-17T07:06:46.000Z</time>
      </trkpt>
      <trkpt lat="43.69536" lon="5.86209">
        <ele>448</ele>
        <time>2016-04-17T07:06:48.000Z</time>
      </trkpt>
      <trkpt lat="43.69543" lon="5.86215">
        <ele>449</ele>
        <time>2016-04-17T07:06:54.000Z</time>
      </trkpt>
      <trkpt lat="43.69548" lon="5.8622">
        <ele>449</ele>
        <time>2016-04-17T07:06:56.000Z</time>
      </trkpt>
      <trkpt lat="43.69553" lon="5.86227">
        <ele>450</ele>
        <time>2016-04-17T07:07:00.000Z</time>
      </trkpt>
      <trkpt lat="43.69555" lon="5.86233">
        <ele>451</ele>
        <time>2016-04-17T07:07:02.000Z</time>
      </trkpt>
      <trkpt lat="43.69559" lon="5.8624">
        <ele>451</ele>
        <time>2016-04-17T07:07:06.000Z</time>
      </trkpt>
      <trkpt lat="43.69562" lon="5.86245">
        <ele>451</ele>
        <time>2016-04-17T07:07:08.000Z</time>
      </trkpt>
      <trkpt lat="43.69562" lon="5.86245">
        <ele>451</ele>
        <time>2016-04-17T07:07:10.000Z</time>
      </trkpt>
      <trkpt lat="43.69562" lon="5.86245">
        <ele>451</ele>
        <time>2016-04-17T07:07:12.000Z</time>
      </trkpt>
      <trkpt lat="43.69562" lon="5.86245">
        <ele>451</ele>
        <time>2016-04-17T07:07:14.000Z</time>
      </trkpt>
      <trkpt lat="43.69562" lon="5.86245">
        <ele>451</ele>
        <time>2016-04-17T07:07:16.000Z</time>
      </trkpt>
      <trkpt lat="43.69562" lon="5.86245">
        <ele>451</ele>
        <time>2016-04-17T07:07:18.000Z</time>
      </trkpt>
      <trkpt lat="43.69562" lon="5.86245">
        <ele>451</ele>
        <time>2016-04-17T07:07:20.000Z</time>
      </trkpt>
      <trkpt lat="43.69562" lon="5.86245">
        <ele>451</ele>
        <time>2016-04-17T07:07:22.000Z</time>
      </trkpt>
      <trkpt lat="43.69562" lon="5.86245">
        <ele>451</ele>
        <time>2016-04-17T07:07:24.000Z</time>
      </trkpt>
      <trkpt lat="43.69562" lon="5.86245">
        <ele>451</ele>
        <time>2016-04-17T07:07:26.000Z</time>
      </trkpt>
      <trkpt lat="43.69562" lon="5.86245">
        <ele>451</ele>
        <time>2016-04-17T07:07:28.000Z</time>
      </trkpt>
      <trkpt lat="43.69562" lon="5.86245">
        <ele>451</ele>
        <time>2016-04-17T07:07:30.000Z</time>
      </trkpt>
      <trkpt lat="43.69562" lon="5.86245">
        <ele>451</ele>
        <time>2016-04-17T07:07:32.000Z</time>
      </trkpt>
      <trkpt lat="43.69562" lon="5.86245">
        <ele>451</ele>
        <time>2016-04-17T07:07:34.000Z</time>
      </trkpt>
      <trkpt lat="43.69562" lon="5.86245">
        <ele>451</ele>
        <time>2016-04-17T07:07:36.000Z</time>
      </trkpt>
      <trkpt lat="43.69562" lon="5.86245">
        <ele>451</ele>
        <time>2016-04-17T07:07:38.000Z</time>
      </trkpt>
      <trkpt lat="43.69562" lon="5.86245">
        <ele>451</ele>
        <time>2016-04-17T07:07:40.000Z</time>
      </trkpt>
      <trkpt lat="43.69562" lon="5.86245">
        <ele>451</ele>
        <time>2016-04-17T07:07:42.000Z</time>
      </trkpt>
      <trkpt lat="43.69562" lon="5.86245">
        <ele>451</ele>
        <time>2016-04-17T07:07:44.000Z</time>
      </trkpt>
      <trkpt lat="43.69562" lon="5.86245">
        <ele>451</ele>
        <time>2016-04-17T07:07:46.000Z</time>
      </trkpt>
      <trkpt lat="43.69562" lon="5.86245">
        <ele>451</ele>
        <time>2016-04-17T07:07:48.000Z</time>
      </trkpt>
      <trkpt lat="43.69562" lon="5.86245">
        <ele>451</ele>
        <time>2016-04-17T07:07:54.000Z</time>
      </trkpt>
      <trkpt lat="43.69562" lon="5.86245">
        <ele>451</ele>
        <time>2016-04-17T07:07:56.000Z</time>
      </trkpt>
      <trkpt lat="43.69562" lon="5.86245">
        <ele>451</ele>
        <time>2016-04-17T07:07:58.000Z</time>
      </trkpt>
      <trkpt lat="43.69562" lon="5.86245">
        <ele>451</ele>
        <time>2016-04-17T07:08:00.000Z</time>
      </trkpt>
      <trkpt lat="43.69562" lon="5.86245">
        <ele>451</ele>
        <time>2016-04-17T07:08:02.000Z</time>
      </trkpt>
      <trkpt lat="43.69562" lon="5.86245">
        <ele>451</ele>
        <time>2016-04-17T07:08:04.000Z</time>
      </trkpt>
      <trkpt lat="43.69562" lon="5.86245">
        <ele>451</ele>
        <time>2016-04-17T07:08:06.000Z</time>
      </trkpt>
      <trkpt lat="43.69562" lon="5.86245">
        <ele>451</ele>
        <time>2016-04-17T07:08:08.000Z</time>
      </trkpt>
      <trkpt lat="43.69562" lon="5.86245">
        <ele>451</ele>
        <time>2016-04-17T07:08:10.000Z</time>
      </trkpt>
      <trkpt lat="43.69562" lon="5.86245">
        <ele>451</ele>
        <time>2016-04-17T07:08:12.000Z</time>
      </trkpt>
      <trkpt lat="43.69562" lon="5.86245">
        <ele>451</ele>
        <time>2016-04-17T07:08:14.000Z</time>
      </trkpt>
      <trkpt lat="43.69562" lon="5.86245">
        <ele>451</ele>
        <time>2016-04-17T07:08:16.000Z</time>
      </trkpt>
      <trkpt lat="43.69562" lon="5.86245">
        <ele>451</ele>
        <time>2016-04-17T07:08:18.000Z</time>
      </trkpt>
      <trkpt lat="43.69562" lon="5.86245">
        <ele>451</ele>
        <time>2016-04-17T07:08:20.000Z</time>
      </trkpt>
      <trkpt lat="43.69562" lon="5.86245">
        <ele>451</ele>
        <time>2016-04-17T07:08:22.000Z</time>
      </trkpt>
      <trkpt lat="43.69562" lon="5.86245">
        <ele>451</ele>
        <time>2016-04-17T07:08:24.000Z</time>
      </trkpt>
      <trkpt lat="43.69562" lon="5.86245">
        <ele>451</ele>
        <time>2016-04-17T07:08:26.000Z</time>
      </trkpt>
      <trkpt lat="43.69562" lon="5.86245">
        <ele>451</ele>
        <time>2016-04-17T07:08:28.000Z</time>
      </trkpt>
      <trkpt lat="43.69562" lon="5.86245">
        <ele>451</ele>
        <time>2016-04-17T07:08:30.000Z</time>
      </trkpt>
      <trkpt lat="43.69671" lon="5.86255">
        <ele>472</ele>
        <time>2016-04-17T07:08:39.000Z</time>
      </trkpt>
      <trkpt lat="43.69671" lon="5.86255">
        <ele>472</ele>
        <time>2016-04-17T07:08:45.000Z</time>
      </trkpt>
      <trkpt lat="43.69671" lon="5.86255">
        <ele>472</ele>
        <time>2016-04-17T07:08:49.000Z</time>
      </trkpt>
      <trkpt lat="43.69671" lon="5.86255">
        <ele>472</ele>
        <time>2016-04-17T07:08:51.000Z</time>
      </trkpt>
      <trkpt lat="43.69671" lon="5.86255">
        <ele>472</ele>
        <time>2016-04-17T07:08:53.000Z</time>
      </trkpt>
      <trkpt lat="43.69695" lon="5.86264">
        <ele>474</ele>
        <time>2016-04-17T07:08:57.000Z</time>
      </trkpt>
      <trkpt lat="43.69699" lon="5.86276">
        <ele>474</ele>
        <time>2016-04-17T07:09:03.000Z</time>
      </trkpt>
      <trkpt lat="43.69703" lon="5.86289">
        <ele>475</ele>
        <time>2016-04-17T07:09:09.000Z</time>
      </trkpt>
      <trkpt lat="43.69703" lon="5.86289">
        <ele>475</ele>
        <time>2016-04-17T07:09:15.000Z</time>
      </trkpt>
      <trkpt lat="43.69703" lon="5.86289">
        <ele>475</ele>
        <time>2016-04-17T07:09:17.000Z</time>
      </trkpt>
      <trkpt lat="43.69703" lon="5.86289">
        <ele>475</ele>
        <time>2016-04-17T07:09:19.000Z</time>
      </trkpt>
      <trkpt lat="43.69703" lon="5.86289">
        <ele>475</ele>
        <time>2016-04-17T07:09:21.000Z</time>
      </trkpt>
      <trkpt lat="43.69716" lon="5.86321">
        <ele>475</ele>
        <time>2016-04-17T07:09:29.000Z</time>
      </trkpt>
      <trkpt lat="43.6972" lon="5.86332">
        <ele>476</ele>
        <time>2016-04-17T07:09:35.000Z</time>
      </trkpt>
      <trkpt lat="43.69724" lon="5.86344">
        <ele>476</ele>
        <time>2016-04-17T07:09:41.000Z</time>
      </trkpt>
      <trkpt lat="43.69724" lon="5.86344">
        <ele>476</ele>
        <time>2016-04-17T07:09:43.000Z</time>
      </trkpt>
      <trkpt lat="43.69724" lon="5.86344">
        <ele>476</ele>
        <time>2016-04-17T07:09:45.000Z</time>
      </trkpt>
      <trkpt lat="43.69724" lon="5.86344">
        <ele>476</ele>
        <time>2016-04-17T07:09:47.000Z</time>
      </trkpt>
      <trkpt lat="43.69724" lon="5.86344">
        <ele>476</ele>
        <time>2016-04-17T07:09:49.000Z</time>
      </trkpt>
      <trkpt lat="43.69724" lon="5.86344">
        <ele>476</ele>
        <time>2016-04-17T07:09:51.000Z</time>
      </trkpt>
      <trkpt lat="43.69724" lon="5.86344">
        <ele>476</ele>
        <time>2016-04-17T07:09:53.000Z</time>
      </trkpt>
      <trkpt lat="43.69724" lon="5.86344">
        <ele>476</ele>
        <time>2016-04-17T07:09:55.000Z</time>
      </trkpt>
      <trkpt lat="43.69724" lon="5.86344">
        <ele>476</ele>
        <time>2016-04-17T07:09:57.000Z</time>
      </trkpt>
      <trkpt lat="43.69724" lon="5.86344">
        <ele>476</ele>
        <time>2016-04-17T07:09:59.000Z</time>
      </trkpt>
      <trkpt lat="43.69729" lon="5.86362">
        <ele>478</ele>
        <time>2016-04-17T07:10:01.000Z</time>
      </trkpt>
      <trkpt lat="43.69733" lon="5.86374">
        <ele>478</ele>
        <time>2016-04-17T07:10:03.000Z</time>
      </trkpt>
      <trkpt lat="43.69736" lon="5.86384">
        <ele>477</ele>
        <time>2016-04-17T07:10:05.000Z</time>
      </trkpt>
      <trkpt lat="43.69738" lon="5.86392">
        <ele>477</ele>
        <time>2016-04-17T07:10:07.000Z</time>
      </trkpt>
      <trkpt lat="43.69738" lon="5.86401">
        <ele>477</ele>
        <time>2016-04-17T07:10:09.000Z</time>
      </trkpt>
      <trkpt lat="43.69736" lon="5.86417">
        <ele>477</ele>
        <time>2016-04-17T07:10:11.000Z</time>
      </trkpt>
      <trkpt lat="43.69728" lon="5.86432">
        <ele>477</ele>
        <time>2016-04-17T07:10:15.000Z</time>
      </trkpt>
      <trkpt lat="43.69719" lon="5.86445">
        <ele>475</ele>
        <time>2016-04-17T07:10:19.000Z</time>
      </trkpt>
      <trkpt lat="43.69713" lon="5.86468">
        <ele>474</ele>
        <time>2016-04-17T07:10:23.000Z</time>
      </trkpt>
      <trkpt lat="43.69708" lon="5.86488">
        <ele>473</ele>
        <time>2016-04-17T07:10:27.000Z</time>
      </trkpt>
      <trkpt lat="43.69708" lon="5.86488">
        <ele>473</ele>
        <time>2016-04-17T07:10:29.000Z</time>
      </trkpt>
      <trkpt lat="43.69708" lon="5.86488">
        <ele>473</ele>
        <time>2016-04-17T07:10:31.000Z</time>
      </trkpt>
      <trkpt lat="43.69708" lon="5.86488">
        <ele>473</ele>
        <time>2016-04-17T07:10:33.000Z</time>
      </trkpt>
      <trkpt lat="43.69708" lon="5.86488">
        <ele>473</ele>
        <time>2016-04-17T07:10:35.000Z</time>
      </trkpt>
      <trkpt lat="43.69708" lon="5.86488">
        <ele>473</ele>
        <time>2016-04-17T07:10:37.000Z</time>
      </trkpt>
      <trkpt lat="43.69708" lon="5.86488">
        <ele>473</ele>
        <time>2016-04-17T07:10:39.000Z</time>
      </trkpt>
      <trkpt lat="43.69708" lon="5.86488">
        <ele>473</ele>
        <time>2016-04-17T07:10:41.000Z</time>
      </trkpt>
      <trkpt lat="43.69708" lon="5.86488">
        <ele>473</ele>
        <time>2016-04-17T07:10:43.000Z</time>
      </trkpt>
      <trkpt lat="43.69708" lon="5.86488">
        <ele>473</ele>
        <time>2016-04-17T07:10:45.000Z</time>
      </trkpt>
      <trkpt lat="43.69708" lon="5.86488">
        <ele>473</ele>
        <time>2016-04-17T07:10:51.000Z</time>
      </trkpt>
      <trkpt lat="43.69708" lon="5.86488">
        <ele>473</ele>
        <time>2016-04-17T07:10:53.000Z</time>
      </trkpt>
      <trkpt lat="43.69708" lon="5.86488">
        <ele>473</ele>
        <time>2016-04-17T07:10:55.000Z</time>
      </trkpt>
      <trkpt lat="43.69708" lon="5.86488">
        <ele>473</ele>
        <time>2016-04-17T07:10:57.000Z</time>
      </trkpt>
      <trkpt lat="43.69708" lon="5.86488">
        <ele>473</ele>
        <time>2016-04-17T07:10:59.000Z</time>
      </trkpt>
      <trkpt lat="43.69708" lon="5.86488">
        <ele>473</ele>
        <time>2016-04-17T07:11:01.000Z</time>
      </trkpt>
      <trkpt lat="43.69708" lon="5.86488">
        <ele>473</ele>
        <time>2016-04-17T07:11:03.000Z</time>
      </trkpt>
      <trkpt lat="43.69708" lon="5.86488">
        <ele>473</ele>
        <time>2016-04-17T07:11:05.000Z</time>
      </trkpt>
      <trkpt lat="43.69708" lon="5.86488">
        <ele>473</ele>
        <time>2016-04-17T07:11:07.000Z</time>
      </trkpt>
      <trkpt lat="43.69708" lon="5.86488">
        <ele>473</ele>
        <time>2016-04-17T07:11:09.000Z</time>
      </trkpt>
      <trkpt lat="43.69708" lon="5.86488">
        <ele>473</ele>
        <time>2016-04-17T07:11:11.000Z</time>
      </trkpt>
      <trkpt lat="43.69671" lon="5.8659">
        <ele>484</ele>
        <time>2016-04-17T07:11:15.000Z</time>
      </trkpt>
      <trkpt lat="43.69665" lon="5.86592">
        <ele>481</ele>
        <time>2016-04-17T07:11:23.000Z</time>
      </trkpt>
      <trkpt lat="43.69658" lon="5.86592">
        <ele>478</ele>
        <time>2016-04-17T07:11:25.000Z</time>
      </trkpt>
      <trkpt lat="43.69645" lon="5.86593">
        <ele>477</ele>
        <time>2016-04-17T07:11:28.000Z</time>
      </trkpt>
      <trkpt lat="43.69633" lon="5.86596">
        <ele>478</ele>
        <time>2016-04-17T07:11:30.000Z</time>
      </trkpt>
      <trkpt lat="43.69627" lon="5.86603">
        <ele>478</ele>
        <time>2016-04-17T07:11:32.000Z</time>
      </trkpt>
      <trkpt lat="43.69627" lon="5.86603">
        <ele>478</ele>
        <time>2016-04-17T07:11:34.000Z</time>
      </trkpt>
      <trkpt lat="43.69627" lon="5.86603">
        <ele>478</ele>
        <time>2016-04-17T07:11:36.000Z</time>
      </trkpt>
      <trkpt lat="43.69627" lon="5.86603">
        <ele>478</ele>
        <time>2016-04-17T07:11:38.000Z</time>
      </trkpt>
      <trkpt lat="43.69627" lon="5.86603">
        <ele>478</ele>
        <time>2016-04-17T07:11:40.000Z</time>
      </trkpt>
      <trkpt lat="43.69627" lon="5.86603">
        <ele>478</ele>
        <time>2016-04-17T07:11:42.000Z</time>
      </trkpt>
      <trkpt lat="43.69627" lon="5.86603">
        <ele>478</ele>
        <time>2016-04-17T07:11:44.000Z</time>
      </trkpt>
      <trkpt lat="43.69627" lon="5.86603">
        <ele>478</ele>
        <time>2016-04-17T07:11:46.000Z</time>
      </trkpt>
      <trkpt lat="43.69627" lon="5.86603">
        <ele>478</ele>
        <time>2016-04-17T07:11:48.000Z</time>
      </trkpt>
      <trkpt lat="43.69627" lon="5.86603">
        <ele>478</ele>
        <time>2016-04-17T07:11:50.000Z</time>
      </trkpt>
      <trkpt lat="43.69627" lon="5.86603">
        <ele>478</ele>
        <time>2016-04-17T07:11:52.000Z</time>
      </trkpt>
      <trkpt lat="43.69627" lon="5.86603">
        <ele>478</ele>
        <time>2016-04-17T07:11:54.000Z</time>
      </trkpt>
      <trkpt lat="43.69627" lon="5.86603">
        <ele>478</ele>
        <time>2016-04-17T07:11:56.000Z</time>
      </trkpt>
      <trkpt lat="43.69627" lon="5.86603">
        <ele>478</ele>
        <time>2016-04-17T07:11:58.000Z</time>
      </trkpt>
      <trkpt lat="43.69627" lon="5.86603">
        <ele>478</ele>
        <time>2016-04-17T07:12:00.000Z</time>
      </trkpt>
      <trkpt lat="43.69627" lon="5.86603">
        <ele>478</ele>
        <time>2016-04-17T07:12:02.000Z</time>
      </trkpt>
      <trkpt lat="43.69627" lon="5.86603">
        <ele>478</ele>
        <time>2016-04-17T07:12:04.000Z</time>
      </trkpt>
      <trkpt lat="43.69627" lon="5.86603">
        <ele>478</ele>
        <time>2016-04-17T07:12:06.000Z</time>
      </trkpt>
      <trkpt lat="43.69627" lon="5.86603">
        <ele>478</ele>
        <time>2016-04-17T07:12:08.000Z</time>
      </trkpt>
      <trkpt lat="43.69627" lon="5.86603">
        <ele>478</ele>
        <time>2016-04-17T07:12:10.000Z</time>
      </trkpt>
      <trkpt lat="43.69627" lon="5.86603">
        <ele>478</ele>
        <time>2016-04-17T07:12:12.000Z</time>
      </trkpt>
      <trkpt lat="43.69627" lon="5.86603">
        <ele>478</ele>
        <time>2016-04-17T07:12:14.000Z</time>
      </trkpt>
      <trkpt lat="43.69627" lon="5.86603">
        <ele>478</ele>
        <time>2016-04-17T07:12:16.000Z</time>
      </trkpt>
      <trkpt lat="43.69627" lon="5.86603">
        <ele>478</ele>
        <time>2016-04-17T07:12:18.000Z</time>
      </trkpt>
      <trkpt lat="43.69627" lon="5.86603">
        <ele>478</ele>
        <time>2016-04-17T07:12:20.000Z</time>
      </trkpt>
      <trkpt lat="43.69627" lon="5.86603">
        <ele>478</ele>
        <time>2016-04-17T07:12:22.000Z</time>
      </trkpt>
      <trkpt lat="43.69627" lon="5.86603">
        <ele>478</ele>
        <time>2016-04-17T07:12:24.000Z</time>
      </trkpt>
      <trkpt lat="43.69627" lon="5.86603">
        <ele>478</ele>
        <time>2016-04-17T07:12:26.000Z</time>
      </trkpt>
      <trkpt lat="43.69627" lon="5.86603">
        <ele>478</ele>
        <time>2016-04-17T07:12:28.000Z</time>
      </trkpt>
      <trkpt lat="43.69627" lon="5.86603">
        <ele>478</ele>
        <time>2016-04-17T07:12:30.000Z</time>
      </trkpt>
      <trkpt lat="43.69627" lon="5.86603">
        <ele>478</ele>
        <time>2016-04-17T07:12:32.000Z</time>
      </trkpt>
      <trkpt lat="43.69589" lon="5.86687">
        <ele>493</ele>
        <time>2016-04-17T07:12:42.000Z</time>
      </trkpt>
      <trkpt lat="43.69569" lon="5.8673">
        <ele>492</ele>
        <time>2016-04-17T07:12:44.000Z</time>
      </trkpt>
      <trkpt lat="43.69557" lon="5.8675">
        <ele>493</ele>
        <time>2016-04-17T07:12:46.000Z</time>
      </trkpt>
      <trkpt lat="43.69549" lon="5.8676">
        <ele>493</ele>
        <time>2016-04-17T07:12:48.000Z</time>
      </trkpt>
      <trkpt lat="43.69543" lon="5.86766">
        <ele>493</ele>
        <time>2016-04-17T07:12:50.000Z</time>
      </trkpt>
      <trkpt lat="43.69534" lon="5.86772">
        <ele>494</ele>
        <time>2016-04-17T07:12:52.000Z</time>
      </trkpt>
      <trkpt lat="43.69534" lon="5.86772">
        <ele>494</ele>
        <time>2016-04-17T07:12:54.000Z</time>
      </trkpt>
      <trkpt lat="43.69534" lon="5.86772">
        <ele>494</ele>
        <time>2016-04-17T07:12:56.000Z</time>
      </trkpt>
      <trkpt lat="43.69534" lon="5.86772">
        <ele>494</ele>
        <time>2016-04-17T07:12:58.000Z</time>
      </trkpt>
      <trkpt lat="43.69524" lon="5.86793">
        <ele>493</ele>
        <time>2016-04-17T07:13:02.000Z</time>
      </trkpt>
      <trkpt lat="43.69518" lon="5.86802">
        <ele>493</ele>
        <time>2016-04-17T07:13:06.000Z</time>
      </trkpt>
      <trkpt lat="43.69518" lon="5.86802">
        <ele>493</ele>
        <time>2016-04-17T07:13:10.000Z</time>
      </trkpt>
      <trkpt lat="43.69508" lon="5.86813">
        <ele>494</ele>
        <time>2016-04-17T07:13:12.000Z</time>
      </trkpt>
      <trkpt lat="43.69508" lon="5.86813">
        <ele>494</ele>
        <time>2016-04-17T07:13:14.000Z</time>
      </trkpt>
      <trkpt lat="43.69508" lon="5.86813">
        <ele>494</ele>
        <time>2016-04-17T07:13:16.000Z</time>
      </trkpt>
      <trkpt lat="43.69508" lon="5.86813">
        <ele>494</ele>
        <time>2016-04-17T07:13:18.000Z</time>
      </trkpt>
      <trkpt lat="43.69508" lon="5.86813">
        <ele>494</ele>
        <time>2016-04-17T07:13:20.000Z</time>
      </trkpt>
      <trkpt lat="43.69508" lon="5.86813">
        <ele>494</ele>
        <time>2016-04-17T07:13:22.000Z</time>
      </trkpt>
      <trkpt lat="43.69508" lon="5.86813">
        <ele>494</ele>
        <time>2016-04-17T07:13:24.000Z</time>
      </trkpt>
      <trkpt lat="43.69508" lon="5.86813">
        <ele>494</ele>
        <time>2016-04-17T07:13:26.000Z</time>
      </trkpt>
      <trkpt lat="43.69508" lon="5.86813">
        <ele>494</ele>
        <time>2016-04-17T07:13:28.000Z</time>
      </trkpt>
      <trkpt lat="43.69508" lon="5.86813">
        <ele>494</ele>
        <time>2016-04-17T07:13:30.000Z</time>
      </trkpt>
      <trkpt lat="43.69508" lon="5.86813">
        <ele>494</ele>
        <time>2016-04-17T07:13:32.000Z</time>
      </trkpt>
      <trkpt lat="43.69466" lon="5.86847">
        <ele>493</ele>
        <time>2016-04-17T07:13:34.000Z</time>
      </trkpt>
      <trkpt lat="43.69456" lon="5.86857">
        <ele>494</ele>
        <time>2016-04-17T07:13:36.000Z</time>
      </trkpt>
      <trkpt lat="43.69448" lon="5.86866">
        <ele>494</ele>
        <time>2016-04-17T07:13:38.000Z</time>
      </trkpt>
      <trkpt lat="43.6944" lon="5.86876">
        <ele>491</ele>
        <time>2016-04-17T07:13:40.000Z</time>
      </trkpt>
      <trkpt lat="43.69429" lon="5.86884">
        <ele>488</ele>
        <time>2016-04-17T07:13:42.000Z</time>
      </trkpt>
      <trkpt lat="43.69416" lon="5.86891">
        <ele>486</ele>
        <time>2016-04-17T07:13:44.000Z</time>
      </trkpt>
      <trkpt lat="43.69402" lon="5.86897">
        <ele>484</ele>
        <time>2016-04-17T07:13:46.000Z</time>
      </trkpt>
      <trkpt lat="43.69391" lon="5.86898">
        <ele>482</ele>
        <time>2016-04-17T07:13:48.000Z</time>
      </trkpt>
      <trkpt lat="43.69381" lon="5.869">
        <ele>480</ele>
        <time>2016-04-17T07:13:50.000Z</time>
      </trkpt>
      <trkpt lat="43.69376" lon="5.86916">
        <ele>477</ele>
        <time>2016-04-17T07:13:52.000Z</time>
      </trkpt>
      <trkpt lat="43.69368" lon="5.86929">
        <ele>476</ele>
        <time>2016-04-17T07:13:54.000Z</time>
      </trkpt>
      <trkpt lat="43.69362" lon="5.86939">
        <ele>475</ele>
        <time>2016-04-17T07:13:56.000Z</time>
      </trkpt>
      <trkpt lat="43.69362" lon="5.86939">
        <ele>475</ele>
        <time>2016-04-17T07:13:59.000Z</time>
      </trkpt>
      <trkpt lat="43.69362" lon="5.86939">
        <ele>475</ele>
        <time>2016-04-17T07:14:01.000Z</time>
      </trkpt>
      <trkpt lat="43.69362" lon="5.86939">
        <ele>475</ele>
        <time>2016-04-17T07:14:03.000Z</time>
      </trkpt>
      <trkpt lat="43.69366" lon="5.86955">
        <ele>477</ele>
        <time>2016-04-17T07:14:22.000Z</time>
      </trkpt>
      <trkpt lat="43.6937" lon="5.86968">
        <ele>478</ele>
        <time>2016-04-17T07:14:28.000Z</time>
      </trkpt>
      <trkpt lat="43.69366" lon="5.86982">
        <ele>479</ele>
        <time>2016-04-17T07:14:34.000Z</time>
      </trkpt>
      <trkpt lat="43.69357" lon="5.86988">
        <ele>479</ele>
        <time>2016-04-17T07:14:40.000Z</time>
      </trkpt>
      <trkpt lat="43.69357" lon="5.86988">
        <ele>479</ele>
        <time>2016-04-17T07:14:42.000Z</time>
      </trkpt>
      <trkpt lat="43.69357" lon="5.86988">
        <ele>479</ele>
        <time>2016-04-17T07:14:44.000Z</time>
      </trkpt>
      <trkpt lat="43.69357" lon="5.86988">
        <ele>479</ele>
        <time>2016-04-17T07:14:46.000Z</time>
      </trkpt>
      <trkpt lat="43.69357" lon="5.86988">
        <ele>479</ele>
        <time>2016-04-17T07:14:48.000Z</time>
      </trkpt>
      <trkpt lat="43.69357" lon="5.86988">
        <ele>479</ele>
        <time>2016-04-17T07:14:50.000Z</time>
      </trkpt>
      <trkpt lat="43.69357" lon="5.86988">
        <ele>479</ele>
        <time>2016-04-17T07:14:52.000Z</time>
      </trkpt>
      <trkpt lat="43.69357" lon="5.86988">
        <ele>479</ele>
        <time>2016-04-17T07:14:54.000Z</time>
      </trkpt>
      <trkpt lat="43.69357" lon="5.86988">
        <ele>479</ele>
        <time>2016-04-17T07:14:56.000Z</time>
      </trkpt>
      <trkpt lat="43.69357" lon="5.86988">
        <ele>479</ele>
        <time>2016-04-17T07:14:58.000Z</time>
      </trkpt>
      <trkpt lat="43.69357" lon="5.86988">
        <ele>479</ele>
        <time>2016-04-17T07:15:00.000Z</time>
      </trkpt>
      <trkpt lat="43.69357" lon="5.86988">
        <ele>479</ele>
        <time>2016-04-17T07:15:02.000Z</time>
      </trkpt>
      <trkpt lat="43.69357" lon="5.86988">
        <ele>479</ele>
        <time>2016-04-17T07:15:04.000Z</time>
      </trkpt>
      <trkpt lat="43.69357" lon="5.86988">
        <ele>479</ele>
        <time>2016-04-17T07:15:06.000Z</time>
      </trkpt>
      <trkpt lat="43.69357" lon="5.86988">
        <ele>479</ele>
        <time>2016-04-17T07:15:08.000Z</time>
      </trkpt>
      <trkpt lat="43.69357" lon="5.86988">
        <ele>479</ele>
        <time>2016-04-17T07:15:10.000Z</time>
      </trkpt>
      <trkpt lat="43.69357" lon="5.86988">
        <ele>479</ele>
        <time>2016-04-17T07:15:12.000Z</time>
      </trkpt>
      <trkpt lat="43.69318" lon="5.87013">
        <ele>481</ele>
        <time>2016-04-17T07:22:06.000Z</time>
      </trkpt>
      <trkpt lat="43.69318" lon="5.87013">
        <ele>481</ele>
        <time>2016-04-17T07:22:10.000Z</time>
      </trkpt>
      <trkpt lat="43.69318" lon="5.87013">
        <ele>481</ele>
        <time>2016-04-17T07:22:12.000Z</time>
      </trkpt>
      <trkpt lat="43.69318" lon="5.87013">
        <ele>481</ele>
        <time>2016-04-17T07:22:14.000Z</time>
      </trkpt>
      <trkpt lat="43.69293" lon="5.87005">
        <ele>478</ele>
        <time>2016-04-17T07:22:18.000Z</time>
      </trkpt>
      <trkpt lat="43.69281" lon="5.87005">
        <ele>475</ele>
        <time>2016-04-17T07:22:22.000Z</time>
      </trkpt>
      <trkpt lat="43.6927" lon="5.87008">
        <ele>473</ele>
        <time>2016-04-17T07:22:24.000Z</time>
      </trkpt>
      <trkpt lat="43.69259" lon="5.87008">
        <ele>470</ele>
        <time>2016-04-17T07:22:26.000Z</time>
      </trkpt>
      <trkpt lat="43.69249" lon="5.87007">
        <ele>468</ele>
        <time>2016-04-17T07:22:28.000Z</time>
      </trkpt>
      <trkpt lat="43.69238" lon="5.87005">
        <ele>465</ele>
        <time>2016-04-17T07:22:30.000Z</time>
      </trkpt>
      <trkpt lat="43.69238" lon="5.87005">
        <ele>465</ele>
        <time>2016-04-17T07:22:32.000Z</time>
      </trkpt>
      <trkpt lat="43.69238" lon="5.87005">
        <ele>465</ele>
        <time>2016-04-17T07:22:34.000Z</time>
      </trkpt>
      <trkpt lat="43.69238" lon="5.87005">
        <ele>465</ele>
        <time>2016-04-17T07:22:36.000Z</time>
      </trkpt>
      <trkpt lat="43.69238" lon="5.87005">
        <ele>465</ele>
        <time>2016-04-17T07:22:38.000Z</time>
      </trkpt>
      <trkpt lat="43.69238" lon="5.87005">
        <ele>465</ele>
        <time>2016-04-17T07:22:40.000Z</time>
      </trkpt>
      <trkpt lat="43.69238" lon="5.87005">
        <ele>465</ele>
        <time>2016-04-17T07:22:42.000Z</time>
      </trkpt>
      <trkpt lat="43.69238" lon="5.87005">
        <ele>465</ele>
        <time>2016-04-17T07:22:44.000Z</time>
      </trkpt>
      <trkpt lat="43.69201" lon="5.87046">
        <ele>460</ele>
        <time>2016-04-17T07:22:50.000Z</time>
      </trkpt>
      <trkpt lat="43.69192" lon="5.87054">
        <ele>459</ele>
        <time>2016-04-17T07:22:54.000Z</time>
      </trkpt>
      <trkpt lat="43.69192" lon="5.87054">
        <ele>459</ele>
        <time>2016-04-17T07:22:56.000Z</time>
      </trkpt>
      <trkpt lat="43.69192" lon="5.87054">
        <ele>459</ele>
        <time>2016-04-17T07:22:58.000Z</time>
      </trkpt>
      <trkpt lat="43.69192" lon="5.87054">
        <ele>459</ele>
        <time>2016-04-17T07:23:00.000Z</time>
      </trkpt>
      <trkpt lat="43.69192" lon="5.87054">
        <ele>459</ele>
        <time>2016-04-17T07:23:02.000Z</time>
      </trkpt>
      <trkpt lat="43.69192" lon="5.87054">
        <ele>459</ele>
        <time>2016-04-17T07:23:04.000Z</time>
      </trkpt>
      <trkpt lat="43.69192" lon="5.87054">
        <ele>459</ele>
        <time>2016-04-17T07:23:06.000Z</time>
      </trkpt>
      <trkpt lat="43.69192" lon="5.87054">
        <ele>459</ele>
        <time>2016-04-17T07:23:08.000Z</time>
      </trkpt>
      <trkpt lat="43.69192" lon="5.87054">
        <ele>459</ele>
        <time>2016-04-17T07:23:10.000Z</time>
      </trkpt>
      <trkpt lat="43.69192" lon="5.87054">
        <ele>459</ele>
        <time>2016-04-17T07:23:12.000Z</time>
      </trkpt>
      <trkpt lat="43.69192" lon="5.87054">
        <ele>459</ele>
        <time>2016-04-17T07:23:14.000Z</time>
      </trkpt>
      <trkpt lat="43.69162" lon="5.87096">
        <ele>460</ele>
        <time>2016-04-17T07:23:20.000Z</time>
      </trkpt>
      <trkpt lat="43.69162" lon="5.87096">
        <ele>460</ele>
        <time>2016-04-17T07:23:22.000Z</time>
      </trkpt>
      <trkpt lat="43.69162" lon="5.87096">
        <ele>460</ele>
        <time>2016-04-17T07:23:24.000Z</time>
      </trkpt>
      <trkpt lat="43.69162" lon="5.87096">
        <ele>460</ele>
        <time>2016-04-17T07:23:26.000Z</time>
      </trkpt>
      <trkpt lat="43.69162" lon="5.87096">
        <ele>460</ele>
        <time>2016-04-17T07:23:28.000Z</time>
      </trkpt>
      <trkpt lat="43.69162" lon="5.87096">
        <ele>460</ele>
        <time>2016-04-17T07:23:30.000Z</time>
      </trkpt>
      <trkpt lat="43.69162" lon="5.87096">
        <ele>460</ele>
        <time>2016-04-17T07:23:32.000Z</time>
      </trkpt>
      <trkpt lat="43.69162" lon="5.87096">
        <ele>460</ele>
        <time>2016-04-17T07:23:34.000Z</time>
      </trkpt>
      <trkpt lat="43.69149" lon="5.871">
        <ele>459</ele>
        <time>2016-04-17T07:23:36.000Z</time>
      </trkpt>
      <trkpt lat="43.69139" lon="5.87102">
        <ele>458</ele>
        <time>2016-04-17T07:23:38.000Z</time>
      </trkpt>
      <trkpt lat="43.69128" lon="5.87101">
        <ele>458</ele>
        <time>2016-04-17T07:23:40.000Z</time>
      </trkpt>
      <trkpt lat="43.6912" lon="5.871">
        <ele>458</ele>
        <time>2016-04-17T07:23:42.000Z</time>
      </trkpt>
      <trkpt lat="43.69114" lon="5.87098">
        <ele>458</ele>
        <time>2016-04-17T07:23:44.000Z</time>
      </trkpt>
      <trkpt lat="43.69114" lon="5.87098">
        <ele>458</ele>
        <time>2016-04-17T07:23:46.000Z</time>
      </trkpt>
      <trkpt lat="43.69114" lon="5.87098">
        <ele>458</ele>
        <time>2016-04-17T07:23:48.000Z</time>
      </trkpt>
      <trkpt lat="43.69114" lon="5.87098">
        <ele>458</ele>
        <time>2016-04-17T07:23:50.000Z</time>
      </trkpt>
      <trkpt lat="43.69114" lon="5.87098">
        <ele>458</ele>
        <time>2016-04-17T07:23:52.000Z</time>
      </trkpt>
      <trkpt lat="43.69114" lon="5.87098">
        <ele>458</ele>
        <time>2016-04-17T07:23:54.000Z</time>
      </trkpt>
      <trkpt lat="43.69114" lon="5.87098">
        <ele>458</ele>
        <time>2016-04-17T07:23:56.000Z</time>
      </trkpt>
      <trkpt lat="43.69114" lon="5.87098">
        <ele>458</ele>
        <time>2016-04-17T07:23:58.000Z</time>
      </trkpt>
      <trkpt lat="43.69114" lon="5.87098">
        <ele>458</ele>
        <time>2016-04-17T07:24:00.000Z</time>
      </trkpt>
      <trkpt lat="43.69114" lon="5.87098">
        <ele>458</ele>
        <time>2016-04-17T07:24:02.000Z</time>
      </trkpt>
      <trkpt lat="43.69114" lon="5.87098">
        <ele>458</ele>
        <time>2016-04-17T07:24:04.000Z</time>
      </trkpt>
      <trkpt lat="43.69114" lon="5.87098">
        <ele>458</ele>
        <time>2016-04-17T07:24:06.000Z</time>
      </trkpt>
      <trkpt lat="43.69114" lon="5.87098">
        <ele>458</ele>
        <time>2016-04-17T07:24:08.000Z</time>
      </trkpt>
      <trkpt lat="43.69114" lon="5.87098">
        <ele>458</ele>
        <time>2016-04-17T07:24:10.000Z</time>
      </trkpt>
      <trkpt lat="43.69114" lon="5.87098">
        <ele>458</ele>
        <time>2016-04-17T07:24:12.000Z</time>
      </trkpt>
      <trkpt lat="43.69114" lon="5.87098">
        <ele>458</ele>
        <time>2016-04-17T07:24:14.000Z</time>
      </trkpt>
      <trkpt lat="43.69114" lon="5.87098">
        <ele>458</ele>
        <time>2016-04-17T07:24:16.000Z</time>
      </trkpt>
      <trkpt lat="43.69114" lon="5.87098">
        <ele>458</ele>
        <time>2016-04-17T07:24:18.000Z</time>
      </trkpt>
      <trkpt lat="43.69039" lon="5.87057">
        <ele>463</ele>
        <time>2016-04-17T07:24:20.000Z</time>
      </trkpt>
      <trkpt lat="43.6903" lon="5.87053">
        <ele>463</ele>
        <time>2016-04-17T07:24:22.000Z</time>
      </trkpt>
      <trkpt lat="43.69021" lon="5.87042">
        <ele>461</ele>
        <time>2016-04-17T07:24:24.000Z</time>
      </trkpt>
      <trkpt lat="43.69015" lon="5.87028">
        <ele>461</ele>
        <time>2016-04-17T07:24:26.000Z</time>
      </trkpt>
      <trkpt lat="43.69004" lon="5.87015">
        <ele>463</ele>
        <time>2016-04-17T07:24:30.000Z</time>
      </trkpt>
      <trkpt lat="43.69004" lon="5.87015">
        <ele>463</ele>
        <time>2016-04-17T07:24:32.000Z</time>
      </trkpt>
      <trkpt lat="43.69004" lon="5.87015">
        <ele>463</ele>
        <time>2016-04-17T07:24:34.000Z</time>
      </trkpt>
      <trkpt lat="43.69004" lon="5.87015">
        <ele>463</ele>
        <time>2016-04-17T07:24:36.000Z</time>
      </trkpt>
      <trkpt lat="43.69004" lon="5.87015">
        <ele>463</ele>
        <time>2016-04-17T07:24:38.000Z</time>
      </trkpt>
      <trkpt lat="43.69004" lon="5.87015">
        <ele>463</ele>
        <time>2016-04-17T07:24:40.000Z</time>
      </trkpt>
      <trkpt lat="43.68982" lon="5.86964">
        <ele>461</ele>
        <time>2016-04-17T07:24:48.000Z</time>
      </trkpt>
      <trkpt lat="43.68982" lon="5.86947">
        <ele>461</ele>
        <time>2016-04-17T07:24:52.000Z</time>
      </trkpt>
      <trkpt lat="43.68974" lon="5.86934">
        <ele>461</ele>
        <time>2016-04-17T07:24:56.000Z</time>
      </trkpt>
      <trkpt lat="43.68974" lon="5.86934">
        <ele>461</ele>
        <time>2016-04-17T07:25:00.000Z</time>
      </trkpt>
      <trkpt lat="43.68974" lon="5.86934">
        <ele>461</ele>
        <time>2016-04-17T07:25:02.000Z</time>
      </trkpt>
      <trkpt lat="43.68974" lon="5.86934">
        <ele>461</ele>
        <time>2016-04-17T07:25:04.000Z</time>
      </trkpt>
      <trkpt lat="43.68974" lon="5.86934">
        <ele>461</ele>
        <time>2016-04-17T07:25:06.000Z</time>
      </trkpt>
      <trkpt lat="43.68974" lon="5.86934">
        <ele>461</ele>
        <time>2016-04-17T07:25:08.000Z</time>
      </trkpt>
      <trkpt lat="43.68974" lon="5.86934">
        <ele>461</ele>
        <time>2016-04-17T07:25:10.000Z</time>
      </trkpt>
      <trkpt lat="43.68974" lon="5.86934">
        <ele>461</ele>
        <time>2016-04-17T07:25:12.000Z</time>
      </trkpt>
      <trkpt lat="43.68974" lon="5.86934">
        <ele>461</ele>
        <time>2016-04-17T07:25:14.000Z</time>
      </trkpt>
      <trkpt lat="43.68974" lon="5.86934">
        <ele>461</ele>
        <time>2016-04-17T07:25:16.000Z</time>
      </trkpt>
      <trkpt lat="43.68974" lon="5.86934">
        <ele>461</ele>
        <time>2016-04-17T07:25:18.000Z</time>
      </trkpt>
      <trkpt lat="43.68974" lon="5.86934">
        <ele>461</ele>
        <time>2016-04-17T07:25:20.000Z</time>
      </trkpt>
      <trkpt lat="43.68974" lon="5.86934">
        <ele>461</ele>
        <time>2016-04-17T07:25:22.000Z</time>
      </trkpt>
      <trkpt lat="43.68974" lon="5.86934">
        <ele>461</ele>
        <time>2016-04-17T07:25:24.000Z</time>
      </trkpt>
      <trkpt lat="43.68974" lon="5.86934">
        <ele>461</ele>
        <time>2016-04-17T07:25:26.000Z</time>
      </trkpt>
      <trkpt lat="43.68974" lon="5.86934">
        <ele>461</ele>
        <time>2016-04-17T07:25:28.000Z</time>
      </trkpt>
      <trkpt lat="43.68974" lon="5.86934">
        <ele>461</ele>
        <time>2016-04-17T07:25:30.000Z</time>
      </trkpt>
      <trkpt lat="43.68974" lon="5.86934">
        <ele>461</ele>
        <time>2016-04-17T07:25:32.000Z</time>
      </trkpt>
      <trkpt lat="43.68974" lon="5.86934">
        <ele>461</ele>
        <time>2016-04-17T07:25:34.000Z</time>
      </trkpt>
      <trkpt lat="43.68974" lon="5.86934">
        <ele>461</ele>
        <time>2016-04-17T07:25:36.000Z</time>
      </trkpt>
      <trkpt lat="43.68974" lon="5.86934">
        <ele>461</ele>
        <time>2016-04-17T07:25:38.000Z</time>
      </trkpt>
      <trkpt lat="43.68974" lon="5.86934">
        <ele>461</ele>
        <time>2016-04-17T07:25:40.000Z</time>
      </trkpt>
      <trkpt lat="43.68974" lon="5.86934">
        <ele>461</ele>
        <time>2016-04-17T07:25:42.000Z</time>
      </trkpt>
      <trkpt lat="43.68974" lon="5.86934">
        <ele>461</ele>
        <time>2016-04-17T07:25:44.000Z</time>
      </trkpt>
      <trkpt lat="43.68974" lon="5.86934">
        <ele>461</ele>
        <time>2016-04-17T07:25:46.000Z</time>
      </trkpt>
      <trkpt lat="43.68974" lon="5.86934">
        <ele>461</ele>
        <time>2016-04-17T07:25:48.000Z</time>
      </trkpt>
      <trkpt lat="43.68974" lon="5.86934">
        <ele>461</ele>
        <time>2016-04-17T07:25:50.000Z</time>
      </trkpt>
      <trkpt lat="43.68974" lon="5.86934">
        <ele>461</ele>
        <time>2016-04-17T07:25:52.000Z</time>
      </trkpt>
      <trkpt lat="43.68956" lon="5.86981">
        <ele>471</ele>
        <time>2016-04-17T07:25:58.000Z</time>
      </trkpt>
      <trkpt lat="43.68946" lon="5.87007">
        <ele>472</ele>
        <time>2016-04-17T07:26:00.000Z</time>
      </trkpt>
      <trkpt lat="43.68941" lon="5.87022">
        <ele>472</ele>
        <time>2016-04-17T07:26:02.000Z</time>
      </trkpt>
      <trkpt lat="43.6894" lon="5.87031">
        <ele>473</ele>
        <time>2016-04-17T07:26:04.000Z</time>
      </trkpt>
      <trkpt lat="43.68938" lon="5.87039">
        <ele>473</ele>
        <time>2016-04-17T07:26:06.000Z</time>
      </trkpt>
      <trkpt lat="43.68937" lon="5.87055">
        <ele>473</ele>
        <time>2016-04-17T07:26:10.000Z</time>
      </trkpt>
      <trkpt lat="43.6894" lon="5.87067">
        <ele>474</ele>
        <time>2016-04-17T07:26:16.000Z</time>
      </trkpt>
      <trkpt lat="43.68946" lon="5.87079">
        <ele>474</ele>
        <time>2016-04-17T07:26:22.000Z</time>
      </trkpt>
      <trkpt lat="43.6895" lon="5.87092">
        <ele>475</ele>
        <time>2016-04-17T07:26:28.000Z</time>
      </trkpt>
      <trkpt lat="43.68953" lon="5.87105">
        <ele>475</ele>
        <time>2016-04-17T07:26:34.000Z</time>
      </trkpt>
      <trkpt lat="43.68955" lon="5.87118">
        <ele>476</ele>
        <time>2016-04-17T07:26:40.000Z</time>
      </trkpt>
      <trkpt lat="43.68956" lon="5.87131">
        <ele>476</ele>
        <time>2016-04-17T07:26:46.000Z</time>
      </trkpt>
      <trkpt lat="43.68959" lon="5.87146">
        <ele>477</ele>
        <time>2016-04-17T07:26:54.000Z</time>
      </trkpt>
      <trkpt lat="43.68964" lon="5.87161">
        <ele>477</ele>
        <time>2016-04-17T07:27:02.000Z</time>
      </trkpt>
      <trkpt lat="43.68964" lon="5.87161">
        <ele>477</ele>
        <time>2016-04-17T07:27:10.000Z</time>
      </trkpt>
      <trkpt lat="43.68964" lon="5.87161">
        <ele>477</ele>
        <time>2016-04-17T07:27:12.000Z</time>
      </trkpt>
      <trkpt lat="43.68964" lon="5.87161">
        <ele>477</ele>
        <time>2016-04-17T07:27:14.000Z</time>
      </trkpt>
      <trkpt lat="43.68972" lon="5.87192">
        <ele>479</ele>
        <time>2016-04-17T07:27:18.000Z</time>
      </trkpt>
      <trkpt lat="43.68974" lon="5.87205">
        <ele>479</ele>
        <time>2016-04-17T07:27:24.000Z</time>
      </trkpt>
      <trkpt lat="43.68975" lon="5.87212">
        <ele>480</ele>
        <time>2016-04-17T07:27:30.000Z</time>
      </trkpt>
      <trkpt lat="43.68977" lon="5.87219">
        <ele>480</ele>
        <time>2016-04-17T07:27:34.000Z</time>
      </trkpt>
      <trkpt lat="43.68979" lon="5.87226">
        <ele>480</ele>
        <time>2016-04-17T07:27:38.000Z</time>
      </trkpt>
      <trkpt lat="43.6898" lon="5.87234">
        <ele>480</ele>
        <time>2016-04-17T07:27:42.000Z</time>
      </trkpt>
      <trkpt lat="43.68979" lon="5.87241">
        <ele>481</ele>
        <time>2016-04-17T07:27:46.000Z</time>
      </trkpt>
      <trkpt lat="43.68974" lon="5.87242">
        <ele>482</ele>
        <time>2016-04-17T07:27:52.000Z</time>
      </trkpt>
      <trkpt lat="43.68969" lon="5.87243">
        <ele>481</ele>
        <time>2016-04-17T07:27:54.000Z</time>
      </trkpt>
      <trkpt lat="43.68969" lon="5.87243">
        <ele>481</ele>
        <time>2016-04-17T07:27:58.000Z</time>
      </trkpt>
      <trkpt lat="43.68969" lon="5.87243">
        <ele>481</ele>
        <time>2016-04-17T07:28:00.000Z</time>
      </trkpt>
      <trkpt lat="43.68969" lon="5.87243">
        <ele>481</ele>
        <time>2016-04-17T07:28:02.000Z</time>
      </trkpt>
      <trkpt lat="43.68969" lon="5.87243">
        <ele>481</ele>
        <time>2016-04-17T07:28:04.000Z</time>
      </trkpt>
      <trkpt lat="43.68969" lon="5.87243">
        <ele>481</ele>
        <time>2016-04-17T07:28:06.000Z</time>
      </trkpt>
      <trkpt lat="43.68969" lon="5.87243">
        <ele>481</ele>
        <time>2016-04-17T07:28:08.000Z</time>
      </trkpt>
      <trkpt lat="43.68969" lon="5.87243">
        <ele>481</ele>
        <time>2016-04-17T07:28:10.000Z</time>
      </trkpt>
      <trkpt lat="43.68942" lon="5.87266">
        <ele>480</ele>
        <time>2016-04-17T07:28:29.000Z</time>
      </trkpt>
      <trkpt lat="43.68914" lon="5.87289">
        <ele>475</ele>
        <time>2016-04-17T07:28:34.000Z</time>
      </trkpt>
      <trkpt lat="43.689" lon="5.87296">
        <ele>473</ele>
        <time>2016-04-17T07:28:36.000Z</time>
      </trkpt>
      <trkpt lat="43.68886" lon="5.87299">
        <ele>471</ele>
        <time>2016-04-17T07:28:38.000Z</time>
      </trkpt>
      <trkpt lat="43.68873" lon="5.87307">
        <ele>471</ele>
        <time>2016-04-17T07:28:40.000Z</time>
      </trkpt>
      <trkpt lat="43.6886" lon="5.8731">
        <ele>469</ele>
        <time>2016-04-17T07:28:43.000Z</time>
      </trkpt>
      <trkpt lat="43.68851" lon="5.87316">
        <ele>468</ele>
        <time>2016-04-17T07:28:45.000Z</time>
      </trkpt>
      <trkpt lat="43.68841" lon="5.87326">
        <ele>468</ele>
        <time>2016-04-17T07:28:47.000Z</time>
      </trkpt>
      <trkpt lat="43.6883" lon="5.87336">
        <ele>468</ele>
        <time>2016-04-17T07:28:49.000Z</time>
      </trkpt>
      <trkpt lat="43.68821" lon="5.87351">
        <ele>467</ele>
        <time>2016-04-17T07:28:51.000Z</time>
      </trkpt>
      <trkpt lat="43.68818" lon="5.8737">
        <ele>467</ele>
        <time>2016-04-17T07:28:53.000Z</time>
      </trkpt>
      <trkpt lat="43.68816" lon="5.87389">
        <ele>467</ele>
        <time>2016-04-17T07:28:55.000Z</time>
      </trkpt>
      <trkpt lat="43.68813" lon="5.87403">
        <ele>467</ele>
        <time>2016-04-17T07:28:57.000Z</time>
      </trkpt>
      <trkpt lat="43.68813" lon="5.87403">
        <ele>467</ele>
        <time>2016-04-17T07:28:59.000Z</time>
      </trkpt>
      <trkpt lat="43.68813" lon="5.87403">
        <ele>467</ele>
        <time>2016-04-17T07:29:01.000Z</time>
      </trkpt>
      <trkpt lat="43.68813" lon="5.87403">
        <ele>467</ele>
        <time>2016-04-17T07:29:03.000Z</time>
      </trkpt>
      <trkpt lat="43.68813" lon="5.87403">
        <ele>467</ele>
        <time>2016-04-17T07:29:05.000Z</time>
      </trkpt>
      <trkpt lat="43.68813" lon="5.87403">
        <ele>467</ele>
        <time>2016-04-17T07:29:07.000Z</time>
      </trkpt>
      <trkpt lat="43.68813" lon="5.87403">
        <ele>467</ele>
        <time>2016-04-17T07:29:09.000Z</time>
      </trkpt>
      <trkpt lat="43.68813" lon="5.87403">
        <ele>467</ele>
        <time>2016-04-17T07:29:11.000Z</time>
      </trkpt>
      <trkpt lat="43.68813" lon="5.87403">
        <ele>467</ele>
        <time>2016-04-17T07:29:13.000Z</time>
      </trkpt>
      <trkpt lat="43.68794" lon="5.87475">
        <ele>465</ele>
        <time>2016-04-17T07:29:17.000Z</time>
      </trkpt>
      <trkpt lat="43.68792" lon="5.8749">
        <ele>465</ele>
        <time>2016-04-17T07:29:21.000Z</time>
      </trkpt>
      <trkpt lat="43.68792" lon="5.8749">
        <ele>465</ele>
        <time>2016-04-17T07:29:23.000Z</time>
      </trkpt>
      <trkpt lat="43.68792" lon="5.8749">
        <ele>465</ele>
        <time>2016-04-17T07:29:25.000Z</time>
      </trkpt>
      <trkpt lat="43.68792" lon="5.8749">
        <ele>465</ele>
        <time>2016-04-17T07:29:27.000Z</time>
      </trkpt>
      <trkpt lat="43.68792" lon="5.8749">
        <ele>465</ele>
        <time>2016-04-17T07:29:29.000Z</time>
      </trkpt>
      <trkpt lat="43.68792" lon="5.8749">
        <ele>465</ele>
        <time>2016-04-17T07:29:31.000Z</time>
      </trkpt>
      <trkpt lat="43.68792" lon="5.8749">
        <ele>465</ele>
        <time>2016-04-17T07:29:33.000Z</time>
      </trkpt>
      <trkpt lat="43.68793" lon="5.87543">
        <ele>466</ele>
        <time>2016-04-17T07:29:35.000Z</time>
      </trkpt>
      <trkpt lat="43.68793" lon="5.87543">
        <ele>466</ele>
        <time>2016-04-17T07:29:37.000Z</time>
      </trkpt>
      <trkpt lat="43.68793" lon="5.87543">
        <ele>466</ele>
        <time>2016-04-17T07:29:39.000Z</time>
      </trkpt>
      <trkpt lat="43.68793" lon="5.87543">
        <ele>466</ele>
        <time>2016-04-17T07:29:41.000Z</time>
      </trkpt>
      <trkpt lat="43.68793" lon="5.87543">
        <ele>466</ele>
        <time>2016-04-17T07:29:43.000Z</time>
      </trkpt>
      <trkpt lat="43.68766" lon="5.8756">
        <ele>468</ele>
        <time>2016-04-17T07:29:49.000Z</time>
      </trkpt>
      <trkpt lat="43.68755" lon="5.87558">
        <ele>469</ele>
        <time>2016-04-17T07:29:53.000Z</time>
      </trkpt>
      <trkpt lat="43.68745" lon="5.87552">
        <ele>469</ele>
        <time>2016-04-17T07:29:57.000Z</time>
      </trkpt>
      <trkpt lat="43.68735" lon="5.87548">
        <ele>468</ele>
        <time>2016-04-17T07:30:01.000Z</time>
      </trkpt>
      <trkpt lat="43.68735" lon="5.87548">
        <ele>468</ele>
        <time>2016-04-17T07:30:05.000Z</time>
      </trkpt>
      <trkpt lat="43.68735" lon="5.87548">
        <ele>468</ele>
        <time>2016-04-17T07:30:07.000Z</time>
      </trkpt>
      <trkpt lat="43.68735" lon="5.87548">
        <ele>468</ele>
        <time>2016-04-17T07:30:09.000Z</time>
      </trkpt>
      <trkpt lat="43.68735" lon="5.87548">
        <ele>468</ele>
        <time>2016-04-17T07:30:11.000Z</time>
      </trkpt>
      <trkpt lat="43.6872" lon="5.87543">
        <ele>469</ele>
        <time>2016-04-17T07:30:17.000Z</time>
      </trkpt>
      <trkpt lat="43.6871" lon="5.8754">
        <ele>469</ele>
        <time>2016-04-17T07:30:19.000Z</time>
      </trkpt>
      <trkpt lat="43.68702" lon="5.87539">
        <ele>469</ele>
        <time>2016-04-17T07:30:21.000Z</time>
      </trkpt>
      <trkpt lat="43.68697" lon="5.87542">
        <ele>471</ele>
        <time>2016-04-17T07:30:23.000Z</time>
      </trkpt>
      <trkpt lat="43.68693" lon="5.87546">
        <ele>468</ele>
        <time>2016-04-17T07:30:25.000Z</time>
      </trkpt>
      <trkpt lat="43.68686" lon="5.87554">
        <ele>467</ele>
        <time>2016-04-17T07:30:27.000Z</time>
      </trkpt>
      <trkpt lat="43.68686" lon="5.87554">
        <ele>467</ele>
        <time>2016-04-17T07:30:29.000Z</time>
      </trkpt>
      <trkpt lat="43.68686" lon="5.87554">
        <ele>467</ele>
        <time>2016-04-17T07:30:31.000Z</time>
      </trkpt>
      <trkpt lat="43.68686" lon="5.87554">
        <ele>467</ele>
        <time>2016-04-17T07:30:33.000Z</time>
      </trkpt>
      <trkpt lat="43.68686" lon="5.87554">
        <ele>467</ele>
        <time>2016-04-17T07:30:35.000Z</time>
      </trkpt>
      <trkpt lat="43.68686" lon="5.87554">
        <ele>467</ele>
        <time>2016-04-17T07:30:37.000Z</time>
      </trkpt>
      <trkpt lat="43.68686" lon="5.87554">
        <ele>467</ele>
        <time>2016-04-17T07:30:39.000Z</time>
      </trkpt>
      <trkpt lat="43.68686" lon="5.87554">
        <ele>467</ele>
        <time>2016-04-17T07:30:43.000Z</time>
      </trkpt>
      <trkpt lat="43.68686" lon="5.87554">
        <ele>467</ele>
        <time>2016-04-17T07:30:45.000Z</time>
      </trkpt>
      <trkpt lat="43.68686" lon="5.87554">
        <ele>467</ele>
        <time>2016-04-17T07:30:47.000Z</time>
      </trkpt>
      <trkpt lat="43.68647" lon="5.87572">
        <ele>470</ele>
        <time>2016-04-17T07:30:51.000Z</time>
      </trkpt>
      <trkpt lat="43.68639" lon="5.87558">
        <ele>469</ele>
        <time>2016-04-17T07:30:57.000Z</time>
      </trkpt>
      <trkpt lat="43.68639" lon="5.87558">
        <ele>469</ele>
        <time>2016-04-17T07:30:59.000Z</time>
      </trkpt>
      <trkpt lat="43.68639" lon="5.87558">
        <ele>469</ele>
        <time>2016-04-17T07:31:01.000Z</time>
      </trkpt>
      <trkpt lat="43.68639" lon="5.87558">
        <ele>469</ele>
        <time>2016-04-17T07:31:03.000Z</time>
      </trkpt>
      <trkpt lat="43.68639" lon="5.87558">
        <ele>469</ele>
        <time>2016-04-17T07:31:05.000Z</time>
      </trkpt>
      <trkpt lat="43.68639" lon="5.87558">
        <ele>469</ele>
        <time>2016-04-17T07:31:07.000Z</time>
      </trkpt>
      <trkpt lat="43.68639" lon="5.87558">
        <ele>469</ele>
        <time>2016-04-17T07:31:09.000Z</time>
      </trkpt>
      <trkpt lat="43.68614" lon="5.87567">
        <ele>469</ele>
        <time>2016-04-17T07:31:15.000Z</time>
      </trkpt>
      <trkpt lat="43.68605" lon="5.87573">
        <ele>470</ele>
        <time>2016-04-17T07:31:21.000Z</time>
      </trkpt>
      <trkpt lat="43.68596" lon="5.87581">
        <ele>470</ele>
        <time>2016-04-17T07:31:27.000Z</time>
      </trkpt>
      <trkpt lat="43.68587" lon="5.87592">
        <ele>471</ele>
        <time>2016-04-17T07:31:33.000Z</time>
      </trkpt>
      <trkpt lat="43.68579" lon="5.87603">
        <ele>471</ele>
        <time>2016-04-17T07:31:39.000Z</time>
      </trkpt>
      <trkpt lat="43.68575" lon="5.87607">
        <ele>470</ele>
        <time>2016-04-17T07:31:43.000Z</time>
      </trkpt>
      <trkpt lat="43.68569" lon="5.87612">
        <ele>470</ele>
        <time>2016-04-17T07:31:45.000Z</time>
      </trkpt>
      <trkpt lat="43.68563" lon="5.87619">
        <ele>469</ele>
        <time>2016-04-17T07:31:47.000Z</time>
      </trkpt>
      <trkpt lat="43.68556" lon="5.87624">
        <ele>468</ele>
        <time>2016-04-17T07:31:49.000Z</time>
      </trkpt>
      <trkpt lat="43.68546" lon="5.87629">
        <ele>468</ele>
        <time>2016-04-17T07:31:51.000Z</time>
      </trkpt>
      <trkpt lat="43.68528" lon="5.87642">
        <ele>468</ele>
        <time>2016-04-17T07:31:53.000Z</time>
      </trkpt>
      <trkpt lat="43.68521" lon="5.87652">
        <ele>469</ele>
        <time>2016-04-17T07:31:55.000Z</time>
      </trkpt>
      <trkpt lat="43.68521" lon="5.87652">
        <ele>469</ele>
        <time>2016-04-17T07:31:57.000Z</time>
      </trkpt>
      <trkpt lat="43.68521" lon="5.87652">
        <ele>469</ele>
        <time>2016-04-17T07:31:59.000Z</time>
      </trkpt>
      <trkpt lat="43.68521" lon="5.87652">
        <ele>469</ele>
        <time>2016-04-17T07:32:01.000Z</time>
      </trkpt>
      <trkpt lat="43.68521" lon="5.87652">
        <ele>469</ele>
        <time>2016-04-17T07:32:03.000Z</time>
      </trkpt>
      <trkpt lat="43.68521" lon="5.87652">
        <ele>469</ele>
        <time>2016-04-17T07:32:05.000Z</time>
      </trkpt>
      <trkpt lat="43.68521" lon="5.87652">
        <ele>469</ele>
        <time>2016-04-17T07:32:07.000Z</time>
      </trkpt>
      <trkpt lat="43.68521" lon="5.87652">
        <ele>469</ele>
        <time>2016-04-17T07:32:09.000Z</time>
      </trkpt>
      <trkpt lat="43.68521" lon="5.87652">
        <ele>469</ele>
        <time>2016-04-17T07:32:11.000Z</time>
      </trkpt>
      <trkpt lat="43.68521" lon="5.87652">
        <ele>469</ele>
        <time>2016-04-17T07:32:13.000Z</time>
      </trkpt>
      <trkpt lat="43.68521" lon="5.87652">
        <ele>469</ele>
        <time>2016-04-17T07:32:15.000Z</time>
      </trkpt>
      <trkpt lat="43.68521" lon="5.87652">
        <ele>469</ele>
        <time>2016-04-17T07:32:17.000Z</time>
      </trkpt>
      <trkpt lat="43.68521" lon="5.87652">
        <ele>469</ele>
        <time>2016-04-17T07:32:19.000Z</time>
      </trkpt>
      <trkpt lat="43.68521" lon="5.87652">
        <ele>469</ele>
        <time>2016-04-17T07:32:21.000Z</time>
      </trkpt>
      <trkpt lat="43.68475" lon="5.8775">
        <ele>469</ele>
        <time>2016-04-17T07:32:25.000Z</time>
      </trkpt>
      <trkpt lat="43.68472" lon="5.87767">
        <ele>469</ele>
        <time>2016-04-17T07:32:29.000Z</time>
      </trkpt>
      <trkpt lat="43.6847" lon="5.87786">
        <ele>469</ele>
        <time>2016-04-17T07:32:33.000Z</time>
      </trkpt>
      <trkpt lat="43.6847" lon="5.87805">
        <ele>470</ele>
        <time>2016-04-17T07:32:37.000Z</time>
      </trkpt>
      <trkpt lat="43.68469" lon="5.87823">
        <ele>470</ele>
        <time>2016-04-17T07:32:41.000Z</time>
      </trkpt>
      <trkpt lat="43.68471" lon="5.87841">
        <ele>470</ele>
        <time>2016-04-17T07:32:45.000Z</time>
      </trkpt>
      <trkpt lat="43.68471" lon="5.87841">
        <ele>470</ele>
        <time>2016-04-17T07:32:49.000Z</time>
      </trkpt>
      <trkpt lat="43.68471" lon="5.87841">
        <ele>470</ele>
        <time>2016-04-17T07:32:51.000Z</time>
      </trkpt>
      <trkpt lat="43.68471" lon="5.87841">
        <ele>470</ele>
        <time>2016-04-17T07:32:53.000Z</time>
      </trkpt>
      <trkpt lat="43.68471" lon="5.87841">
        <ele>470</ele>
        <time>2016-04-17T07:32:55.000Z</time>
      </trkpt>
      <trkpt lat="43.68471" lon="5.87841">
        <ele>470</ele>
        <time>2016-04-17T07:32:57.000Z</time>
      </trkpt>
      <trkpt lat="43.68471" lon="5.87841">
        <ele>470</ele>
        <time>2016-04-17T07:32:59.000Z</time>
      </trkpt>
      <trkpt lat="43.68471" lon="5.87841">
        <ele>470</ele>
        <time>2016-04-17T07:33:01.000Z</time>
      </trkpt>
      <trkpt lat="43.68471" lon="5.87841">
        <ele>470</ele>
        <time>2016-04-17T07:33:03.000Z</time>
      </trkpt>
      <trkpt lat="43.68471" lon="5.87841">
        <ele>470</ele>
        <time>2016-04-17T07:33:05.000Z</time>
      </trkpt>
      <trkpt lat="43.68471" lon="5.87841">
        <ele>470</ele>
        <time>2016-04-17T07:33:07.000Z</time>
      </trkpt>
      <trkpt lat="43.68471" lon="5.87841">
        <ele>470</ele>
        <time>2016-04-17T07:33:09.000Z</time>
      </trkpt>
      <trkpt lat="43.68471" lon="5.87841">
        <ele>470</ele>
        <time>2016-04-17T07:33:11.000Z</time>
      </trkpt>
      <trkpt lat="43.68471" lon="5.87841">
        <ele>470</ele>
        <time>2016-04-17T07:33:13.000Z</time>
      </trkpt>
      <trkpt lat="43.68471" lon="5.87841">
        <ele>470</ele>
        <time>2016-04-17T07:33:15.000Z</time>
      </trkpt>
      <trkpt lat="43.68471" lon="5.87841">
        <ele>470</ele>
        <time>2016-04-17T07:33:17.000Z</time>
      </trkpt>
      <trkpt lat="43.68471" lon="5.87841">
        <ele>470</ele>
        <time>2016-04-17T07:33:19.000Z</time>
      </trkpt>
      <trkpt lat="43.68471" lon="5.87841">
        <ele>470</ele>
        <time>2016-04-17T07:33:25.000Z</time>
      </trkpt>
      <trkpt lat="43.68471" lon="5.87841">
        <ele>470</ele>
        <time>2016-04-17T07:33:27.000Z</time>
      </trkpt>
      <trkpt lat="43.68471" lon="5.87841">
        <ele>470</ele>
        <time>2016-04-17T07:33:29.000Z</time>
      </trkpt>
      <trkpt lat="43.68471" lon="5.87841">
        <ele>470</ele>
        <time>2016-04-17T07:33:31.000Z</time>
      </trkpt>
      <trkpt lat="43.68471" lon="5.87841">
        <ele>470</ele>
        <time>2016-04-17T07:33:33.000Z</time>
      </trkpt>
      <trkpt lat="43.68473" lon="5.87906">
        <ele>474</ele>
        <time>2016-04-17T07:33:35.000Z</time>
      </trkpt>
      <trkpt lat="43.68471" lon="5.87935">
        <ele>474</ele>
        <time>2016-04-17T07:33:37.000Z</time>
      </trkpt>
      <trkpt lat="43.68468" lon="5.87947">
        <ele>475</ele>
        <time>2016-04-17T07:33:39.000Z</time>
      </trkpt>
      <trkpt lat="43.68464" lon="5.87951">
        <ele>475</ele>
        <time>2016-04-17T07:33:41.000Z</time>
      </trkpt>
      <trkpt lat="43.68459" lon="5.87947">
        <ele>475</ele>
        <time>2016-04-17T07:33:45.000Z</time>
      </trkpt>
      <trkpt lat="43.68455" lon="5.87942">
        <ele>476</ele>
        <time>2016-04-17T07:33:47.000Z</time>
      </trkpt>
      <trkpt lat="43.68455" lon="5.87942">
        <ele>476</ele>
        <time>2016-04-17T07:33:49.000Z</time>
      </trkpt>
      <trkpt lat="43.68455" lon="5.87942">
        <ele>476</ele>
        <time>2016-04-17T07:33:51.000Z</time>
      </trkpt>
      <trkpt lat="43.68455" lon="5.87942">
        <ele>476</ele>
        <time>2016-04-17T07:33:53.000Z</time>
      </trkpt>
      <trkpt lat="43.68455" lon="5.87942">
        <ele>476</ele>
        <time>2016-04-17T07:33:55.000Z</time>
      </trkpt>
      <trkpt lat="43.68455" lon="5.87942">
        <ele>476</ele>
        <time>2016-04-17T07:33:57.000Z</time>
      </trkpt>
      <trkpt lat="43.68455" lon="5.87942">
        <ele>476</ele>
        <time>2016-04-17T07:33:59.000Z</time>
      </trkpt>
      <trkpt lat="43.68435" lon="5.87934">
        <ele>476</ele>
        <time>2016-04-17T07:34:01.000Z</time>
      </trkpt>
      <trkpt lat="43.68422" lon="5.87929">
        <ele>476</ele>
        <time>2016-04-17T07:34:03.000Z</time>
      </trkpt>
      <trkpt lat="43.68413" lon="5.87925">
        <ele>475</ele>
        <time>2016-04-17T07:34:05.000Z</time>
      </trkpt>
      <trkpt lat="43.68405" lon="5.87922">
        <ele>476</ele>
        <time>2016-04-17T07:34:07.000Z</time>
      </trkpt>
      <trkpt lat="43.68399" lon="5.8792">
        <ele>476</ele>
        <time>2016-04-17T07:34:09.000Z</time>
      </trkpt>
      <trkpt lat="43.68386" lon="5.87917">
        <ele>475</ele>
        <time>2016-04-17T07:34:11.000Z</time>
      </trkpt>
      <trkpt lat="43.68373" lon="5.87916">
        <ele>476</ele>
        <time>2016-04-17T07:34:15.000Z</time>
      </trkpt>
      <trkpt lat="43.6836" lon="5.87912">
        <ele>475</ele>
        <time>2016-04-17T07:34:19.000Z</time>
      </trkpt>
      <trkpt lat="43.68348" lon="5.87907">
        <ele>475</ele>
        <time>2016-04-17T07:34:23.000Z</time>
      </trkpt>
      <trkpt lat="43.68336" lon="5.87902">
        <ele>476</ele>
        <time>2016-04-17T07:34:27.000Z</time>
      </trkpt>
      <trkpt lat="43.68323" lon="5.87899">
        <ele>475</ele>
        <time>2016-04-17T07:34:31.000Z</time>
      </trkpt>
      <trkpt lat="43.68311" lon="5.87895">
        <ele>476</ele>
        <time>2016-04-17T07:34:35.000Z</time>
      </trkpt>
      <trkpt lat="43.68298" lon="5.87892">
        <ele>476</ele>
        <time>2016-04-17T07:34:39.000Z</time>
      </trkpt>
      <trkpt lat="43.68285" lon="5.87895">
        <ele>475</ele>
        <time>2016-04-17T07:34:43.000Z</time>
      </trkpt>
      <trkpt lat="43.68273" lon="5.87908">
        <ele>476</ele>
        <time>2016-04-17T07:34:47.000Z</time>
      </trkpt>
      <trkpt lat="43.68262" lon="5.87918">
        <ele>475</ele>
        <time>2016-04-17T07:34:51.000Z</time>
      </trkpt>
      <trkpt lat="43.68253" lon="5.87933">
        <ele>475</ele>
        <time>2016-04-17T07:34:55.000Z</time>
      </trkpt>
      <trkpt lat="43.68244" lon="5.87948">
        <ele>473</ele>
        <time>2016-04-17T07:34:59.000Z</time>
      </trkpt>
      <trkpt lat="43.68234" lon="5.87961">
        <ele>474</ele>
        <time>2016-04-17T07:35:03.000Z</time>
      </trkpt>
      <trkpt lat="43.68227" lon="5.87977">
        <ele>473</ele>
        <time>2016-04-17T07:35:07.000Z</time>
      </trkpt>
      <trkpt lat="43.68227" lon="5.87977">
        <ele>473</ele>
        <time>2016-04-17T07:35:09.000Z</time>
      </trkpt>
      <trkpt lat="43.68227" lon="5.87977">
        <ele>473</ele>
        <time>2016-04-17T07:35:11.000Z</time>
      </trkpt>
      <trkpt lat="43.68227" lon="5.87977">
        <ele>473</ele>
        <time>2016-04-17T07:35:13.000Z</time>
      </trkpt>
      <trkpt lat="43.68227" lon="5.87977">
        <ele>473</ele>
        <time>2016-04-17T07:35:15.000Z</time>
      </trkpt>
      <trkpt lat="43.68227" lon="5.87977">
        <ele>473</ele>
        <time>2016-04-17T07:35:17.000Z</time>
      </trkpt>
      <trkpt lat="43.68227" lon="5.87977">
        <ele>473</ele>
        <time>2016-04-17T07:35:19.000Z</time>
      </trkpt>
      <trkpt lat="43.68227" lon="5.87977">
        <ele>473</ele>
        <time>2016-04-17T07:35:21.000Z</time>
      </trkpt>
      <trkpt lat="43.68227" lon="5.87977">
        <ele>473</ele>
        <time>2016-04-17T07:35:23.000Z</time>
      </trkpt>
      <trkpt lat="43.68227" lon="5.87977">
        <ele>473</ele>
        <time>2016-04-17T07:35:25.000Z</time>
      </trkpt>
      <trkpt lat="43.68227" lon="5.87977">
        <ele>473</ele>
        <time>2016-04-17T07:35:27.000Z</time>
      </trkpt>
      <trkpt lat="43.68227" lon="5.87977">
        <ele>473</ele>
        <time>2016-04-17T07:35:29.000Z</time>
      </trkpt>
      <trkpt lat="43.68227" lon="5.87977">
        <ele>473</ele>
        <time>2016-04-17T07:35:31.000Z</time>
      </trkpt>
      <trkpt lat="43.68227" lon="5.87977">
        <ele>473</ele>
        <time>2016-04-17T07:35:33.000Z</time>
      </trkpt>
      <trkpt lat="43.68227" lon="5.87977">
        <ele>473</ele>
        <time>2016-04-17T07:35:35.000Z</time>
      </trkpt>
      <trkpt lat="43.68227" lon="5.87977">
        <ele>473</ele>
        <time>2016-04-17T07:35:37.000Z</time>
      </trkpt>
      <trkpt lat="43.68227" lon="5.87977">
        <ele>473</ele>
        <time>2016-04-17T07:35:39.000Z</time>
      </trkpt>
      <trkpt lat="43.68227" lon="5.87977">
        <ele>473</ele>
        <time>2016-04-17T07:35:41.000Z</time>
      </trkpt>
      <trkpt lat="43.68227" lon="5.87977">
        <ele>473</ele>
        <time>2016-04-17T07:35:43.000Z</time>
      </trkpt>
      <trkpt lat="43.68227" lon="5.87977">
        <ele>473</ele>
        <time>2016-04-17T07:35:45.000Z</time>
      </trkpt>
      <trkpt lat="43.68227" lon="5.87977">
        <ele>473</ele>
        <time>2016-04-17T07:35:47.000Z</time>
      </trkpt>
      <trkpt lat="43.68227" lon="5.87977">
        <ele>473</ele>
        <time>2016-04-17T07:35:49.000Z</time>
      </trkpt>
      <trkpt lat="43.68227" lon="5.87977">
        <ele>473</ele>
        <time>2016-04-17T07:35:51.000Z</time>
      </trkpt>
      <trkpt lat="43.68227" lon="5.87977">
        <ele>473</ele>
        <time>2016-04-17T07:35:53.000Z</time>
      </trkpt>
      <trkpt lat="43.68227" lon="5.87977">
        <ele>473</ele>
        <time>2016-04-17T07:35:55.000Z</time>
      </trkpt>
      <trkpt lat="43.68227" lon="5.87977">
        <ele>473</ele>
        <time>2016-04-17T07:35:57.000Z</time>
      </trkpt>
      <trkpt lat="43.68227" lon="5.87977">
        <ele>473</ele>
        <time>2016-04-17T07:35:59.000Z</time>
      </trkpt>
      <trkpt lat="43.68227" lon="5.87977">
        <ele>473</ele>
        <time>2016-04-17T07:36:01.000Z</time>
      </trkpt>
      <trkpt lat="43.68227" lon="5.87977">
        <ele>473</ele>
        <time>2016-04-17T07:36:03.000Z</time>
      </trkpt>
      <trkpt lat="43.68224" lon="5.87914">
        <ele>483</ele>
        <time>2016-04-17T07:36:13.000Z</time>
      </trkpt>
      <trkpt lat="43.68224" lon="5.87881">
        <ele>484</ele>
        <time>2016-04-17T07:36:15.000Z</time>
      </trkpt>
      <trkpt lat="43.68224" lon="5.87881">
        <ele>484</ele>
        <time>2016-04-17T07:36:17.000Z</time>
      </trkpt>
      <trkpt lat="43.68224" lon="5.87881">
        <ele>484</ele>
        <time>2016-04-17T07:36:19.000Z</time>
      </trkpt>
      <trkpt lat="43.68224" lon="5.87881">
        <ele>484</ele>
        <time>2016-04-17T07:36:21.000Z</time>
      </trkpt>
      <trkpt lat="43.68224" lon="5.87881">
        <ele>484</ele>
        <time>2016-04-17T07:36:23.000Z</time>
      </trkpt>
      <trkpt lat="43.68224" lon="5.87881">
        <ele>484</ele>
        <time>2016-04-17T07:36:25.000Z</time>
      </trkpt>
      <trkpt lat="43.68224" lon="5.87881">
        <ele>484</ele>
        <time>2016-04-17T07:36:27.000Z</time>
      </trkpt>
      <trkpt lat="43.68224" lon="5.87881">
        <ele>484</ele>
        <time>2016-04-17T07:36:29.000Z</time>
      </trkpt>
      <trkpt lat="43.68224" lon="5.87881">
        <ele>484</ele>
        <time>2016-04-17T07:36:31.000Z</time>
      </trkpt>
      <trkpt lat="43.68224" lon="5.87881">
        <ele>484</ele>
        <time>2016-04-17T07:36:33.000Z</time>
      </trkpt>
      <trkpt lat="43.68236" lon="5.87814">
        <ele>487</ele>
        <time>2016-04-17T07:36:51.000Z</time>
      </trkpt>
      <trkpt lat="43.68236" lon="5.87814">
        <ele>487</ele>
        <time>2016-04-17T07:36:55.000Z</time>
      </trkpt>
      <trkpt lat="43.68236" lon="5.87814">
        <ele>487</ele>
        <time>2016-04-17T07:36:57.000Z</time>
      </trkpt>
      <trkpt lat="43.68236" lon="5.87814">
        <ele>487</ele>
        <time>2016-04-17T07:36:59.000Z</time>
      </trkpt>
      <trkpt lat="43.68236" lon="5.87814">
        <ele>487</ele>
        <time>2016-04-17T07:37:01.000Z</time>
      </trkpt>
      <trkpt lat="43.68252" lon="5.8779">
        <ele>489</ele>
        <time>2016-04-17T07:37:05.000Z</time>
      </trkpt>
      <trkpt lat="43.68257" lon="5.87776">
        <ele>487</ele>
        <time>2016-04-17T07:37:11.000Z</time>
      </trkpt>
      <trkpt lat="43.68265" lon="5.8777">
        <ele>487</ele>
        <time>2016-04-17T07:37:15.000Z</time>
      </trkpt>
      <trkpt lat="43.68271" lon="5.87758">
        <ele>488</ele>
        <time>2016-04-17T07:37:19.000Z</time>
      </trkpt>
      <trkpt lat="43.6828" lon="5.8775">
        <ele>489</ele>
        <time>2016-04-17T07:37:23.000Z</time>
      </trkpt>
      <trkpt lat="43.6829" lon="5.87747">
        <ele>489</ele>
        <time>2016-04-17T07:37:27.000Z</time>
      </trkpt>
      <trkpt lat="43.68299" lon="5.87744">
        <ele>491</ele>
        <time>2016-04-17T07:37:31.000Z</time>
      </trkpt>
      <trkpt lat="43.68304" lon="5.87733">
        <ele>491</ele>
        <time>2016-04-17T07:37:35.000Z</time>
      </trkpt>
      <trkpt lat="43.68304" lon="5.87733">
        <ele>491</ele>
        <time>2016-04-17T07:37:37.000Z</time>
      </trkpt>
      <trkpt lat="43.68304" lon="5.87733">
        <ele>491</ele>
        <time>2016-04-17T07:37:39.000Z</time>
      </trkpt>
      <trkpt lat="43.68304" lon="5.87733">
        <ele>491</ele>
        <time>2016-04-17T07:37:41.000Z</time>
      </trkpt>
      <trkpt lat="43.68304" lon="5.87733">
        <ele>491</ele>
        <time>2016-04-17T07:37:43.000Z</time>
      </trkpt>
      <trkpt lat="43.68304" lon="5.87733">
        <ele>491</ele>
        <time>2016-04-17T07:37:45.000Z</time>
      </trkpt>
      <trkpt lat="43.68304" lon="5.87733">
        <ele>491</ele>
        <time>2016-04-17T07:37:47.000Z</time>
      </trkpt>
      <trkpt lat="43.68304" lon="5.87733">
        <ele>491</ele>
        <time>2016-04-17T07:37:49.000Z</time>
      </trkpt>
      <trkpt lat="43.68304" lon="5.87733">
        <ele>491</ele>
        <time>2016-04-17T07:37:51.000Z</time>
      </trkpt>
      <trkpt lat="43.68304" lon="5.87733">
        <ele>491</ele>
        <time>2016-04-17T07:37:53.000Z</time>
      </trkpt>
      <trkpt lat="43.68304" lon="5.87733">
        <ele>491</ele>
        <time>2016-04-17T07:37:55.000Z</time>
      </trkpt>
      <trkpt lat="43.68304" lon="5.87733">
        <ele>491</ele>
        <time>2016-04-17T07:37:57.000Z</time>
      </trkpt>
      <trkpt lat="43.68304" lon="5.87733">
        <ele>491</ele>
        <time>2016-04-17T07:37:59.000Z</time>
      </trkpt>
      <trkpt lat="43.68304" lon="5.87733">
        <ele>491</ele>
        <time>2016-04-17T07:38:01.000Z</time>
      </trkpt>
      <trkpt lat="43.68338" lon="5.87674">
        <ele>494</ele>
        <time>2016-04-17T07:38:05.000Z</time>
      </trkpt>
      <trkpt lat="43.68338" lon="5.87674">
        <ele>494</ele>
        <time>2016-04-17T07:38:07.000Z</time>
      </trkpt>
      <trkpt lat="43.68338" lon="5.87674">
        <ele>494</ele>
        <time>2016-04-17T07:38:09.000Z</time>
      </trkpt>
      <trkpt lat="43.68338" lon="5.87674">
        <ele>494</ele>
        <time>2016-04-17T07:38:11.000Z</time>
      </trkpt>
      <trkpt lat="43.68338" lon="5.87674">
        <ele>494</ele>
        <time>2016-04-17T07:38:13.000Z</time>
      </trkpt>
      <trkpt lat="43.68338" lon="5.87674">
        <ele>494</ele>
        <time>2016-04-17T07:38:15.000Z</time>
      </trkpt>
      <trkpt lat="43.68335" lon="5.87665">
        <ele>497</ele>
        <time>2016-04-17T07:38:21.000Z</time>
      </trkpt>
      <trkpt lat="43.68332" lon="5.87658">
        <ele>498</ele>
        <time>2016-04-17T07:38:23.000Z</time>
      </trkpt>
      <trkpt lat="43.68328" lon="5.87651">
        <ele>498</ele>
        <time>2016-04-17T07:38:27.000Z</time>
      </trkpt>
      <trkpt lat="43.68327" lon="5.87645">
        <ele>498</ele>
        <time>2016-04-17T07:38:29.000Z</time>
      </trkpt>
      <trkpt lat="43.68325" lon="5.87638">
        <ele>498</ele>
        <time>2016-04-17T07:38:33.000Z</time>
      </trkpt>
      <trkpt lat="43.68321" lon="5.87633">
        <ele>500</ele>
        <time>2016-04-17T07:38:37.000Z</time>
      </trkpt>
      <trkpt lat="43.68317" lon="5.8763">
        <ele>500</ele>
        <time>2016-04-17T07:38:41.000Z</time>
      </trkpt>
      <trkpt lat="43.68312" lon="5.87625">
        <ele>501</ele>
        <time>2016-04-17T07:38:45.000Z</time>
      </trkpt>
      <trkpt lat="43.68307" lon="5.87623">
        <ele>501</ele>
        <time>2016-04-17T07:38:49.000Z</time>
      </trkpt>
      <trkpt lat="43.68303" lon="5.8762">
        <ele>501</ele>
        <time>2016-04-17T07:38:51.000Z</time>
      </trkpt>
      <trkpt lat="43.68299" lon="5.87614">
        <ele>500</ele>
        <time>2016-04-17T07:38:55.000Z</time>
      </trkpt>
      <trkpt lat="43.68295" lon="5.87609">
        <ele>499</ele>
        <time>2016-04-17T07:38:57.000Z</time>
      </trkpt>
      <trkpt lat="43.68289" lon="5.87605">
        <ele>499</ele>
        <time>2016-04-17T07:39:01.000Z</time>
      </trkpt>
      <trkpt lat="43.68285" lon="5.87603">
        <ele>500</ele>
        <time>2016-04-17T07:39:03.000Z</time>
      </trkpt>
      <trkpt lat="43.68285" lon="5.87603">
        <ele>500</ele>
        <time>2016-04-17T07:39:05.000Z</time>
      </trkpt>
      <trkpt lat="43.68285" lon="5.87603">
        <ele>500</ele>
        <time>2016-04-17T07:39:07.000Z</time>
      </trkpt>
      <trkpt lat="43.68285" lon="5.87603">
        <ele>500</ele>
        <time>2016-04-17T07:39:09.000Z</time>
      </trkpt>
      <trkpt lat="43.68274" lon="5.87598">
        <ele>500</ele>
        <time>2016-04-17T07:39:15.000Z</time>
      </trkpt>
      <trkpt lat="43.68266" lon="5.87594">
        <ele>500</ele>
        <time>2016-04-17T07:39:17.000Z</time>
      </trkpt>
      <trkpt lat="43.68259" lon="5.8759">
        <ele>500</ele>
        <time>2016-04-17T07:39:19.000Z</time>
      </trkpt>
      <trkpt lat="43.68254" lon="5.87584">
        <ele>499</ele>
        <time>2016-04-17T07:39:21.000Z</time>
      </trkpt>
      <trkpt lat="43.68252" lon="5.87578">
        <ele>498</ele>
        <time>2016-04-17T07:39:23.000Z</time>
      </trkpt>
      <trkpt lat="43.68252" lon="5.87578">
        <ele>498</ele>
        <time>2016-04-17T07:39:25.000Z</time>
      </trkpt>
      <trkpt lat="43.68252" lon="5.87578">
        <ele>498</ele>
        <time>2016-04-17T07:39:27.000Z</time>
      </trkpt>
      <trkpt lat="43.68252" lon="5.87578">
        <ele>498</ele>
        <time>2016-04-17T07:39:29.000Z</time>
      </trkpt>
      <trkpt lat="43.68252" lon="5.87578">
        <ele>498</ele>
        <time>2016-04-17T07:39:31.000Z</time>
      </trkpt>
      <trkpt lat="43.68252" lon="5.87578">
        <ele>498</ele>
        <time>2016-04-17T07:39:33.000Z</time>
      </trkpt>
      <trkpt lat="43.68252" lon="5.87578">
        <ele>498</ele>
        <time>2016-04-17T07:39:35.000Z</time>
      </trkpt>
      <trkpt lat="43.68252" lon="5.87578">
        <ele>498</ele>
        <time>2016-04-17T07:39:37.000Z</time>
      </trkpt>
      <trkpt lat="43.68252" lon="5.87578">
        <ele>498</ele>
        <time>2016-04-17T07:39:39.000Z</time>
      </trkpt>
      <trkpt lat="43.68252" lon="5.87578">
        <ele>498</ele>
        <time>2016-04-17T07:39:41.000Z</time>
      </trkpt>
      <trkpt lat="43.68252" lon="5.87578">
        <ele>498</ele>
        <time>2016-04-17T07:39:43.000Z</time>
      </trkpt>
      <trkpt lat="43.68252" lon="5.87578">
        <ele>498</ele>
        <time>2016-04-17T07:39:45.000Z</time>
      </trkpt>
      <trkpt lat="43.68252" lon="5.87578">
        <ele>498</ele>
        <time>2016-04-17T07:39:47.000Z</time>
      </trkpt>
      <trkpt lat="43.68252" lon="5.87578">
        <ele>498</ele>
        <time>2016-04-17T07:39:49.000Z</time>
      </trkpt>
      <trkpt lat="43.68265" lon="5.87505">
        <ele>499</ele>
        <time>2016-04-17T07:39:51.000Z</time>
      </trkpt>
      <trkpt lat="43.68265" lon="5.87505">
        <ele>499</ele>
        <time>2016-04-17T07:39:57.000Z</time>
      </trkpt>
      <trkpt lat="43.68265" lon="5.87505">
        <ele>499</ele>
        <time>2016-04-17T07:39:59.000Z</time>
      </trkpt>
      <trkpt lat="43.68265" lon="5.87505">
        <ele>499</ele>
        <time>2016-04-17T07:40:01.000Z</time>
      </trkpt>
      <trkpt lat="43.68278" lon="5.87476">
        <ele>500</ele>
        <time>2016-04-17T07:40:05.000Z</time>
      </trkpt>
      <trkpt lat="43.68286" lon="5.87468">
        <ele>500</ele>
        <time>2016-04-17T07:40:09.000Z</time>
      </trkpt>
      <trkpt lat="43.68288" lon="5.87454">
        <ele>499</ele>
        <time>2016-04-17T07:40:13.000Z</time>
      </trkpt>
      <trkpt lat="43.68288" lon="5.8744">
        <ele>498</ele>
        <time>2016-04-17T07:40:17.000Z</time>
      </trkpt>
      <trkpt lat="43.68296" lon="5.8743">
        <ele>499</ele>
        <time>2016-04-17T07:40:21.000Z</time>
      </trkpt>
      <trkpt lat="43.68303" lon="5.87419">
        <ele>499</ele>
        <time>2016-04-17T07:40:25.000Z</time>
      </trkpt>
      <trkpt lat="43.68311" lon="5.87408">
        <ele>498</ele>
        <time>2016-04-17T07:40:29.000Z</time>
      </trkpt>
      <trkpt lat="43.6832" lon="5.87396">
        <ele>497</ele>
        <time>2016-04-17T07:40:33.000Z</time>
      </trkpt>
      <trkpt lat="43.6833" lon="5.87382">
        <ele>496</ele>
        <time>2016-04-17T07:40:37.000Z</time>
      </trkpt>
      <trkpt lat="43.68341" lon="5.87372">
        <ele>496</ele>
        <time>2016-04-17T07:40:41.000Z</time>
      </trkpt>
      <trkpt lat="43.68354" lon="5.87369">
        <ele>496</ele>
        <time>2016-04-17T07:40:45.000Z</time>
      </trkpt>
      <trkpt lat="43.68362" lon="5.87376">
        <ele>496</ele>
        <time>2016-04-17T07:40:49.000Z</time>
      </trkpt>
      <trkpt lat="43.6837" lon="5.87376">
        <ele>496</ele>
        <time>2016-04-17T07:40:51.000Z</time>
      </trkpt>
      <trkpt lat="43.68378" lon="5.87373">
        <ele>495</ele>
        <time>2016-04-17T07:40:53.000Z</time>
      </trkpt>
      <trkpt lat="43.68385" lon="5.87367">
        <ele>494</ele>
        <time>2016-04-17T07:40:55.000Z</time>
      </trkpt>
      <trkpt lat="43.68393" lon="5.87361">
        <ele>493</ele>
        <time>2016-04-17T07:40:57.000Z</time>
      </trkpt>
      <trkpt lat="43.68409" lon="5.87347">
        <ele>492</ele>
        <time>2016-04-17T07:40:59.000Z</time>
      </trkpt>
      <trkpt lat="43.68416" lon="5.87335">
        <ele>491</ele>
        <time>2016-04-17T07:41:01.000Z</time>
      </trkpt>
      <trkpt lat="43.68422" lon="5.87322">
        <ele>492</ele>
        <time>2016-04-17T07:41:03.000Z</time>
      </trkpt>
      <trkpt lat="43.68429" lon="5.87311">
        <ele>492</ele>
        <time>2016-04-17T07:41:05.000Z</time>
      </trkpt>
      <trkpt lat="43.68434" lon="5.87299">
        <ele>491</ele>
        <time>2016-04-17T07:41:07.000Z</time>
      </trkpt>
      <trkpt lat="43.68439" lon="5.87286">
        <ele>491</ele>
        <time>2016-04-17T07:41:09.000Z</time>
      </trkpt>
      <trkpt lat="43.68444" lon="5.87272">
        <ele>490</ele>
        <time>2016-04-17T07:41:11.000Z</time>
      </trkpt>
      <trkpt lat="43.68449" lon="5.87258">
        <ele>489</ele>
        <time>2016-04-17T07:41:13.000Z</time>
      </trkpt>
      <trkpt lat="43.68454" lon="5.87246">
        <ele>489</ele>
        <time>2016-04-17T07:41:15.000Z</time>
      </trkpt>
      <trkpt lat="43.68459" lon="5.87234">
        <ele>488</ele>
        <time>2016-04-17T07:41:17.000Z</time>
      </trkpt>
      <trkpt lat="43.68466" lon="5.87223">
        <ele>488</ele>
        <time>2016-04-17T07:41:19.000Z</time>
      </trkpt>
      <trkpt lat="43.68473" lon="5.87211">
        <ele>486</ele>
        <time>2016-04-17T07:41:21.000Z</time>
      </trkpt>
      <trkpt lat="43.68479" lon="5.87199">
        <ele>486</ele>
        <time>2016-04-17T07:41:23.000Z</time>
      </trkpt>
      <trkpt lat="43.68486" lon="5.87187">
        <ele>485</ele>
        <time>2016-04-17T07:41:25.000Z</time>
      </trkpt>
      <trkpt lat="43.68493" lon="5.87175">
        <ele>486</ele>
        <time>2016-04-17T07:41:27.000Z</time>
      </trkpt>
      <trkpt lat="43.68501" lon="5.87163">
        <ele>485</ele>
        <time>2016-04-17T07:41:29.000Z</time>
      </trkpt>
      <trkpt lat="43.68508" lon="5.87151">
        <ele>485</ele>
        <time>2016-04-17T07:41:31.000Z</time>
      </trkpt>
      <trkpt lat="43.68515" lon="5.8714">
        <ele>485</ele>
        <time>2016-04-17T07:41:33.000Z</time>
      </trkpt>
      <trkpt lat="43.68523" lon="5.87129">
        <ele>484</ele>
        <time>2016-04-17T07:41:35.000Z</time>
      </trkpt>
      <trkpt lat="43.6853" lon="5.87118">
        <ele>483</ele>
        <time>2016-04-17T07:41:37.000Z</time>
      </trkpt>
      <trkpt lat="43.6853" lon="5.87118">
        <ele>483</ele>
        <time>2016-04-17T07:41:39.000Z</time>
      </trkpt>
      <trkpt lat="43.6853" lon="5.87118">
        <ele>483</ele>
        <time>2016-04-17T07:41:41.000Z</time>
      </trkpt>
      <trkpt lat="43.6853" lon="5.87118">
        <ele>483</ele>
        <time>2016-04-17T07:41:43.000Z</time>
      </trkpt>
      <trkpt lat="43.6853" lon="5.87118">
        <ele>483</ele>
        <time>2016-04-17T07:41:45.000Z</time>
      </trkpt>
      <trkpt lat="43.6853" lon="5.87118">
        <ele>483</ele>
        <time>2016-04-17T07:41:47.000Z</time>
      </trkpt>
      <trkpt lat="43.68557" lon="5.87036">
        <ele>480</ele>
        <time>2016-04-17T07:41:53.000Z</time>
      </trkpt>
      <trkpt lat="43.68557" lon="5.8702">
        <ele>479</ele>
        <time>2016-04-17T07:41:55.000Z</time>
      </trkpt>
      <trkpt lat="43.68557" lon="5.87004">
        <ele>480</ele>
        <time>2016-04-17T07:41:57.000Z</time>
      </trkpt>
      <trkpt lat="43.68559" lon="5.86988">
        <ele>480</ele>
        <time>2016-04-17T07:41:59.000Z</time>
      </trkpt>
      <trkpt lat="43.6856" lon="5.86971">
        <ele>480</ele>
        <time>2016-04-17T07:42:01.000Z</time>
      </trkpt>
      <trkpt lat="43.6856" lon="5.86954">
        <ele>480</ele>
        <time>2016-04-17T07:42:03.000Z</time>
      </trkpt>
      <trkpt lat="43.68559" lon="5.86938">
        <ele>479</ele>
        <time>2016-04-17T07:42:05.000Z</time>
      </trkpt>
      <trkpt lat="43.6856" lon="5.86921">
        <ele>479</ele>
        <time>2016-04-17T07:42:07.000Z</time>
      </trkpt>
      <trkpt lat="43.6856" lon="5.86905">
        <ele>478</ele>
        <time>2016-04-17T07:42:09.000Z</time>
      </trkpt>
      <trkpt lat="43.68561" lon="5.86889">
        <ele>478</ele>
        <time>2016-04-17T07:42:11.000Z</time>
      </trkpt>
      <trkpt lat="43.68567" lon="5.8688">
        <ele>478</ele>
        <time>2016-04-17T07:42:13.000Z</time>
      </trkpt>
      <trkpt lat="43.68567" lon="5.8688">
        <ele>478</ele>
        <time>2016-04-17T07:42:15.000Z</time>
      </trkpt>
      <trkpt lat="43.68567" lon="5.8688">
        <ele>478</ele>
        <time>2016-04-17T07:42:17.000Z</time>
      </trkpt>
      <trkpt lat="43.68567" lon="5.8688">
        <ele>478</ele>
        <time>2016-04-17T07:42:19.000Z</time>
      </trkpt>
      <trkpt lat="43.68567" lon="5.8688">
        <ele>478</ele>
        <time>2016-04-17T07:42:21.000Z</time>
      </trkpt>
      <trkpt lat="43.68567" lon="5.8688">
        <ele>478</ele>
        <time>2016-04-17T07:42:23.000Z</time>
      </trkpt>
      <trkpt lat="43.68567" lon="5.8688">
        <ele>478</ele>
        <time>2016-04-17T07:42:25.000Z</time>
      </trkpt>
      <trkpt lat="43.68603" lon="5.86815">
        <ele>478</ele>
        <time>2016-04-17T07:42:29.000Z</time>
      </trkpt>
      <trkpt lat="43.68603" lon="5.86797">
        <ele>475</ele>
        <time>2016-04-17T07:42:31.000Z</time>
      </trkpt>
      <trkpt lat="43.68604" lon="5.86779">
        <ele>474</ele>
        <time>2016-04-17T07:42:33.000Z</time>
      </trkpt>
      <trkpt lat="43.68609" lon="5.86765">
        <ele>475</ele>
        <time>2016-04-17T07:42:35.000Z</time>
      </trkpt>
      <trkpt lat="43.68615" lon="5.86754">
        <ele>475</ele>
        <time>2016-04-17T07:42:37.000Z</time>
      </trkpt>
      <trkpt lat="43.68614" lon="5.8674">
        <ele>474</ele>
        <time>2016-04-17T07:42:39.000Z</time>
      </trkpt>
      <trkpt lat="43.68613" lon="5.86725">
        <ele>473</ele>
        <time>2016-04-17T07:42:41.000Z</time>
      </trkpt>
      <trkpt lat="43.68613" lon="5.86725">
        <ele>473</ele>
        <time>2016-04-17T07:42:43.000Z</time>
      </trkpt>
      <trkpt lat="43.68613" lon="5.86725">
        <ele>473</ele>
        <time>2016-04-17T07:42:45.000Z</time>
      </trkpt>
      <trkpt lat="43.68613" lon="5.86725">
        <ele>473</ele>
        <time>2016-04-17T07:42:47.000Z</time>
      </trkpt>
      <trkpt lat="43.68613" lon="5.86725">
        <ele>473</ele>
        <time>2016-04-17T07:42:49.000Z</time>
      </trkpt>
      <trkpt lat="43.68623" lon="5.86648">
        <ele>470</ele>
        <time>2016-04-17T07:42:53.000Z</time>
      </trkpt>
      <trkpt lat="43.68631" lon="5.86633">
        <ele>469</ele>
        <time>2016-04-17T07:42:55.000Z</time>
      </trkpt>
      <trkpt lat="43.68641" lon="5.86616">
        <ele>468</ele>
        <time>2016-04-17T07:42:57.000Z</time>
      </trkpt>
      <trkpt lat="43.6865" lon="5.86595">
        <ele>468</ele>
        <time>2016-04-17T07:42:59.000Z</time>
      </trkpt>
      <trkpt lat="43.68657" lon="5.86578">
        <ele>468</ele>
        <time>2016-04-17T07:43:01.000Z</time>
      </trkpt>
      <trkpt lat="43.68661" lon="5.86564">
        <ele>467</ele>
        <time>2016-04-17T07:43:03.000Z</time>
      </trkpt>
      <trkpt lat="43.68655" lon="5.86551">
        <ele>466</ele>
        <time>2016-04-17T07:43:05.000Z</time>
      </trkpt>
      <trkpt lat="43.68655" lon="5.86551">
        <ele>466</ele>
        <time>2016-04-17T07:43:07.000Z</time>
      </trkpt>
      <trkpt lat="43.68655" lon="5.86551">
        <ele>466</ele>
        <time>2016-04-17T07:43:09.000Z</time>
      </trkpt>
      <trkpt lat="43.68655" lon="5.86551">
        <ele>466</ele>
        <time>2016-04-17T07:43:11.000Z</time>
      </trkpt>
      <trkpt lat="43.68655" lon="5.86551">
        <ele>466</ele>
        <time>2016-04-17T07:43:13.000Z</time>
      </trkpt>
      <trkpt lat="43.68655" lon="5.86551">
        <ele>466</ele>
        <time>2016-04-17T07:43:21.000Z</time>
      </trkpt>
      <trkpt lat="43.68655" lon="5.86551">
        <ele>466</ele>
        <time>2016-04-17T07:43:23.000Z</time>
      </trkpt>
      <trkpt lat="43.68655" lon="5.86551">
        <ele>466</ele>
        <time>2016-04-17T07:43:25.000Z</time>
      </trkpt>
      <trkpt lat="43.68662" lon="5.86487">
        <ele>467</ele>
        <time>2016-04-17T07:43:31.000Z</time>
      </trkpt>
      <trkpt lat="43.68668" lon="5.86447">
        <ele>467</ele>
        <time>2016-04-17T07:43:33.000Z</time>
      </trkpt>
      <trkpt lat="43.68672" lon="5.86417">
        <ele>464</ele>
        <time>2016-04-17T07:43:35.000Z</time>
      </trkpt>
      <trkpt lat="43.68676" lon="5.86395">
        <ele>464</ele>
        <time>2016-04-17T07:43:37.000Z</time>
      </trkpt>
      <trkpt lat="43.68682" lon="5.86376">
        <ele>464</ele>
        <time>2016-04-17T07:43:39.000Z</time>
      </trkpt>
      <trkpt lat="43.68693" lon="5.86341">
        <ele>463</ele>
        <time>2016-04-17T07:43:41.000Z</time>
      </trkpt>
      <trkpt lat="43.687" lon="5.86326">
        <ele>461</ele>
        <time>2016-04-17T07:43:43.000Z</time>
      </trkpt>
      <trkpt lat="43.68707" lon="5.86311">
        <ele>460</ele>
        <time>2016-04-17T07:43:45.000Z</time>
      </trkpt>
      <trkpt lat="43.68707" lon="5.86294">
        <ele>458</ele>
        <time>2016-04-17T07:43:47.000Z</time>
      </trkpt>
      <trkpt lat="43.68702" lon="5.86277">
        <ele>457</ele>
        <time>2016-04-17T07:43:49.000Z</time>
      </trkpt>
      <trkpt lat="43.68699" lon="5.8626">
        <ele>455</ele>
        <time>2016-04-17T07:43:51.000Z</time>
      </trkpt>
      <trkpt lat="43.68699" lon="5.86242">
        <ele>455</ele>
        <time>2016-04-17T07:43:53.000Z</time>
      </trkpt>
      <trkpt lat="43.68698" lon="5.86224">
        <ele>453</ele>
        <time>2016-04-17T07:43:55.000Z</time>
      </trkpt>
      <trkpt lat="43.68699" lon="5.86206">
        <ele>453</ele>
        <time>2016-04-17T07:43:57.000Z</time>
      </trkpt>
      <trkpt lat="43.68698" lon="5.86189">
        <ele>453</ele>
        <time>2016-04-17T07:43:59.000Z</time>
      </trkpt>
      <trkpt lat="43.68693" lon="5.86172">
        <ele>452</ele>
        <time>2016-04-17T07:44:01.000Z</time>
      </trkpt>
      <trkpt lat="43.68693" lon="5.86155">
        <ele>452</ele>
        <time>2016-04-17T07:44:03.000Z</time>
      </trkpt>
      <trkpt lat="43.68694" lon="5.86141">
        <ele>452</ele>
        <time>2016-04-17T07:44:05.000Z</time>
      </trkpt>
      <trkpt lat="43.68694" lon="5.86141">
        <ele>452</ele>
        <time>2016-04-17T07:44:07.000Z</time>
      </trkpt>
      <trkpt lat="43.68694" lon="5.86141">
        <ele>452</ele>
        <time>2016-04-17T07:44:09.000Z</time>
      </trkpt>
      <trkpt lat="43.68694" lon="5.86141">
        <ele>452</ele>
        <time>2016-04-17T07:44:11.000Z</time>
      </trkpt>
      <trkpt lat="43.68694" lon="5.86141">
        <ele>452</ele>
        <time>2016-04-17T07:44:13.000Z</time>
      </trkpt>
      <trkpt lat="43.68694" lon="5.86141">
        <ele>452</ele>
        <time>2016-04-17T07:44:15.000Z</time>
      </trkpt>
      <trkpt lat="43.68677" lon="5.86079">
        <ele>452</ele>
        <time>2016-04-17T07:44:23.000Z</time>
      </trkpt>
      <trkpt lat="43.68668" lon="5.86065">
        <ele>450</ele>
        <time>2016-04-17T07:44:27.000Z</time>
      </trkpt>
      <trkpt lat="43.6866" lon="5.86045">
        <ele>449</ele>
        <time>2016-04-17T07:44:31.000Z</time>
      </trkpt>
      <trkpt lat="43.68653" lon="5.86023">
        <ele>450</ele>
        <time>2016-04-17T07:44:35.000Z</time>
      </trkpt>
      <trkpt lat="43.68653" lon="5.86023">
        <ele>450</ele>
        <time>2016-04-17T07:44:37.000Z</time>
      </trkpt>
      <trkpt lat="43.68653" lon="5.86023">
        <ele>450</ele>
        <time>2016-04-17T07:44:39.000Z</time>
      </trkpt>
      <trkpt lat="43.68639" lon="5.85985">
        <ele>448</ele>
        <time>2016-04-17T07:44:42.000Z</time>
      </trkpt>
      <trkpt lat="43.68632" lon="5.85969">
        <ele>446</ele>
        <time>2016-04-17T07:44:44.000Z</time>
      </trkpt>
      <trkpt lat="43.68627" lon="5.85953">
        <ele>445</ele>
        <time>2016-04-17T07:44:46.000Z</time>
      </trkpt>
      <trkpt lat="43.68621" lon="5.8594">
        <ele>445</ele>
        <time>2016-04-17T07:44:48.000Z</time>
      </trkpt>
      <trkpt lat="43.68612" lon="5.85932">
        <ele>444</ele>
        <time>2016-04-17T07:44:50.000Z</time>
      </trkpt>
      <trkpt lat="43.68602" lon="5.85927">
        <ele>442</ele>
        <time>2016-04-17T07:44:52.000Z</time>
      </trkpt>
      <trkpt lat="43.68592" lon="5.85919">
        <ele>441</ele>
        <time>2016-04-17T07:44:54.000Z</time>
      </trkpt>
      <trkpt lat="43.68583" lon="5.85909">
        <ele>440</ele>
        <time>2016-04-17T07:44:56.000Z</time>
      </trkpt>
      <trkpt lat="43.68573" lon="5.85897">
        <ele>439</ele>
        <time>2016-04-17T07:44:58.000Z</time>
      </trkpt>
      <trkpt lat="43.68567" lon="5.85882">
        <ele>438</ele>
        <time>2016-04-17T07:45:00.000Z</time>
      </trkpt>
      <trkpt lat="43.68567" lon="5.85868">
        <ele>439</ele>
        <time>2016-04-17T07:45:02.000Z</time>
      </trkpt>
      <trkpt lat="43.68567" lon="5.85855">
        <ele>439</ele>
        <time>2016-04-17T07:45:04.000Z</time>
      </trkpt>
      <trkpt lat="43.68567" lon="5.85855">
        <ele>439</ele>
        <time>2016-04-17T07:45:06.000Z</time>
      </trkpt>
      <trkpt lat="43.68567" lon="5.85855">
        <ele>439</ele>
        <time>2016-04-17T07:45:08.000Z</time>
      </trkpt>
      <trkpt lat="43.68567" lon="5.85855">
        <ele>439</ele>
        <time>2016-04-17T07:45:10.000Z</time>
      </trkpt>
      <trkpt lat="43.68567" lon="5.85855">
        <ele>439</ele>
        <time>2016-04-17T07:45:12.000Z</time>
      </trkpt>
      <trkpt lat="43.68567" lon="5.85855">
        <ele>439</ele>
        <time>2016-04-17T07:45:14.000Z</time>
      </trkpt>
      <trkpt lat="43.68567" lon="5.85855">
        <ele>439</ele>
        <time>2016-04-17T07:45:16.000Z</time>
      </trkpt>
      <trkpt lat="43.68567" lon="5.85855">
        <ele>439</ele>
        <time>2016-04-17T07:45:18.000Z</time>
      </trkpt>
      <trkpt lat="43.68567" lon="5.85855">
        <ele>439</ele>
        <time>2016-04-17T07:45:20.000Z</time>
      </trkpt>
      <trkpt lat="43.68567" lon="5.85855">
        <ele>439</ele>
        <time>2016-04-17T07:45:22.000Z</time>
      </trkpt>
      <trkpt lat="43.68567" lon="5.85855">
        <ele>439</ele>
        <time>2016-04-17T07:45:24.000Z</time>
      </trkpt>
      <trkpt lat="43.68567" lon="5.85855">
        <ele>439</ele>
        <time>2016-04-17T07:45:26.000Z</time>
      </trkpt>
      <trkpt lat="43.68567" lon="5.85855">
        <ele>439</ele>
        <time>2016-04-17T07:45:28.000Z</time>
      </trkpt>
      <trkpt lat="43.68544" lon="5.85745">
        <ele>439</ele>
        <time>2016-04-17T07:45:32.000Z</time>
      </trkpt>
      <trkpt lat="43.68529" lon="5.85736">
        <ele>438</ele>
        <time>2016-04-17T07:45:36.000Z</time>
      </trkpt>
      <trkpt lat="43.68529" lon="5.85736">
        <ele>438</ele>
        <time>2016-04-17T07:45:38.000Z</time>
      </trkpt>
      <trkpt lat="43.68529" lon="5.85736">
        <ele>438</ele>
        <time>2016-04-17T07:45:40.000Z</time>
      </trkpt>
      <trkpt lat="43.68529" lon="5.85736">
        <ele>438</ele>
        <time>2016-04-17T07:45:42.000Z</time>
      </trkpt>
      <trkpt lat="43.68533" lon="5.85718">
        <ele>437</ele>
        <time>2016-04-17T07:45:46.000Z</time>
      </trkpt>
      <trkpt lat="43.68536" lon="5.85705">
        <ele>436</ele>
        <time>2016-04-17T07:45:48.000Z</time>
      </trkpt>
      <trkpt lat="43.6854" lon="5.85694">
        <ele>437</ele>
        <time>2016-04-17T07:45:50.000Z</time>
      </trkpt>
      <trkpt lat="43.68543" lon="5.85684">
        <ele>437</ele>
        <time>2016-04-17T07:45:52.000Z</time>
      </trkpt>
      <trkpt lat="43.68547" lon="5.85675">
        <ele>436</ele>
        <time>2016-04-17T07:45:54.000Z</time>
      </trkpt>
      <trkpt lat="43.68554" lon="5.85657">
        <ele>436</ele>
        <time>2016-04-17T07:45:56.000Z</time>
      </trkpt>
      <trkpt lat="43.68563" lon="5.85642">
        <ele>436</ele>
        <time>2016-04-17T07:46:00.000Z</time>
      </trkpt>
      <trkpt lat="43.6857" lon="5.85626">
        <ele>435</ele>
        <time>2016-04-17T07:46:04.000Z</time>
      </trkpt>
      <trkpt lat="43.6857" lon="5.85626">
        <ele>435</ele>
        <time>2016-04-17T07:46:06.000Z</time>
      </trkpt>
      <trkpt lat="43.6857" lon="5.85626">
        <ele>435</ele>
        <time>2016-04-17T07:46:08.000Z</time>
      </trkpt>
      <trkpt lat="43.6857" lon="5.85626">
        <ele>435</ele>
        <time>2016-04-17T07:46:10.000Z</time>
      </trkpt>
      <trkpt lat="43.6857" lon="5.85626">
        <ele>435</ele>
        <time>2016-04-17T07:46:12.000Z</time>
      </trkpt>
      <trkpt lat="43.6857" lon="5.85626">
        <ele>435</ele>
        <time>2016-04-17T07:46:14.000Z</time>
      </trkpt>
      <trkpt lat="43.6857" lon="5.85626">
        <ele>435</ele>
        <time>2016-04-17T07:46:16.000Z</time>
      </trkpt>
      <trkpt lat="43.6857" lon="5.85626">
        <ele>435</ele>
        <time>2016-04-17T07:46:18.000Z</time>
      </trkpt>
      <trkpt lat="43.6858" lon="5.85586">
        <ele>435</ele>
        <time>2016-04-17T07:46:20.000Z</time>
      </trkpt>
      <trkpt lat="43.68586" lon="5.85577">
        <ele>434</ele>
        <time>2016-04-17T07:46:22.000Z</time>
      </trkpt>
      <trkpt lat="43.68594" lon="5.85564">
        <ele>434</ele>
        <time>2016-04-17T07:46:24.000Z</time>
      </trkpt>
      <trkpt lat="43.68601" lon="5.85555">
        <ele>434</ele>
        <time>2016-04-17T07:46:26.000Z</time>
      </trkpt>
      <trkpt lat="43.68604" lon="5.85542">
        <ele>434</ele>
        <time>2016-04-17T07:46:28.000Z</time>
      </trkpt>
      <trkpt lat="43.68609" lon="5.8553">
        <ele>432</ele>
        <time>2016-04-17T07:46:30.000Z</time>
      </trkpt>
      <trkpt lat="43.68609" lon="5.8553">
        <ele>432</ele>
        <time>2016-04-17T07:46:32.000Z</time>
      </trkpt>
      <trkpt lat="43.68609" lon="5.8553">
        <ele>432</ele>
        <time>2016-04-17T07:46:34.000Z</time>
      </trkpt>
      <trkpt lat="43.68609" lon="5.8553">
        <ele>432</ele>
        <time>2016-04-17T07:46:36.000Z</time>
      </trkpt>
      <trkpt lat="43.68609" lon="5.8553">
        <ele>432</ele>
        <time>2016-04-17T07:46:38.000Z</time>
      </trkpt>
      <trkpt lat="43.68609" lon="5.8553">
        <ele>432</ele>
        <time>2016-04-17T07:46:40.000Z</time>
      </trkpt>
      <trkpt lat="43.68609" lon="5.8553">
        <ele>432</ele>
        <time>2016-04-17T07:46:42.000Z</time>
      </trkpt>
      <trkpt lat="43.68609" lon="5.8553">
        <ele>432</ele>
        <time>2016-04-17T07:46:44.000Z</time>
      </trkpt>
      <trkpt lat="43.68609" lon="5.8553">
        <ele>432</ele>
        <time>2016-04-17T07:46:46.000Z</time>
      </trkpt>
      <trkpt lat="43.68609" lon="5.8553">
        <ele>432</ele>
        <time>2016-04-17T07:46:48.000Z</time>
      </trkpt>
      <trkpt lat="43.68609" lon="5.8553">
        <ele>432</ele>
        <time>2016-04-17T07:46:50.000Z</time>
      </trkpt>
      <trkpt lat="43.68609" lon="5.8553">
        <ele>432</ele>
        <time>2016-04-17T07:46:52.000Z</time>
      </trkpt>
      <trkpt lat="43.68609" lon="5.8553">
        <ele>432</ele>
        <time>2016-04-17T07:46:54.000Z</time>
      </trkpt>
      <trkpt lat="43.68609" lon="5.8553">
        <ele>432</ele>
        <time>2016-04-17T07:46:56.000Z</time>
      </trkpt>
      <trkpt lat="43.68609" lon="5.8553">
        <ele>432</ele>
        <time>2016-04-17T07:46:58.000Z</time>
      </trkpt>
      <trkpt lat="43.68609" lon="5.8553">
        <ele>432</ele>
        <time>2016-04-17T07:47:00.000Z</time>
      </trkpt>
      <trkpt lat="43.68609" lon="5.8553">
        <ele>432</ele>
        <time>2016-04-17T07:47:02.000Z</time>
      </trkpt>
      <trkpt lat="43.68609" lon="5.8553">
        <ele>432</ele>
        <time>2016-04-17T07:47:04.000Z</time>
      </trkpt>
      <trkpt lat="43.68594" lon="5.85471">
        <ele>441</ele>
        <time>2016-04-17T07:47:52.000Z</time>
      </trkpt>
      <trkpt lat="43.68594" lon="5.85471">
        <ele>441</ele>
        <time>2016-04-17T07:47:58.000Z</time>
      </trkpt>
      <trkpt lat="43.68587" lon="5.855">
        <ele>440</ele>
        <time>2016-04-17T07:48:04.000Z</time>
      </trkpt>
      <trkpt lat="43.68584" lon="5.85514">
        <ele>441</ele>
        <time>2016-04-17T07:48:10.000Z</time>
      </trkpt>
      <trkpt lat="43.68581" lon="5.85527">
        <ele>441</ele>
        <time>2016-04-17T07:48:16.000Z</time>
      </trkpt>
      <trkpt lat="43.68581" lon="5.85527">
        <ele>441</ele>
        <time>2016-04-17T07:48:22.000Z</time>
      </trkpt>
      <trkpt lat="43.68581" lon="5.85527">
        <ele>441</ele>
        <time>2016-04-17T07:48:24.000Z</time>
      </trkpt>
      <trkpt lat="43.68581" lon="5.85527">
        <ele>441</ele>
        <time>2016-04-17T07:48:26.000Z</time>
      </trkpt>
      <trkpt lat="43.68581" lon="5.85527">
        <ele>441</ele>
        <time>2016-04-17T07:48:28.000Z</time>
      </trkpt>
      <trkpt lat="43.68581" lon="5.85527">
        <ele>441</ele>
        <time>2016-04-17T07:48:30.000Z</time>
      </trkpt>
      <trkpt lat="43.68581" lon="5.85527">
        <ele>441</ele>
        <time>2016-04-17T07:48:32.000Z</time>
      </trkpt>
      <trkpt lat="43.68581" lon="5.85527">
        <ele>441</ele>
        <time>2016-04-17T07:48:34.000Z</time>
      </trkpt>
      <trkpt lat="43.68581" lon="5.85527">
        <ele>441</ele>
        <time>2016-04-17T07:48:36.000Z</time>
      </trkpt>
      <trkpt lat="43.68581" lon="5.85527">
        <ele>441</ele>
        <time>2016-04-17T07:48:38.000Z</time>
      </trkpt>
      <trkpt lat="43.68581" lon="5.85527">
        <ele>441</ele>
        <time>2016-04-17T07:48:40.000Z</time>
      </trkpt>
      <trkpt lat="43.68581" lon="5.85527">
        <ele>441</ele>
        <time>2016-04-17T07:48:42.000Z</time>
      </trkpt>
      <trkpt lat="43.68562" lon="5.85585">
        <ele>442</ele>
        <time>2016-04-17T07:48:44.000Z</time>
      </trkpt>
      <trkpt lat="43.68557" lon="5.85599">
        <ele>442</ele>
        <time>2016-04-17T07:48:50.000Z</time>
      </trkpt>
      <trkpt lat="43.68553" lon="5.85614">
        <ele>442</ele>
        <time>2016-04-17T07:48:56.000Z</time>
      </trkpt>
      <trkpt lat="43.68545" lon="5.8563">
        <ele>441</ele>
        <time>2016-04-17T07:49:02.000Z</time>
      </trkpt>
      <trkpt lat="43.68534" lon="5.85645">
        <ele>440</ele>
        <time>2016-04-17T07:49:06.000Z</time>
      </trkpt>
      <trkpt lat="43.6853" lon="5.85655">
        <ele>439</ele>
        <time>2016-04-17T07:49:10.000Z</time>
      </trkpt>
      <trkpt lat="43.68527" lon="5.85665">
        <ele>439</ele>
        <time>2016-04-17T07:49:12.000Z</time>
      </trkpt>
      <trkpt lat="43.68523" lon="5.85675">
        <ele>439</ele>
        <time>2016-04-17T07:49:14.000Z</time>
      </trkpt>
      <trkpt lat="43.68519" lon="5.85685">
        <ele>439</ele>
        <time>2016-04-17T07:49:16.000Z</time>
      </trkpt>
      <trkpt lat="43.68516" lon="5.85693">
        <ele>438</ele>
        <time>2016-04-17T07:49:18.000Z</time>
      </trkpt>
      <trkpt lat="43.68516" lon="5.85693">
        <ele>438</ele>
        <time>2016-04-17T07:49:20.000Z</time>
      </trkpt>
      <trkpt lat="43.68516" lon="5.85693">
        <ele>438</ele>
        <time>2016-04-17T07:49:22.000Z</time>
      </trkpt>
      <trkpt lat="43.68516" lon="5.85693">
        <ele>438</ele>
        <time>2016-04-17T07:49:24.000Z</time>
      </trkpt>
      <trkpt lat="43.68516" lon="5.85693">
        <ele>438</ele>
        <time>2016-04-17T07:49:26.000Z</time>
      </trkpt>
      <trkpt lat="43.68516" lon="5.85693">
        <ele>438</ele>
        <time>2016-04-17T07:49:28.000Z</time>
      </trkpt>
      <trkpt lat="43.68516" lon="5.85693">
        <ele>438</ele>
        <time>2016-04-17T07:49:30.000Z</time>
      </trkpt>
      <trkpt lat="43.68516" lon="5.85693">
        <ele>438</ele>
        <time>2016-04-17T07:49:32.000Z</time>
      </trkpt>
      <trkpt lat="43.68516" lon="5.85693">
        <ele>438</ele>
        <time>2016-04-17T07:49:34.000Z</time>
      </trkpt>
      <trkpt lat="43.68516" lon="5.85693">
        <ele>438</ele>
        <time>2016-04-17T07:49:36.000Z</time>
      </trkpt>
      <trkpt lat="43.68516" lon="5.85693">
        <ele>438</ele>
        <time>2016-04-17T07:49:38.000Z</time>
      </trkpt>
      <trkpt lat="43.68516" lon="5.85693">
        <ele>438</ele>
        <time>2016-04-17T07:49:40.000Z</time>
      </trkpt>
      <trkpt lat="43.68516" lon="5.85693">
        <ele>438</ele>
        <time>2016-04-17T07:49:42.000Z</time>
      </trkpt>
      <trkpt lat="43.68516" lon="5.85693">
        <ele>438</ele>
        <time>2016-04-17T07:49:44.000Z</time>
      </trkpt>
      <trkpt lat="43.68516" lon="5.85693">
        <ele>438</ele>
        <time>2016-04-17T07:49:46.000Z</time>
      </trkpt>
      <trkpt lat="43.68516" lon="5.85693">
        <ele>438</ele>
        <time>2016-04-17T07:49:48.000Z</time>
      </trkpt>
      <trkpt lat="43.6846" lon="5.85783">
        <ele>442</ele>
        <time>2016-04-17T07:49:52.000Z</time>
      </trkpt>
      <trkpt lat="43.68456" lon="5.85797">
        <ele>442</ele>
        <time>2016-04-17T07:49:56.000Z</time>
      </trkpt>
      <trkpt lat="43.68451" lon="5.85813">
        <ele>442</ele>
        <time>2016-04-17T07:50:00.000Z</time>
      </trkpt>
      <trkpt lat="43.68446" lon="5.85829">
        <ele>441</ele>
        <time>2016-04-17T07:50:04.000Z</time>
      </trkpt>
      <trkpt lat="43.68442" lon="5.85845">
        <ele>441</ele>
        <time>2016-04-17T07:50:08.000Z</time>
      </trkpt>
      <trkpt lat="43.68442" lon="5.85845">
        <ele>441</ele>
        <time>2016-04-17T07:50:10.000Z</time>
      </trkpt>
      <trkpt lat="43.68442" lon="5.85845">
        <ele>441</ele>
        <time>2016-04-17T07:50:12.000Z</time>
      </trkpt>
      <trkpt lat="43.68442" lon="5.85845">
        <ele>441</ele>
        <time>2016-04-17T07:50:14.000Z</time>
      </trkpt>
      <trkpt lat="43.68442" lon="5.85845">
        <ele>441</ele>
        <time>2016-04-17T07:50:16.000Z</time>
      </trkpt>
      <trkpt lat="43.68442" lon="5.85845">
        <ele>441</ele>
        <time>2016-04-17T07:50:18.000Z</time>
      </trkpt>
      <trkpt lat="43.68442" lon="5.85845">
        <ele>441</ele>
        <time>2016-04-17T07:50:20.000Z</time>
      </trkpt>
      <trkpt lat="43.68442" lon="5.85845">
        <ele>441</ele>
        <time>2016-04-17T07:50:22.000Z</time>
      </trkpt>
      <trkpt lat="43.68442" lon="5.85845">
        <ele>441</ele>
        <time>2016-04-17T07:50:24.000Z</time>
      </trkpt>
      <trkpt lat="43.68442" lon="5.85845">
        <ele>441</ele>
        <time>2016-04-17T07:50:26.000Z</time>
      </trkpt>
      <trkpt lat="43.68442" lon="5.85845">
        <ele>441</ele>
        <time>2016-04-17T07:50:28.000Z</time>
      </trkpt>
      <trkpt lat="43.68442" lon="5.85845">
        <ele>441</ele>
        <time>2016-04-17T07:50:30.000Z</time>
      </trkpt>
      <trkpt lat="43.68442" lon="5.85845">
        <ele>441</ele>
        <time>2016-04-17T07:50:32.000Z</time>
      </trkpt>
      <trkpt lat="43.68442" lon="5.85845">
        <ele>441</ele>
        <time>2016-04-17T07:50:34.000Z</time>
      </trkpt>
      <trkpt lat="43.68442" lon="5.85845">
        <ele>441</ele>
        <time>2016-04-17T07:50:36.000Z</time>
      </trkpt>
      <trkpt lat="43.68442" lon="5.85845">
        <ele>441</ele>
        <time>2016-04-17T07:50:38.000Z</time>
      </trkpt>
      <trkpt lat="43.68442" lon="5.85845">
        <ele>441</ele>
        <time>2016-04-17T07:50:40.000Z</time>
      </trkpt>
      <trkpt lat="43.68442" lon="5.85845">
        <ele>441</ele>
        <time>2016-04-17T07:50:42.000Z</time>
      </trkpt>
      <trkpt lat="43.68442" lon="5.85845">
        <ele>441</ele>
        <time>2016-04-17T07:50:44.000Z</time>
      </trkpt>
      <trkpt lat="43.68442" lon="5.85845">
        <ele>441</ele>
        <time>2016-04-17T07:50:46.000Z</time>
      </trkpt>
      <trkpt lat="43.68442" lon="5.85845">
        <ele>441</ele>
        <time>2016-04-17T07:50:48.000Z</time>
      </trkpt>
      <trkpt lat="43.68442" lon="5.85845">
        <ele>441</ele>
        <time>2016-04-17T07:50:50.000Z</time>
      </trkpt>
      <trkpt lat="43.68442" lon="5.85845">
        <ele>441</ele>
        <time>2016-04-17T07:50:52.000Z</time>
      </trkpt>
      <trkpt lat="43.68442" lon="5.85845">
        <ele>441</ele>
        <time>2016-04-17T07:50:54.000Z</time>
      </trkpt>
      <trkpt lat="43.68442" lon="5.85845">
        <ele>441</ele>
        <time>2016-04-17T07:50:56.000Z</time>
      </trkpt>
      <trkpt lat="43.68442" lon="5.85845">
        <ele>441</ele>
        <time>2016-04-17T07:50:58.000Z</time>
      </trkpt>
      <trkpt lat="43.68442" lon="5.85845">
        <ele>441</ele>
        <time>2016-04-17T07:51:00.000Z</time>
      </trkpt>
      <trkpt lat="43.68442" lon="5.85845">
        <ele>441</ele>
        <time>2016-04-17T07:51:02.000Z</time>
      </trkpt>
      <trkpt lat="43.68442" lon="5.85845">
        <ele>441</ele>
        <time>2016-04-17T07:51:04.000Z</time>
      </trkpt>
      <trkpt lat="43.68442" lon="5.85845">
        <ele>441</ele>
        <time>2016-04-17T07:51:06.000Z</time>
      </trkpt>
      <trkpt lat="43.68442" lon="5.85845">
        <ele>441</ele>
        <time>2016-04-17T07:51:08.000Z</time>
      </trkpt>
      <trkpt lat="43.68442" lon="5.85845">
        <ele>441</ele>
        <time>2016-04-17T07:51:10.000Z</time>
      </trkpt>
      <trkpt lat="43.68442" lon="5.85845">
        <ele>441</ele>
        <time>2016-04-17T07:51:12.000Z</time>
      </trkpt>
      <trkpt lat="43.68442" lon="5.85845">
        <ele>441</ele>
        <time>2016-04-17T07:51:14.000Z</time>
      </trkpt>
      <trkpt lat="43.68442" lon="5.85845">
        <ele>441</ele>
        <time>2016-04-17T07:51:16.000Z</time>
      </trkpt>
      <trkpt lat="43.68442" lon="5.85845">
        <ele>441</ele>
        <time>2016-04-17T07:51:18.000Z</time>
      </trkpt>
      <trkpt lat="43.68384" lon="5.85958">
        <ele>448</ele>
        <time>2016-04-17T07:51:22.000Z</time>
      </trkpt>
      <trkpt lat="43.68352" lon="5.86018">
        <ele>448</ele>
        <time>2016-04-17T07:51:24.000Z</time>
      </trkpt>
      <trkpt lat="43.68333" lon="5.8605">
        <ele>447</ele>
        <time>2016-04-17T07:51:26.000Z</time>
      </trkpt>
      <trkpt lat="43.68319" lon="5.86069">
        <ele>447</ele>
        <time>2016-04-17T07:51:28.000Z</time>
      </trkpt>
      <trkpt lat="43.6831" lon="5.86081">
        <ele>447</ele>
        <time>2016-04-17T07:51:30.000Z</time>
      </trkpt>
      <trkpt lat="43.68294" lon="5.86097">
        <ele>447</ele>
        <time>2016-04-17T07:51:32.000Z</time>
      </trkpt>
      <trkpt lat="43.68294" lon="5.86097">
        <ele>447</ele>
        <time>2016-04-17T07:51:34.000Z</time>
      </trkpt>
      <trkpt lat="43.68294" lon="5.86097">
        <ele>447</ele>
        <time>2016-04-17T07:51:36.000Z</time>
      </trkpt>
      <trkpt lat="43.68294" lon="5.86097">
        <ele>447</ele>
        <time>2016-04-17T07:51:38.000Z</time>
      </trkpt>
      <trkpt lat="43.68294" lon="5.86097">
        <ele>447</ele>
        <time>2016-04-17T07:51:40.000Z</time>
      </trkpt>
      <trkpt lat="43.68246" lon="5.86106">
        <ele>445</ele>
        <time>2016-04-17T07:51:48.000Z</time>
      </trkpt>
      <trkpt lat="43.68233" lon="5.86105">
        <ele>444</ele>
        <time>2016-04-17T07:51:52.000Z</time>
      </trkpt>
      <trkpt lat="43.68219" lon="5.86105">
        <ele>443</ele>
        <time>2016-04-17T07:51:56.000Z</time>
      </trkpt>
      <trkpt lat="43.68219" lon="5.86105">
        <ele>443</ele>
        <time>2016-04-17T07:52:00.000Z</time>
      </trkpt>
      <trkpt lat="43.68219" lon="5.86105">
        <ele>443</ele>
        <time>2016-04-17T07:52:02.000Z</time>
      </trkpt>
      <trkpt lat="43.68219" lon="5.86105">
        <ele>443</ele>
        <time>2016-04-17T07:52:04.000Z</time>
      </trkpt>
      <trkpt lat="43.68219" lon="5.86105">
        <ele>443</ele>
        <time>2016-04-17T07:52:06.000Z</time>
      </trkpt>
      <trkpt lat="43.68219" lon="5.86105">
        <ele>443</ele>
        <time>2016-04-17T07:52:08.000Z</time>
      </trkpt>
      <trkpt lat="43.68219" lon="5.86105">
        <ele>443</ele>
        <time>2016-04-17T07:52:10.000Z</time>
      </trkpt>
      <trkpt lat="43.68219" lon="5.86105">
        <ele>443</ele>
        <time>2016-04-17T07:52:12.000Z</time>
      </trkpt>
      <trkpt lat="43.68219" lon="5.86105">
        <ele>443</ele>
        <time>2016-04-17T07:52:14.000Z</time>
      </trkpt>
      <trkpt lat="43.68219" lon="5.86105">
        <ele>443</ele>
        <time>2016-04-17T07:52:16.000Z</time>
      </trkpt>
      <trkpt lat="43.68219" lon="5.86105">
        <ele>443</ele>
        <time>2016-04-17T07:52:18.000Z</time>
      </trkpt>
      <trkpt lat="43.68219" lon="5.86105">
        <ele>443</ele>
        <time>2016-04-17T07:52:20.000Z</time>
      </trkpt>
      <trkpt lat="43.68219" lon="5.86105">
        <ele>443</ele>
        <time>2016-04-17T07:52:22.000Z</time>
      </trkpt>
      <trkpt lat="43.68219" lon="5.86105">
        <ele>443</ele>
        <time>2016-04-17T07:52:24.000Z</time>
      </trkpt>
      <trkpt lat="43.68219" lon="5.86105">
        <ele>443</ele>
        <time>2016-04-17T07:52:26.000Z</time>
      </trkpt>
      <trkpt lat="43.68219" lon="5.86105">
        <ele>443</ele>
        <time>2016-04-17T07:52:28.000Z</time>
      </trkpt>
      <trkpt lat="43.68219" lon="5.86105">
        <ele>443</ele>
        <time>2016-04-17T07:52:30.000Z</time>
      </trkpt>
      <trkpt lat="43.68219" lon="5.86105">
        <ele>443</ele>
        <time>2016-04-17T07:52:32.000Z</time>
      </trkpt>
      <trkpt lat="43.68219" lon="5.86105">
        <ele>443</ele>
        <time>2016-04-17T07:52:34.000Z</time>
      </trkpt>
      <trkpt lat="43.68219" lon="5.86105">
        <ele>443</ele>
        <time>2016-04-17T07:52:36.000Z</time>
      </trkpt>
      <trkpt lat="43.68219" lon="5.86105">
        <ele>443</ele>
        <time>2016-04-17T07:52:38.000Z</time>
      </trkpt>
      <trkpt lat="43.68219" lon="5.86105">
        <ele>443</ele>
        <time>2016-04-17T07:52:40.000Z</time>
      </trkpt>
      <trkpt lat="43.68219" lon="5.86105">
        <ele>443</ele>
        <time>2016-04-17T07:52:42.000Z</time>
      </trkpt>
      <trkpt lat="43.68219" lon="5.86105">
        <ele>443</ele>
        <time>2016-04-17T07:52:44.000Z</time>
      </trkpt>
      <trkpt lat="43.68219" lon="5.86105">
        <ele>443</ele>
        <time>2016-04-17T07:52:46.000Z</time>
      </trkpt>
      <trkpt lat="43.68219" lon="5.86105">
        <ele>443</ele>
        <time>2016-04-17T07:52:48.000Z</time>
      </trkpt>
      <trkpt lat="43.68219" lon="5.86105">
        <ele>443</ele>
        <time>2016-04-17T07:52:50.000Z</time>
      </trkpt>
      <trkpt lat="43.68219" lon="5.86105">
        <ele>443</ele>
        <time>2016-04-17T07:52:52.000Z</time>
      </trkpt>
      <trkpt lat="43.68219" lon="5.86105">
        <ele>443</ele>
        <time>2016-04-17T07:52:54.000Z</time>
      </trkpt>
      <trkpt lat="43.68219" lon="5.86105">
        <ele>443</ele>
        <time>2016-04-17T07:52:56.000Z</time>
      </trkpt>
      <trkpt lat="43.68155" lon="5.86098">
        <ele>452</ele>
        <time>2016-04-17T07:52:58.000Z</time>
      </trkpt>
      <trkpt lat="43.6812" lon="5.86094">
        <ele>452</ele>
        <time>2016-04-17T07:53:00.000Z</time>
      </trkpt>
      <trkpt lat="43.681" lon="5.8609">
        <ele>452</ele>
        <time>2016-04-17T07:53:02.000Z</time>
      </trkpt>
      <trkpt lat="43.68087" lon="5.86087">
        <ele>451</ele>
        <time>2016-04-17T07:53:04.000Z</time>
      </trkpt>
      <trkpt lat="43.68077" lon="5.86083">
        <ele>451</ele>
        <time>2016-04-17T07:53:06.000Z</time>
      </trkpt>
      <trkpt lat="43.68061" lon="5.86075">
        <ele>450</ele>
        <time>2016-04-17T07:53:08.000Z</time>
      </trkpt>
      <trkpt lat="43.68045" lon="5.86071">
        <ele>448</ele>
        <time>2016-04-17T07:53:12.000Z</time>
      </trkpt>
      <trkpt lat="43.68028" lon="5.86068">
        <ele>447</ele>
        <time>2016-04-17T07:53:16.000Z</time>
      </trkpt>
      <trkpt lat="43.68009" lon="5.86063">
        <ele>447</ele>
        <time>2016-04-17T07:53:20.000Z</time>
      </trkpt>
      <trkpt lat="43.67999" lon="5.86046">
        <ele>447</ele>
        <time>2016-04-17T07:53:24.000Z</time>
      </trkpt>
      <trkpt lat="43.67999" lon="5.86046">
        <ele>447</ele>
        <time>2016-04-17T07:53:26.000Z</time>
      </trkpt>
      <trkpt lat="43.67999" lon="5.86046">
        <ele>447</ele>
        <time>2016-04-17T07:53:28.000Z</time>
      </trkpt>
      <trkpt lat="43.67999" lon="5.86046">
        <ele>447</ele>
        <time>2016-04-17T07:53:30.000Z</time>
      </trkpt>
      <trkpt lat="43.67999" lon="5.86046">
        <ele>447</ele>
        <time>2016-04-17T07:53:32.000Z</time>
      </trkpt>
      <trkpt lat="43.67999" lon="5.86046">
        <ele>447</ele>
        <time>2016-04-17T07:53:34.000Z</time>
      </trkpt>
      <trkpt lat="43.67999" lon="5.86046">
        <ele>447</ele>
        <time>2016-04-17T07:53:36.000Z</time>
      </trkpt>
      <trkpt lat="43.67999" lon="5.86046">
        <ele>447</ele>
        <time>2016-04-17T07:53:38.000Z</time>
      </trkpt>
      <trkpt lat="43.67999" lon="5.86046">
        <ele>447</ele>
        <time>2016-04-17T07:53:40.000Z</time>
      </trkpt>
      <trkpt lat="43.67999" lon="5.86046">
        <ele>447</ele>
        <time>2016-04-17T07:53:42.000Z</time>
      </trkpt>
      <trkpt lat="43.67999" lon="5.86046">
        <ele>447</ele>
        <time>2016-04-17T07:53:44.000Z</time>
      </trkpt>
      <trkpt lat="43.67999" lon="5.86046">
        <ele>447</ele>
        <time>2016-04-17T07:53:46.000Z</time>
      </trkpt>
      <trkpt lat="43.67999" lon="5.86046">
        <ele>447</ele>
        <time>2016-04-17T07:53:48.000Z</time>
      </trkpt>
      <trkpt lat="43.67999" lon="5.86046">
        <ele>447</ele>
        <time>2016-04-17T07:53:50.000Z</time>
      </trkpt>
      <trkpt lat="43.67917" lon="5.86009">
        <ele>451</ele>
        <time>2016-04-17T07:53:56.000Z</time>
      </trkpt>
      <trkpt lat="43.67908" lon="5.86002">
        <ele>452</ele>
        <time>2016-04-17T07:54:00.000Z</time>
      </trkpt>
      <trkpt lat="43.67898" lon="5.85995">
        <ele>453</ele>
        <time>2016-04-17T07:54:04.000Z</time>
      </trkpt>
      <trkpt lat="43.67889" lon="5.85988">
        <ele>453</ele>
        <time>2016-04-17T07:54:08.000Z</time>
      </trkpt>
      <trkpt lat="43.67878" lon="5.85981">
        <ele>453</ele>
        <time>2016-04-17T07:54:12.000Z</time>
      </trkpt>
      <trkpt lat="43.67867" lon="5.85973">
        <ele>454</ele>
        <time>2016-04-17T07:54:16.000Z</time>
      </trkpt>
      <trkpt lat="43.67856" lon="5.85966">
        <ele>454</ele>
        <time>2016-04-17T07:54:20.000Z</time>
      </trkpt>
      <trkpt lat="43.67844" lon="5.8596">
        <ele>454</ele>
        <time>2016-04-17T07:54:24.000Z</time>
      </trkpt>
      <trkpt lat="43.67833" lon="5.85957">
        <ele>453</ele>
        <time>2016-04-17T07:54:28.000Z</time>
      </trkpt>
      <trkpt lat="43.67833" lon="5.85957">
        <ele>453</ele>
        <time>2016-04-17T07:54:32.000Z</time>
      </trkpt>
      <trkpt lat="43.67833" lon="5.85957">
        <ele>453</ele>
        <time>2016-04-17T07:54:34.000Z</time>
      </trkpt>
      <trkpt lat="43.67833" lon="5.85957">
        <ele>453</ele>
        <time>2016-04-17T07:54:36.000Z</time>
      </trkpt>
      <trkpt lat="43.67833" lon="5.85957">
        <ele>453</ele>
        <time>2016-04-17T07:54:38.000Z</time>
      </trkpt>
      <trkpt lat="43.67833" lon="5.85957">
        <ele>453</ele>
        <time>2016-04-17T07:54:40.000Z</time>
      </trkpt>
      <trkpt lat="43.67833" lon="5.85957">
        <ele>453</ele>
        <time>2016-04-17T07:54:42.000Z</time>
      </trkpt>
      <trkpt lat="43.67833" lon="5.85957">
        <ele>453</ele>
        <time>2016-04-17T07:54:44.000Z</time>
      </trkpt>
      <trkpt lat="43.67833" lon="5.85957">
        <ele>453</ele>
        <time>2016-04-17T07:54:46.000Z</time>
      </trkpt>
      <trkpt lat="43.67818" lon="5.85936">
        <ele>460</ele>
        <time>2016-04-17T07:54:54.000Z</time>
      </trkpt>
      <trkpt lat="43.67809" lon="5.85924">
        <ele>461</ele>
        <time>2016-04-17T07:54:56.000Z</time>
      </trkpt>
      <trkpt lat="43.67804" lon="5.85916">
        <ele>461</ele>
        <time>2016-04-17T07:54:58.000Z</time>
      </trkpt>
      <trkpt lat="43.67804" lon="5.85916">
        <ele>461</ele>
        <time>2016-04-17T07:55:00.000Z</time>
      </trkpt>
      <trkpt lat="43.67804" lon="5.85916">
        <ele>461</ele>
        <time>2016-04-17T07:55:02.000Z</time>
      </trkpt>
      <trkpt lat="43.67804" lon="5.85916">
        <ele>461</ele>
        <time>2016-04-17T07:55:04.000Z</time>
      </trkpt>
      <trkpt lat="43.67801" lon="5.85895">
        <ele>463</ele>
        <time>2016-04-17T07:55:16.000Z</time>
      </trkpt>
      <trkpt lat="43.67801" lon="5.85895">
        <ele>463</ele>
        <time>2016-04-17T07:55:18.000Z</time>
      </trkpt>
      <trkpt lat="43.67801" lon="5.85895">
        <ele>463</ele>
        <time>2016-04-17T07:55:20.000Z</time>
      </trkpt>
      <trkpt lat="43.67801" lon="5.85895">
        <ele>463</ele>
        <time>2016-04-17T07:55:24.000Z</time>
      </trkpt>
      <trkpt lat="43.67792" lon="5.85874">
        <ele>467</ele>
        <time>2016-04-17T07:55:28.000Z</time>
      </trkpt>
      <trkpt lat="43.67785" lon="5.85863">
        <ele>469</ele>
        <time>2016-04-17T07:55:34.000Z</time>
      </trkpt>
      <trkpt lat="43.67779" lon="5.85853">
        <ele>471</ele>
        <time>2016-04-17T07:55:40.000Z</time>
      </trkpt>
      <trkpt lat="43.67773" lon="5.85841">
        <ele>471</ele>
        <time>2016-04-17T07:55:46.000Z</time>
      </trkpt>
      <trkpt lat="43.67773" lon="5.85841">
        <ele>471</ele>
        <time>2016-04-17T07:55:52.000Z</time>
      </trkpt>
      <trkpt lat="43.67773" lon="5.85841">
        <ele>471</ele>
        <time>2016-04-17T07:55:54.000Z</time>
      </trkpt>
      <trkpt lat="43.67773" lon="5.85841">
        <ele>471</ele>
        <time>2016-04-17T07:55:56.000Z</time>
      </trkpt>
      <trkpt lat="43.67773" lon="5.85841">
        <ele>471</ele>
        <time>2016-04-17T07:55:58.000Z</time>
      </trkpt>
      <trkpt lat="43.67773" lon="5.85841">
        <ele>471</ele>
        <time>2016-04-17T07:56:00.000Z</time>
      </trkpt>
      <trkpt lat="43.67773" lon="5.85841">
        <ele>471</ele>
        <time>2016-04-17T07:56:02.000Z</time>
      </trkpt>
      <trkpt lat="43.67773" lon="5.85841">
        <ele>471</ele>
        <time>2016-04-17T07:56:04.000Z</time>
      </trkpt>
      <trkpt lat="43.67773" lon="5.85841">
        <ele>471</ele>
        <time>2016-04-17T07:56:06.000Z</time>
      </trkpt>
      <trkpt lat="43.67773" lon="5.85841">
        <ele>471</ele>
        <time>2016-04-17T07:56:08.000Z</time>
      </trkpt>
      <trkpt lat="43.67756" lon="5.85804">
        <ele>483</ele>
        <time>2016-04-17T07:56:34.000Z</time>
      </trkpt>
      <trkpt lat="43.67756" lon="5.85804">
        <ele>483</ele>
        <time>2016-04-17T07:56:36.000Z</time>
      </trkpt>
      <trkpt lat="43.67756" lon="5.85804">
        <ele>483</ele>
        <time>2016-04-17T07:56:38.000Z</time>
      </trkpt>
      <trkpt lat="43.67756" lon="5.85804">
        <ele>483</ele>
        <time>2016-04-17T07:56:40.000Z</time>
      </trkpt>
      <trkpt lat="43.67739" lon="5.85793">
        <ele>478</ele>
        <time>2016-04-17T07:57:12.000Z</time>
      </trkpt>
      <trkpt lat="43.67739" lon="5.85793">
        <ele>478</ele>
        <time>2016-04-17T07:57:14.000Z</time>
      </trkpt>
      <trkpt lat="43.67739" lon="5.85793">
        <ele>478</ele>
        <time>2016-04-17T07:57:16.000Z</time>
      </trkpt>
      <trkpt lat="43.67729" lon="5.8579">
        <ele>480</ele>
        <time>2016-04-17T07:57:26.000Z</time>
      </trkpt>
      <trkpt lat="43.67729" lon="5.8579">
        <ele>480</ele>
        <time>2016-04-17T07:57:32.000Z</time>
      </trkpt>
      <trkpt lat="43.67709" lon="5.85778">
        <ele>484</ele>
        <time>2016-04-17T07:57:42.000Z</time>
      </trkpt>
      <trkpt lat="43.67698" lon="5.85774">
        <ele>487</ele>
        <time>2016-04-17T07:57:50.000Z</time>
      </trkpt>
      <trkpt lat="43.67686" lon="5.85769">
        <ele>489</ele>
        <time>2016-04-17T07:57:58.000Z</time>
      </trkpt>
      <trkpt lat="43.67686" lon="5.85769">
        <ele>489</ele>
        <time>2016-04-17T07:58:04.000Z</time>
      </trkpt>
      <trkpt lat="43.67686" lon="5.85769">
        <ele>489</ele>
        <time>2016-04-17T07:58:06.000Z</time>
      </trkpt>
      <trkpt lat="43.67686" lon="5.85769">
        <ele>489</ele>
        <time>2016-04-17T07:58:08.000Z</time>
      </trkpt>
      <trkpt lat="43.67686" lon="5.85769">
        <ele>489</ele>
        <time>2016-04-17T07:58:10.000Z</time>
      </trkpt>
      <trkpt lat="43.67668" lon="5.85744">
        <ele>484</ele>
        <time>2016-04-17T08:00:16.000Z</time>
      </trkpt>
      <trkpt lat="43.67661" lon="5.85732">
        <ele>487</ele>
        <time>2016-04-17T08:00:19.000Z</time>
      </trkpt>
      <trkpt lat="43.67661" lon="5.85732">
        <ele>487</ele>
        <time>2016-04-17T08:00:21.000Z</time>
      </trkpt>
      <trkpt lat="43.67661" lon="5.85732">
        <ele>487</ele>
        <time>2016-04-17T08:00:23.000Z</time>
      </trkpt>
      <trkpt lat="43.67661" lon="5.85732">
        <ele>487</ele>
        <time>2016-04-17T08:00:25.000Z</time>
      </trkpt>
      <trkpt lat="43.67661" lon="5.85732">
        <ele>487</ele>
        <time>2016-04-17T08:00:27.000Z</time>
      </trkpt>
      <trkpt lat="43.67661" lon="5.85732">
        <ele>487</ele>
        <time>2016-04-17T08:00:29.000Z</time>
      </trkpt>
      <trkpt lat="43.67631" lon="5.85703">
        <ele>485</ele>
        <time>2016-04-17T08:00:35.000Z</time>
      </trkpt>
      <trkpt lat="43.67624" lon="5.85683">
        <ele>484</ele>
        <time>2016-04-17T08:00:39.000Z</time>
      </trkpt>
      <trkpt lat="43.6761" lon="5.85675">
        <ele>483</ele>
        <time>2016-04-17T08:00:43.000Z</time>
      </trkpt>
      <trkpt lat="43.6761" lon="5.85675">
        <ele>483</ele>
        <time>2016-04-17T08:00:45.000Z</time>
      </trkpt>
      <trkpt lat="43.6761" lon="5.85675">
        <ele>483</ele>
        <time>2016-04-17T08:00:47.000Z</time>
      </trkpt>
      <trkpt lat="43.6761" lon="5.85675">
        <ele>483</ele>
        <time>2016-04-17T08:00:49.000Z</time>
      </trkpt>
      <trkpt lat="43.6761" lon="5.85675">
        <ele>483</ele>
        <time>2016-04-17T08:00:51.000Z</time>
      </trkpt>
      <trkpt lat="43.6761" lon="5.85675">
        <ele>483</ele>
        <time>2016-04-17T08:00:53.000Z</time>
      </trkpt>
      <trkpt lat="43.67597" lon="5.85617">
        <ele>479</ele>
        <time>2016-04-17T08:00:59.000Z</time>
      </trkpt>
      <trkpt lat="43.67593" lon="5.85595">
        <ele>478</ele>
        <time>2016-04-17T08:01:03.000Z</time>
      </trkpt>
      <trkpt lat="43.6759" lon="5.85574">
        <ele>479</ele>
        <time>2016-04-17T08:01:07.000Z</time>
      </trkpt>
      <trkpt lat="43.6759" lon="5.85574">
        <ele>479</ele>
        <time>2016-04-17T08:01:09.000Z</time>
      </trkpt>
      <trkpt lat="43.6759" lon="5.85574">
        <ele>479</ele>
        <time>2016-04-17T08:01:11.000Z</time>
      </trkpt>
      <trkpt lat="43.6759" lon="5.85574">
        <ele>479</ele>
        <time>2016-04-17T08:01:13.000Z</time>
      </trkpt>
      <trkpt lat="43.6759" lon="5.85574">
        <ele>479</ele>
        <time>2016-04-17T08:01:17.000Z</time>
      </trkpt>
      <trkpt lat="43.6759" lon="5.85574">
        <ele>479</ele>
        <time>2016-04-17T08:01:19.000Z</time>
      </trkpt>
      <trkpt lat="43.6759" lon="5.85574">
        <ele>479</ele>
        <time>2016-04-17T08:01:21.000Z</time>
      </trkpt>
      <trkpt lat="43.6759" lon="5.85574">
        <ele>479</ele>
        <time>2016-04-17T08:01:23.000Z</time>
      </trkpt>
      <trkpt lat="43.6759" lon="5.85574">
        <ele>479</ele>
        <time>2016-04-17T08:01:25.000Z</time>
      </trkpt>
      <trkpt lat="43.6759" lon="5.8548">
        <ele>479</ele>
        <time>2016-04-17T08:01:29.000Z</time>
      </trkpt>
      <trkpt lat="43.67588" lon="5.85461">
        <ele>480</ele>
        <time>2016-04-17T08:01:33.000Z</time>
      </trkpt>
      <trkpt lat="43.67587" lon="5.85452">
        <ele>480</ele>
        <time>2016-04-17T08:01:37.000Z</time>
      </trkpt>
      <trkpt lat="43.67585" lon="5.85443">
        <ele>480</ele>
        <time>2016-04-17T08:01:39.000Z</time>
      </trkpt>
      <trkpt lat="43.67583" lon="5.85435">
        <ele>481</ele>
        <time>2016-04-17T08:01:41.000Z</time>
      </trkpt>
      <trkpt lat="43.67583" lon="5.85435">
        <ele>481</ele>
        <time>2016-04-17T08:01:43.000Z</time>
      </trkpt>
      <trkpt lat="43.67583" lon="5.85435">
        <ele>481</ele>
        <time>2016-04-17T08:01:45.000Z</time>
      </trkpt>
      <trkpt lat="43.67583" lon="5.85435">
        <ele>481</ele>
        <time>2016-04-17T08:01:47.000Z</time>
      </trkpt>
      <trkpt lat="43.67566" lon="5.85423">
        <ele>481</ele>
        <time>2016-04-17T08:01:53.000Z</time>
      </trkpt>
      <trkpt lat="43.67556" lon="5.85416">
        <ele>480</ele>
        <time>2016-04-17T08:01:55.000Z</time>
      </trkpt>
      <trkpt lat="43.67547" lon="5.85413">
        <ele>479</ele>
        <time>2016-04-17T08:01:57.000Z</time>
      </trkpt>
      <trkpt lat="43.67534" lon="5.85415">
        <ele>476</ele>
        <time>2016-04-17T08:02:00.000Z</time>
      </trkpt>
      <trkpt lat="43.6752" lon="5.85417">
        <ele>474</ele>
        <time>2016-04-17T08:02:02.000Z</time>
      </trkpt>
      <trkpt lat="43.6749" lon="5.85421">
        <ele>472</ele>
        <time>2016-04-17T08:02:04.000Z</time>
      </trkpt>
      <trkpt lat="43.67474" lon="5.85414">
        <ele>470</ele>
        <time>2016-04-17T08:02:06.000Z</time>
      </trkpt>
      <trkpt lat="43.67458" lon="5.85401">
        <ele>468</ele>
        <time>2016-04-17T08:02:08.000Z</time>
      </trkpt>
      <trkpt lat="43.6744" lon="5.85395">
        <ele>467</ele>
        <time>2016-04-17T08:02:10.000Z</time>
      </trkpt>
      <trkpt lat="43.67426" lon="5.85386">
        <ele>467</ele>
        <time>2016-04-17T08:02:12.000Z</time>
      </trkpt>
      <trkpt lat="43.67417" lon="5.85374">
        <ele>468</ele>
        <time>2016-04-17T08:02:14.000Z</time>
      </trkpt>
      <trkpt lat="43.6741" lon="5.85362">
        <ele>469</ele>
        <time>2016-04-17T08:02:16.000Z</time>
      </trkpt>
      <trkpt lat="43.67403" lon="5.85349">
        <ele>470</ele>
        <time>2016-04-17T08:02:18.000Z</time>
      </trkpt>
      <trkpt lat="43.67394" lon="5.85333">
        <ele>468</ele>
        <time>2016-04-17T08:02:20.000Z</time>
      </trkpt>
      <trkpt lat="43.67387" lon="5.85317">
        <ele>467</ele>
        <time>2016-04-17T08:02:22.000Z</time>
      </trkpt>
      <trkpt lat="43.67373" lon="5.85305">
        <ele>466</ele>
        <time>2016-04-17T08:02:24.000Z</time>
      </trkpt>
      <trkpt lat="43.67358" lon="5.85295">
        <ele>466</ele>
        <time>2016-04-17T08:02:26.000Z</time>
      </trkpt>
      <trkpt lat="43.67343" lon="5.85286">
        <ele>465</ele>
        <time>2016-04-17T08:02:28.000Z</time>
      </trkpt>
      <trkpt lat="43.6733" lon="5.85278">
        <ele>466</ele>
        <time>2016-04-17T08:02:30.000Z</time>
      </trkpt>
      <trkpt lat="43.67318" lon="5.85269">
        <ele>466</ele>
        <time>2016-04-17T08:02:32.000Z</time>
      </trkpt>
      <trkpt lat="43.67306" lon="5.85262">
        <ele>467</ele>
        <time>2016-04-17T08:02:34.000Z</time>
      </trkpt>
      <trkpt lat="43.67295" lon="5.85255">
        <ele>467</ele>
        <time>2016-04-17T08:02:36.000Z</time>
      </trkpt>
      <trkpt lat="43.67285" lon="5.85249">
        <ele>467</ele>
        <time>2016-04-17T08:02:38.000Z</time>
      </trkpt>
      <trkpt lat="43.67276" lon="5.85243">
        <ele>466</ele>
        <time>2016-04-17T08:02:40.000Z</time>
      </trkpt>
      <trkpt lat="43.67276" lon="5.85243">
        <ele>466</ele>
        <time>2016-04-17T08:02:42.000Z</time>
      </trkpt>
      <trkpt lat="43.67276" lon="5.85243">
        <ele>466</ele>
        <time>2016-04-17T08:02:44.000Z</time>
      </trkpt>
      <trkpt lat="43.67276" lon="5.85243">
        <ele>466</ele>
        <time>2016-04-17T08:02:46.000Z</time>
      </trkpt>
      <trkpt lat="43.67276" lon="5.85243">
        <ele>466</ele>
        <time>2016-04-17T08:02:48.000Z</time>
      </trkpt>
      <trkpt lat="43.67276" lon="5.85243">
        <ele>466</ele>
        <time>2016-04-17T08:02:50.000Z</time>
      </trkpt>
      <trkpt lat="43.67276" lon="5.85243">
        <ele>466</ele>
        <time>2016-04-17T08:02:52.000Z</time>
      </trkpt>
      <trkpt lat="43.67276" lon="5.85243">
        <ele>466</ele>
        <time>2016-04-17T08:02:54.000Z</time>
      </trkpt>
    </trkseg>
  </trk>
</gpx>